[[{"header":{"parameterUnit":"m.s-1","parameterCategory":1,"la1":31.0,"la2":29.5877,"lo1":-88.7671,"lo2":-86.6584,"dy":0.0162,"dx":0.0185,"nx":115,"ny":88,"refTime":"2023-06-21T12:00:00:Z","depth":0,"parameterNumber":2,"parameterNumberName":"U-component_of_WINDS"},"data":[0.0,0.0,0.0,0.0,0.0,0.0,0.0,0.0,0.0,0.0,0.0,0.0,0.0,0.0,0.0,0.0,0.0,0.0,0.0,0.0,0.0,0.0,0.0,0.0,0.0,0.0,0.0,0.0,0.0,0.0,0.0,0.0,0.0,0.0,0.0,0.0,0.0,0.0,0.0,0.0,0.0,0.0,0.0,0.0,0.0,0.0,0.0,0.0,0.0,0.0,0.0,0.0,0.0,0.0,0.0,0.0,0.0,0.0,0.0,0.0,0.0,0.0,0.0,0.0,0.0,0.0,0.0,0.0,0.0,0.0,0.0,0.0,0.0,0.0,0.0,0.0,0.0,0.0,0.0,0.0,0.0,0.0,0.0,0.0,0.0,0.0,0.0,0.0,0.0,0.0,0.0,0.0,0.0,0.0,0.0,0.0,0.0,0.0,0.0,0.0,0.0,0.0,0.0,0.0,0.0,0.0,0.0,0.0,0.0,0.0,0.0,0.0,0.0,0.0,0.0,0.0,0.0,0.0,0.0,0.0,0.0,0.0,0.0,0.0,0.0,0.0,0.0,0.0,0.0,0.0,0.0,0.0,0.0,0.0,0.0,0.0,0.0,0.0,0.0,0.0,0.0,0.0,0.0,0.0,0.0,0.0,0.0,0.0,0.0,0.0,0.0,0.0,0.0,0.0,0.0,0.0,0.0,0.0,0.0,0.0,0.0,0.0,0.0,0.0,0.0,0.0,0.0,0.0,0.0,0.0,0.0,0.0,0.0,0.0,0.0,0.0,0.0,0.0,0.0,0.0,0.0,0.0,0.0,0.0,0.0,0.0,0.0,0.0,0.0,0.0,0.0,0.0,0.0,0.0,0.0,0.0,0.0,0.0,0.0,0.0,0.0,0.0,0.0,0.0,0.0,0.0,0.0,0.0,0.0,0.0,0.0,0.0,0.0,0.0,0.0,0.0,0.0,0.0,0.0,0.0,0.0,0.0,0.0,0.0,0.0,0.0,0.0,0.0,0.0,0.0,0.0,0.0,0.0,0.0,0.0,0.0,0.0,0.0,0.0,0.0,0.0,0.0,0.0,0.0,0.0,0.0,0.0,0.0,0.0,0.0,0.0,0.0,0.0,0.0,0.0,0.0,0.0,0.0,0.0,0.0,0.0,0.0,0.0,0.0,0.0,0.0,0.0,0.0,0.0,0.0,0.0,0.0,0.0,0.0,0.0,0.0,0.0,0.0,0.0,0.0,0.0,0.0,0.0,0.0,0.0,0.0,0.0,0.0,0.0,0.0,0.0,0.0,0.0,0.0,0.0,0.0,0.0,0.0,0.0,0.0,0.0,0.0,0.0,0.0,0.0,0.0,0.0,0.0,0.0,0.0,0.0,0.0,0.0,0.0,0.0,0.0,0.0,0.0,0.0,0.0,0.0,0.0,0.0,0.0,0.0,0.0,0.0,0.0,0.0,0.0,0.0,0.0,0.0,0.0,0.0,0.0,0.0,0.0,0.0,0.0,0.0,0.0,0.0,0.0,0.0,0.0,0.0,0.0,0.0,0.0,0.0,0.0,0.0,0.0,0.0,0.0,0.0,0.0,0.0,0.0,0.0,0.0,0.0,0.0,0.0,0.0,0.0,0.0,0.0,0.0,0.0,0.0,0.0,0.0,0.0,0.0,0.0,0.0,0.0,0.0,0.0,0.0,0.0,0.0,0.0,0.0,0.0,0.0,0.0,0.0,0.0,0.0,0.0,0.0,0.0,0.0,0.0,0.0,0.0,0.0,0.0,0.0,0.0,0.0,0.0,0.0,0.0,0.0,0.0,0.0,0.0,0.0,0.0,0.0,0.0,0.0,0.0,0.0,0.0,0.0,0.0,0.0,0.0,0.0,0.0,0.0,0.0,0.0,0.0,0.0,0.0,0.0,0.0,0.0,0.0,0.0,0.0,0.0,0.0,0.0,0.0,0.0,0.0,0.0,0.0,0.0,0.0,0.0,0.0,0.0,0.0,0.0,0.0,0.0,0.0,0.0,0.0,0.0,0.0,0.0,0.0,0.0,0.0,0.0,0.0,0.0,0.0,0.0,0.0,0.0,0.0,0.0,0.0,0.0,0.0,0.0,0.0,0.0,0.0,0.0,0.0,0.0,0.0,0.0,0.0,0.0,0.0,0.0,0.0,0.0,0.0,0.0,0.0,0.0,0.0,0.0,0.0,0.0,0.0,0.0,0.0,0.0,0.0,0.0,0.0,0.0,0.0,0.0,0.0,0.0,0.0,0.0,0.0,0.0,0.0,0.0,0.0,0.0,0.0,0.0,0.0,0.0,0.0,0.0,0.0,0.0,0.0,0.0,0.0,0.0,0.0,0.0,0.0,0.0,0.0,0.0,0.0,0.0,0.0,0.0,0.0,0.0,0.0,0.0,0.0,0.0,0.0,0.0,0.0,0.0,0.0,0.0,0.0,0.0,0.0,0.0,0.0,0.0,0.0,0.0,0.0,0.0,0.0,0.0,0.0,0.0,0.0,0.0,0.0,0.0,0.0,0.0,0.0,0.0,0.0,0.0,0.0,0.0,0.0,0.0,0.0,0.0,0.0,0.0,0.0,0.0,0.0,0.0,0.0,0.0,0.0,0.0,0.0,0.0,0.0,0.0,0.0,0.0,0.0,0.0,0.0,0.0,0.0,0.0,0.0,0.0,0.0,0.0,0.0,0.0,0.0,0.0,0.0,0.0,0.0,0.0,0.0,0.0,0.0,0.0,0.0,0.0,0.0,0.0,0.0,0.0,0.0,0.0,0.0,0.0,0.0,0.0,0.0,0.0,0.0,0.0,0.0,0.0,0.0,0.0,0.0,0.0,0.0,0.0,0.0,0.0,0.0,0.0,0.0,0.0,0.0,0.0,0.0,0.0,0.0,0.0,0.0,0.0,0.0,0.0,0.0,0.0,0.0,0.0,0.0,0.0,0.0,0.0,0.0,0.0,0.0,0.0,0.0,0.0,0.0,0.0,0.0,0.0,0.0,0.0,0.0,0.0,0.0,0.0,0.0,0.0,0.0,0.0,0.0,0.0,0.0,0.0,0.0,0.0,0.0,0.0,0.0,0.0,0.0,0.0,0.0,0.0,0.0,0.0,0.0,0.0,0.0,0.0,0.0,0.0,0.0,0.0,0.0,0.0,0.0,0.0,0.0,0.0,0.0,0.0,0.0,0.0,0.0,0.0,0.0,0.0,0.0,0.0,0.0,0.0,0.0,0.0,0.0,0.0,0.0,0.0,0.0,0.0,0.0,0.0,0.0,0.0,0.0,0.0,0.0,0.0,0.0,0.0,0.0,0.0,0.0,0.0,0.0,0.0,0.0,0.0,0.0,0.0,0.0,0.0,0.0,0.0,0.0,0.0,0.0,0.0,0.0,0.0,0.0,0.0,0.0,0.0,0.0,0.0,0.0,0.0,0.0,0.0,0.0,0.0,0.0,0.0,0.0,0.0,0.0,0.0,0.0,0.0,0.0,0.0,0.0,0.0,0.0,0.0,0.0,0.0,0.0,0.0,0.0,0.0,0.0,0.0,0.0,0.0,0.0,0.0,0.0,0.0,0.0,0.0,0.0,0.0,0.0,0.0,0.0,0.0,0.0,0.0,0.0,0.0,0.0,0.0,0.0,0.0,0.0,0.0,0.0,0.0,0.0,0.0,0.0,0.0,0.0,0.0,0.0,0.0,0.0,0.0,0.0,0.0,0.0,0.0,0.0,0.0,0.0,0.0,0.0,0.0,0.0,0.0,0.0,0.0,0.0,0.0,0.0,0.0,0.0,0.0,0.0,0.0,0.0,0.0,0.0,0.0,0.0,0.0,0.0,0.0,0.0,0.0,0.0,0.0,0.0,0.0,0.0,0.0,0.0,0.0,0.0,0.0,0.0,0.0,0.0,0.0,0.0,0.0,0.0,0.0,0.0,0.0,0.0,0.0,0.0,0.0,0.0,0.0,0.0,0.0,0.0,0.0,0.0,0.0,0.0,0.0,0.0,0.0,0.0,0.0,0.0,0.0,0.0,0.0,0.0,0.0,0.0,0.0,0.0,0.0,0.0,0.0,0.0,0.0,0.0,0.0,0.0,0.0,0.0,0.0,0.0,0.0,0.0,0.0,0.0,0.0,0.0,0.0,0.0,0.0,0.0,0.0,0.0,0.0,0.0,0.0,0.0,0.0,0.0,0.0,0.0,0.0,0.0,0.0,0.0,0.0,0.0,0.0,0.0,0.0,0.0,0.0,0.0,0.0,0.0,0.0,0.0,0.0,-1.3793,0.0,0.0,0.0,0.0,0.0,0.0,0.0,0.0,0.0,0.0,0.0,0.0,0.0,0.0,0.0,0.0,0.0,0.0,0.0,0.0,0.0,0.0,0.0,0.0,0.0,0.0,0.0,0.0,0.0,0.0,0.0,0.0,0.0,0.0,0.0,0.0,0.0,0.0,0.0,0.0,0.0,0.0,0.0,0.0,0.0,0.0,0.0,0.0,0.0,0.0,0.0,0.0,0.0,0.0,0.0,0.0,0.0,0.0,0.0,0.0,0.0,0.0,0.0,0.0,0.0,0.0,0.0,0.0,0.0,0.0,0.0,0.0,0.0,0.0,0.0,0.0,0.0,0.0,0.0,0.0,0.0,0.0,0.0,0.0,0.0,0.0,0.0,0.0,0.0,0.0,0.0,0.0,0.0,0.0,0.0,0.0,0.0,0.0,0.0,0.0,0.0,0.0,0.0,0.0,0.0,0.0,0.0,0.0,0.0,0.0,-1.4092,-1.3742,-1.3323,-1.3298,-1.3727,0.0,0.0,0.0,0.0,0.0,0.0,0.0,0.0,0.0,0.0,0.0,0.0,0.0,0.0,0.0,0.0,0.0,0.0,0.0,0.0,0.0,0.0,0.0,0.0,0.0,0.0,0.0,0.0,0.0,0.0,0.0,0.0,0.0,0.0,0.0,0.0,0.0,0.0,0.0,0.0,0.0,0.0,0.0,0.0,0.0,0.0,0.0,0.0,0.0,0.0,0.0,0.0,0.0,0.0,0.0,0.0,0.0,0.0,0.0,0.0,0.0,0.0,0.0,0.0,0.0,0.0,0.0,0.0,0.0,0.0,0.0,0.0,0.0,0.0,0.0,0.0,0.0,0.0,0.0,0.0,0.0,0.0,0.0,0.0,0.0,0.0,0.0,0.0,0.0,0.0,0.0,0.0,0.0,0.0,0.0,0.0,0.0,0.0,0.0,0.0,0.0,0.0,0.0,0.0,0.0,0.0,0.0,0.0,0.0,0.0,0.0,0.0,-1.2707,-1.2666,-1.3108,0.0,0.0,0.0,0.0,0.0,0.0,0.0,0.0,0.0,0.0,0.0,0.0,0.0,0.0,0.0,0.0,0.0,0.0,0.0,0.0,0.0,0.0,0.0,0.0,0.0,0.0,0.0,0.0,0.0,0.0,0.0,0.0,0.0,0.0,0.0,0.0,0.0,0.0,0.0,0.0,0.0,0.0,0.0,0.0,0.0,0.0,0.0,0.0,0.0,0.0,0.0,0.0,0.0,0.0,0.0,0.0,0.0,0.0,0.0,0.0,0.0,0.0,0.0,0.0,0.0,0.0,0.0,0.0,0.0,0.0,0.0,0.0,0.0,0.0,0.0,0.0,0.0,0.0,0.0,0.0,0.0,0.0,0.0,0.0,0.0,0.0,0.0,0.0,0.0,0.0,0.0,0.0,0.0,0.0,0.0,0.0,0.0,0.0,0.0,0.0,0.0,0.0,0.0,0.0,0.0,0.0,0.0,0.0,0.0,0.0,-1.2903,-1.1493,-1.2081,0.0,-1.1476,0.0,0.0,0.0,0.0,0.0,0.0,0.0,0.0,0.0,0.0,0.0,0.0,0.0,0.0,0.0,0.0,0.0,0.0,0.0,0.0,0.0,0.0,0.0,0.0,0.0,0.0,0.0,0.0,0.0,0.0,0.0,0.0,0.0,0.0,0.0,0.0,0.0,0.0,0.0,0.0,0.0,0.0,0.0,0.0,0.0,0.0,0.0,0.0,0.0,0.0,0.0,0.0,0.0,0.0,0.0,0.0,0.0,0.0,0.0,0.0,0.0,0.0,0.0,0.0,0.0,0.0,0.0,0.0,0.0,0.0,0.0,0.0,0.0,0.0,0.0,0.0,0.0,0.0,0.0,0.0,0.0,0.0,0.0,0.0,0.0,0.0,0.0,0.0,0.0,0.0,0.0,0.0,0.0,0.0,0.0,0.0,0.0,0.0,0.0,0.0,0.0,0.0,0.0,0.0,0.0,0.0,0.0,0.0,0.0,0.0,-1.2522,-1.1862,-1.2143,-1.2115,0.0,0.0,0.0,0.0,0.0,0.0,0.0,0.0,0.0,0.0,0.0,0.0,0.0,0.0,0.0,0.0,0.0,0.0,0.0,0.0,0.0,0.0,0.0,0.0,0.0,0.0,0.0,0.0,0.0,0.0,0.0,0.0,0.0,0.0,0.0,0.0,0.0,0.0,0.0,0.0,0.0,0.0,0.0,0.0,0.0,0.0,0.0,0.0,0.0,0.0,0.0,0.0,0.0,0.0,0.0,0.0,0.0,0.0,0.0,0.0,0.0,0.0,0.0,0.0,0.0,0.0,0.0,0.0,0.0,0.0,0.0,0.0,0.0,0.0,0.0,0.0,0.0,0.0,0.0,0.0,0.0,0.0,0.0,0.0,0.0,0.0,0.0,0.0,0.0,0.0,0.0,0.0,0.0,0.0,0.0,0.0,0.0,0.0,0.0,0.0,0.0,0.0,0.0,0.0,0.0,0.0,0.0,0.0,0.0,0.0,-1.1516,-1.1958,-1.1939,-1.1903,-1.1859,-1.1847,0.0,0.0,0.0,0.0,0.0,0.0,0.0,0.0,0.0,0.0,0.0,0.0,0.0,0.0,0.0,0.0,0.0,0.0,0.0,0.0,0.0,0.0,0.0,0.0,0.0,0.0,0.0,0.0,0.0,0.0,0.0,0.0,0.0,0.0,0.0,0.0,0.0,0.0,0.0,0.0,0.0,0.0,0.0,0.0,0.0,0.0,0.0,0.0,0.0,0.0,0.0,0.0,0.0,0.0,0.0,0.0,0.0,0.0,0.0,0.0,0.0,0.0,0.0,0.0,0.0,0.0,0.0,0.0,0.0,0.0,0.0,0.0,0.0,0.0,0.0,0.0,0.0,0.0,0.0,0.0,0.0,0.0,0.0,0.0,0.0,0.0,0.0,0.0,0.0,0.0,0.0,0.0,0.0,0.0,0.0,0.0,0.0,0.0,0.0,0.0,0.0,0.0,0.0,0.0,0.0,0.0,0.0,0.0,-0.9891,-1.0651,-1.1046,-1.1065,-1.1031,-1.1025,0.0,0.0,0.0,0.0,0.0,0.0,0.0,0.0,0.0,0.0,0.0,0.0,0.0,0.0,0.0,0.0,0.0,0.0,0.0,0.0,0.0,0.0,0.0,0.0,0.0,0.0,0.0,0.0,0.0,0.0,0.0,0.0,0.0,0.0,0.0,0.0,0.0,0.0,0.0,0.0,0.0,0.0,0.0,0.0,0.0,0.0,0.0,0.0,0.0,0.0,0.0,0.0,0.0,0.0,0.0,0.0,0.0,0.0,0.0,0.0,0.0,0.0,0.0,0.0,0.0,0.0,0.0,0.0,0.0,0.0,0.0,0.0,0.0,0.0,0.0,0.0,0.0,0.0,0.0,0.0,0.0,0.0,0.0,0.0,0.0,0.0,0.0,0.0,0.0,0.0,0.0,0.0,0.0,0.0,0.0,0.0,0.0,0.0,0.0,0.0,0.0,0.0,0.0,0.0,0.0,0.0,0.0,0.0,0.0,-0.9747,-1.0017,-1.0169,-1.0165,-1.0161,-1.0385,0.0,0.0,0.0,0.0,0.0,0.0,0.0,0.0,0.0,0.0,0.0,0.0,0.0,0.0,0.0,0.0,0.0,0.0,0.0,0.0,0.0,0.0,0.0,0.0,0.0,0.0,0.0,0.0,0.0,0.0,0.0,0.0,0.0,0.0,0.0,0.0,0.0,0.0,0.0,0.0,0.0,0.0,0.0,0.0,0.0,0.0,0.0,0.0,0.0,0.0,0.0,0.0,0.0,0.0,0.0,0.0,0.0,0.0,0.0,0.0,0.0,0.0,0.0,0.0,0.0,0.0,0.0,0.0,0.0,0.0,0.0,0.0,0.0,0.0,0.0,0.0,0.0,0.0,0.0,0.0,0.0,0.0,0.0,0.0,0.0,0.0,0.0,0.0,0.0,0.0,0.0,0.0,0.0,0.0,0.0,0.0,0.0,0.0,0.0,0.0,0.0,0.0,0.0,0.0,0.0,0.0,0.0,0.0,0.0,-0.9661,0.0,-0.968,-0.9673,-1.0192,-1.0714,0.0,0.0,0.0,0.0,0.0,0.0,0.0,0.0,0.0,0.0,0.0,0.0,0.0,0.0,0.0,0.0,0.0,0.0,0.0,0.0,0.0,0.0,0.0,0.0,0.0,0.0,0.0,0.0,0.0,0.0,0.0,0.0,0.0,0.0,0.0,0.0,0.0,0.0,0.0,0.0,0.0,0.0,0.0,0.0,0.0,0.0,0.0,0.0,0.0,0.0,0.0,0.0,0.0,0.0,0.0,0.0,0.0,0.0,0.0,0.0,0.0,0.0,0.0,0.0,0.0,0.0,0.0,0.0,0.0,0.0,0.0,0.0,0.0,0.0,0.0,0.0,0.0,0.0,0.0,0.0,0.0,0.0,0.0,0.0,0.0,0.0,0.0,0.0,0.0,0.0,0.0,0.0,0.0,0.0,0.0,0.0,0.0,0.0,0.0,0.0,0.0,0.0,0.0,0.0,0.0,0.0,0.0,0.0,-0.9553,-0.9615,-0.9654,-0.9706,-0.9655,-1.1137,-1.1968,0.0,0.0,0.0,0.0,0.0,0.0,0.0,0.0,0.0,0.0,0.0,0.0,0.0,0.0,0.0,0.0,0.0,0.0,0.0,0.0,0.0,0.0,0.0,0.0,0.0,0.0,0.0,0.0,0.0,0.0,0.0,0.0,0.0,0.0,0.0,0.0,0.0,0.0,0.0,0.0,0.0,0.0,0.0,0.0,0.0,0.0,0.0,0.0,0.0,0.0,0.0,0.0,0.0,0.0,0.0,0.0,0.0,0.0,0.0,0.0,0.0,0.0,0.0,0.0,0.0,0.0,0.0,0.0,0.0,0.0,0.0,0.0,0.0,0.0,0.0,0.0,0.0,0.0,0.0,0.0,0.0,0.0,0.0,0.0,0.0,0.0,0.0,0.0,0.0,0.0,0.0,0.0,0.0,0.0,0.0,0.0,0.0,0.0,0.0,0.0,0.0,0.0,0.0,0.0,0.0,0.0,0.0,0.0,0.0,-1.026,-1.0759,-1.1067,-1.1125,-1.1644,-1.2182,0.0,0.0,0.0,0.0,0.0,0.0,0.0,0.0,0.0,0.0,0.0,0.0,0.0,0.0,0.0,0.0,0.0,0.0,0.0,0.0,0.0,0.0,0.0,0.0,0.0,0.0,0.0,0.0,0.0,0.0,0.0,0.0,0.0,0.0,0.0,0.0,0.0,0.0,0.0,0.0,0.0,0.0,0.0,0.0,0.0,0.0,0.0,0.0,0.0,0.0,0.0,0.0,0.0,0.0,0.0,0.0,0.0,0.0,0.0,0.0,0.0,0.0,0.0,0.0,0.0,0.0,0.0,0.0,0.0,0.0,0.0,0.0,0.0,0.0,0.0,0.0,0.0,0.0,0.0,0.0,0.0,0.0,0.0,0.0,0.0,0.0,0.0,0.0,0.0,0.0,0.0,0.0,0.0,0.0,0.0,0.0,0.0,0.0,0.0,0.0,0.0,0.0,0.0,0.0,0.0,0.0,0.0,0.0,0.0,-1.2187,-1.2631,-1.2754,-1.2547,-1.2876,-1.299,-1.2889,0.0,0.0,0.0,0.0,0.0,0.0,0.0,0.0,0.0,0.0,0.0,0.0,0.0,0.0,0.0,0.0,0.0,0.0,0.0,0.0,0.0,0.0,0.0,0.0,0.0,0.0,0.0,0.0,0.0,0.0,0.0,0.0,0.0,0.0,0.0,0.0,0.0,0.0,0.0,0.0,0.0,0.0,0.0,0.0,0.0,0.0,0.0,0.0,0.0,0.0,0.0,0.0,0.0,0.0,0.0,0.0,0.0,0.0,0.0,0.0,0.0,0.0,0.0,0.0,0.0,0.0,0.0,0.0,0.0,0.0,0.0,0.0,0.0,0.0,0.0,0.0,0.0,0.0,0.0,0.0,0.0,0.0,0.0,0.0,0.0,0.0,0.0,0.0,0.0,0.0,0.0,0.0,0.0,0.0,0.0,0.0,0.0,0.0,0.0,0.0,0.0,0.0,0.0,0.0,0.0,0.0,0.0,0.0,-1.5212,-1.5151,-1.4779,-1.4053,-1.4698,-1.4367,0.0,0.0,0.0,0.0,0.0,0.0,0.0,0.0,0.0,0.0,0.0,0.0,0.0,0.0,0.0,0.0,0.0,0.0,0.0,0.0,0.0,0.0,0.0,0.0,0.0,0.0,0.0,0.0,0.0,0.0,0.0,0.0,0.0,0.0,0.0,0.0,0.0,0.0,0.0,0.0,0.0,0.0,0.0,0.0,0.0,0.0,0.0,0.0,0.0,0.0,0.0,0.0,0.0,0.0,0.0,0.0,0.0,0.0,0.0,0.0,0.0,0.0,0.0,0.0,0.0,0.0,0.0,0.0,0.0,0.0,0.0,0.0,0.0,0.0,0.0,0.0,0.0,0.0,0.0,0.0,0.0,0.0,0.0,0.0,0.0,0.0,0.0,0.0,0.0,0.0,0.0,0.0,0.0,0.0,0.0,0.0,0.0,0.0,0.0,0.0,0.0,0.0,0.0,0.0,0.0,0.0,0.0,0.0,0.0,-1.7776,-1.8664,-1.825,-1.6539,-1.6279,-1.5501,0.0,0.0,0.0,0.0,0.0,0.0,0.0,0.0,0.0,0.0,0.0,0.0,0.0,0.0,0.0,0.0,0.0,0.0,0.0,0.0,0.0,0.0,0.0,0.0,0.0,0.0,0.0,0.0,0.0,0.0,0.0,0.0,0.0,0.0,0.0,0.0,0.0,0.0,0.0,0.0,0.0,0.0,0.0,0.0,0.0,0.0,0.0,0.0,0.0,0.0,0.0,0.0,0.0,0.0,0.0,0.0,0.0,0.0,0.0,0.0,0.0,0.0,0.0,0.0,0.0,0.0,0.0,0.0,0.0,0.0,0.0,0.0,0.0,0.0,0.0,0.0,0.0,0.0,0.0,0.0,0.0,0.0,0.0,0.0,0.0,0.0,0.0,0.0,0.0,0.0,0.0,0.0,0.0,0.0,0.0,0.0,0.0,0.0,0.0,0.0,0.0,0.0,0.0,0.0,0.0,0.0,0.0,0.0,-1.6397,-1.8812,-2.0537,-2.0595,-1.8921,-1.7736,-1.6331,0.0,0.0,0.0,0.0,0.0,0.0,0.0,0.0,0.0,0.0,0.0,0.0,0.0,0.0,0.0,0.0,0.0,0.0,0.0,0.0,0.0,0.0,0.0,0.0,0.0,0.0,0.0,0.0,0.0,0.0,0.0,0.0,0.0,0.0,0.0,0.0,0.0,0.0,0.0,0.0,0.0,0.0,0.0,0.0,0.0,0.0,0.0,0.0,0.0,0.0,0.0,0.0,0.0,0.0,0.0,0.0,0.0,0.0,0.0,0.0,0.0,0.0,0.0,0.0,0.0,0.0,0.0,0.0,0.0,0.0,0.0,0.0,0.0,0.0,0.0,0.0,0.0,0.0,0.0,0.0,0.0,0.0,0.0,0.0,0.0,0.0,0.0,0.0,0.0,0.0,0.0,0.0,0.0,0.0,0.0,0.0,0.0,0.0,0.0,0.0,0.0,0.0,0.0,0.0,0.0,0.0,0.0,0.0,-1.739,-1.9075,-2.1357,-2.2082,-2.1054,-1.9108,-1.6971,0.0,0.0,0.0,0.0,0.0,0.0,0.0,0.0,0.0,0.0,0.0,0.0,0.0,0.0,0.0,0.0,0.0,0.0,0.0,0.0,0.0,0.0,0.0,0.0,0.0,0.0,0.0,0.0,0.0,0.0,0.0,0.0,0.0,0.0,0.0,0.0,0.0,0.0,0.0,0.0,0.0,0.0,0.0,0.0,0.0,0.0,0.0,0.0,0.0,0.0,0.0,0.0,0.0,0.0,0.0,0.0,0.0,0.0,0.0,0.0,0.0,0.0,0.0,0.0,0.0,0.0,0.0,0.0,0.0,0.0,0.0,0.0,0.0,0.0,0.0,0.0,0.0,0.0,0.0,0.0,0.0,0.0,0.0,0.0,0.0,0.0,0.0,0.0,0.0,0.0,0.0,0.0,0.0,0.0,0.0,0.0,0.0,0.0,0.0,0.0,0.0,0.0,0.0,0.0,0.0,0.0,0.0,0.0,-1.8262,-2.0865,-2.2173,-2.2614,-2.2152,-2.0067,-1.7711,0.0,0.0,0.0,0.0,0.0,0.0,0.0,0.0,0.0,0.0,0.0,0.0,0.0,0.0,0.0,0.0,0.0,0.0,0.0,0.0,0.0,0.0,0.0,0.0,0.0,0.0,0.0,0.0,0.0,0.0,0.0,0.0,0.0,0.0,0.0,0.0,0.0,0.0,0.0,0.0,0.0,0.0,0.0,0.0,0.0,0.0,0.0,0.0,-1.0497,0.0,0.0,0.0,0.0,0.0,0.0,0.0,0.0,0.0,0.0,0.0,0.0,0.0,0.0,0.0,0.0,0.0,0.0,0.0,0.0,0.0,0.0,0.0,0.0,0.0,0.0,0.0,0.0,0.0,0.0,0.0,0.0,0.0,0.0,0.0,0.0,0.0,0.0,0.0,0.0,0.0,0.0,0.0,0.0,0.0,0.0,0.0,0.0,0.0,0.0,0.0,0.0,0.0,0.0,0.0,0.0,0.0,0.0,0.0,-1.8191,-2.0485,-2.1623,-2.2082,-2.1802,-2.001,-1.7854,0.0,0.0,0.0,0.0,0.0,0.0,0.0,0.0,0.0,0.0,0.0,0.0,0.0,0.0,0.0,0.0,0.0,0.0,0.0,0.0,0.0,0.0,0.0,0.0,0.0,0.0,0.0,0.0,0.0,0.0,0.0,0.0,0.0,0.0,0.0,0.0,0.0,0.0,0.0,0.0,0.0,0.0,0.0,0.0,0.0,0.0,0.0,0.0,0.0,0.0,0.0,0.0,0.0,0.0,0.0,0.0,0.0,0.0,0.0,0.0,0.0,0.0,0.0,0.0,0.0,0.0,0.0,0.0,0.0,0.0,0.0,0.0,0.0,0.0,0.0,0.0,0.0,0.0,0.0,0.0,0.0,0.0,0.0,0.0,0.0,0.0,0.0,0.0,0.0,0.0,0.0,0.0,0.0,0.0,0.0,0.0,0.0,0.0,0.0,0.0,0.0,0.0,0.0,0.0,0.0,0.0,0.0,-1.5832,-1.7794,-1.9484,-2.0663,-2.1164,-2.087,-1.9449,-1.7644,-1.55,0.0,0.0,0.0,0.0,0.0,0.0,0.0,0.0,0.0,0.0,0.0,0.0,0.0,0.0,0.0,0.0,0.0,0.0,0.0,0.0,0.0,0.0,0.0,0.0,0.0,0.0,0.0,0.0,0.0,0.0,0.0,0.0,0.0,0.0,0.0,0.0,0.0,0.0,-0.914,-0.9763,0.0,0.0,0.0,0.0,0.0,0.0,0.0,0.0,-0.9886,0.0,0.0,0.0,0.0,0.0,0.0,0.0,0.0,0.0,0.0,0.0,0.0,0.0,0.0,0.0,0.0,0.0,0.0,0.0,0.0,0.0,0.0,0.0,0.0,0.0,0.0,0.0,0.0,0.0,0.0,0.0,0.0,0.0,0.0,0.0,0.0,0.0,0.0,0.0,0.0,0.0,0.0,0.0,0.0,0.0,0.0,0.0,0.0,0.0,0.0,0.0,0.0,0.0,0.0,0.0,0.0,-1.4153,-1.5924,-1.7754,-1.9617,-2.0407,-2.0512,-1.983,-1.8727,-1.7123,-1.5121,0.0,0.0,0.0,0.0,0.0,0.0,0.0,0.0,0.0,0.0,0.0,0.0,0.0,0.0,0.0,0.0,0.0,0.0,0.0,0.0,0.0,0.0,0.0,0.0,0.0,0.0,0.0,0.0,0.0,0.0,0.0,0.0,0.0,0.0,0.0,0.0,0.0,0.0,0.0,-0.9579,-1.004,0.0,0.0,0.0,0.0,0.0,0.0,0.0,0.0,-1.0473,0.0,0.0,0.0,0.0,0.0,0.0,0.0,0.0,0.0,0.0,0.0,0.0,0.0,0.0,0.0,0.0,0.0,0.0,0.0,0.0,0.0,0.0,0.0,0.0,0.0,0.0,0.0,0.0,0.0,0.0,0.0,0.0,0.0,0.0,0.0,0.0,0.0,0.0,0.0,0.0,0.0,0.0,0.0,0.0,0.0,0.0,0.0,0.0,0.0,0.0,0.0,0.0,0.0,0.0,0.0,-1.3778,-1.5404,-1.7076,-1.8751,-1.9123,-1.9229,-1.9112,-1.7795,-1.6349,0.0,0.0,0.0,0.0,0.0,0.0,0.0,0.0,0.0,0.0,0.0,0.0,0.0,0.0,0.0,0.0,0.0,0.0,0.0,0.0,0.0,0.0,0.0,0.0,0.0,0.0,0.0,0.0,0.0,0.0,0.0,0.0,0.0,0.0,0.0,0.0,0.0,0.0,0.0,0.0,-0.9744,-1.0201,-1.0909,0.0,0.0,0.0,0.0,0.0,0.0,-1.0281,-1.0333,0.0,0.0,0.0,0.0,0.0,0.0,0.0,0.0,0.0,0.0,0.0,0.0,0.0,0.0,0.0,0.0,0.0,0.0,0.0,0.0,0.0,0.0,0.0,0.0,0.0,0.0,0.0,0.0,0.0,0.0,0.0,0.0,0.0,0.0,0.0,0.0,0.0,0.0,0.0,0.0,0.0,0.0,0.0,0.0,0.0,0.0,0.0,0.0,0.0,0.0,0.0,0.0,0.0,0.0,0.0,-1.3413,-1.4863,-1.6289,-1.7556,-1.7643,-1.7793,-1.8114,-1.6663,-1.5486,0.0,0.0,0.0,0.0,0.0,0.0,0.0,0.0,0.0,0.0,0.0,0.0,0.0,0.0,0.0,0.0,0.0,0.0,0.0,0.0,0.0,0.0,0.0,0.0,0.0,0.0,0.0,0.0,0.0,0.0,0.0,0.0,0.0,0.0,0.0,0.0,0.0,0.0,0.0,0.0,0.0,-1.0472,-1.1161,-1.0587,0.0,0.0,0.0,0.0,-1.021,-1.0299,0.0,0.0,0.0,0.0,0.0,0.0,0.0,0.0,0.0,0.0,0.0,0.0,0.0,0.0,0.0,0.0,0.0,0.0,0.0,0.0,0.0,0.0,0.0,0.0,0.0,0.0,0.0,0.0,0.0,0.0,0.0,0.0,0.0,0.0,0.0,0.0,0.0,0.0,0.0,0.0,0.0,0.0,0.0,0.0,0.0,0.0,0.0,0.0,0.0,0.0,0.0,0.0,0.0,0.0,0.0,0.0,-1.3748,-1.4878,-1.5751,-1.6357,-1.6406,-1.6372,-1.6326,-1.5327,-1.4676,0.0,0.0,0.0,0.0,0.0,0.0,0.0,0.0,0.0,0.0,0.0,0.0,0.0,0.0,0.0,0.0,0.0,0.0,0.0,0.0,0.0,0.0,0.0,0.0,0.0,0.0,0.0,0.0,0.0,0.0,0.0,0.0,0.0,0.0,0.0,0.0,0.0,0.0,0.0,0.0,0.0,-1.0603,-1.0759,-1.0539,-1.0303,0.0,0.0,-1.1132,-1.0994,-1.1258,0.0,0.0,0.0,0.0,0.0,0.0,0.0,0.0,0.0,0.0,0.0,0.0,0.0,0.0,0.0,0.0,0.0,0.0,0.0,0.0,0.0,0.0,0.0,0.0,0.0,0.0,0.0,0.0,0.0,0.0,0.0,0.0,0.0,0.0,0.0,0.0,0.0,0.0,0.0,0.0,0.0,0.0,0.0,0.0,0.0,0.0,0.0,0.0,0.0,0.0,0.0,0.0,0.0,0.0,0.0,-1.3183,-1.3711,-1.5037,-1.5834,-1.6088,-1.6394,-1.6371,-1.6022,-1.4967,-1.4274,0.0,0.0,0.0,0.0,0.0,0.0,0.0,0.0,0.0,0.0,0.0,0.0,0.0,0.0,0.0,0.0,0.0,0.0,0.0,0.0,0.0,0.0,0.0,0.0,0.0,0.0,0.0,0.0,0.0,0.0,0.0,0.0,0.0,0.0,0.0,0.0,0.0,0.0,0.0,0.0,0.0,0.0,-1.128,-1.0837,0.0,0.0,0.0,-1.1201,-1.105,0.0,0.0,0.0,0.0,0.0,0.0,0.0,0.0,0.0,0.0,0.0,0.0,0.0,0.0,0.0,0.0,0.0,0.0,0.0,0.0,0.0,0.0,0.0,0.0,0.0,0.0,0.0,0.0,0.0,0.0,0.0,0.0,0.0,0.0,0.0,0.0,0.0,0.0,0.0,0.0,0.0,0.0,0.0,0.0,0.0,0.0,0.0,0.0,0.0,0.0,0.0,0.0,0.0,0.0,0.0,0.0,0.0,-1.3805,-1.5338,-1.6151,-1.6163,-1.6551,-1.6563,-1.6151,-1.5057,0.0,0.0,0.0,0.0,0.0,0.0,0.0,0.0,0.0,0.0,0.0,0.0,0.0,0.0,0.0,0.0,0.0,0.0,0.0,0.0,0.0,0.0,0.0,0.0,0.0,0.0,0.0,-0.8742,0.0,0.0,0.0,0.0,0.0,0.0,0.0,0.0,0.0,0.0,0.0,0.0,0.0,0.0,-1.0847,-1.1608,-1.1244,-1.11,0.0,0.0,-1.1565,-1.1496,-1.2121,-1.2431,0.0,0.0,0.0,0.0,0.0,0.0,0.0,0.0,0.0,0.0,0.0,0.0,0.0,0.0,0.0,0.0,0.0,0.0,0.0,0.0,0.0,0.0,0.0,0.0,0.0,0.0,0.0,0.0,0.0,0.0,0.0,0.0,0.0,0.0,0.0,0.0,0.0,0.0,0.0,0.0,0.0,0.0,0.0,0.0,0.0,0.0,0.0,0.0,0.0,0.0,0.0,0.0,0.0,0.0,0.0,-1.4289,-1.5764,-1.6558,-1.6547,-1.6606,-1.6606,-1.6535,-1.5504,-1.471,0.0,0.0,0.0,0.0,0.0,0.0,0.0,0.0,0.0,0.0,0.0,0.0,0.0,0.0,0.0,0.0,0.0,0.0,0.0,0.0,0.0,0.0,0.0,0.0,0.0,0.0,0.0,0.0,0.0,0.0,0.0,0.0,0.0,0.0,0.0,0.0,0.0,0.0,0.0,0.0,0.0,-1.1692,-1.1236,-1.1794,-1.2268,0.0,0.0,-1.2937,-1.2782,-1.3173,-1.3227,-1.2401,0.0,0.0,0.0,0.0,0.0,0.0,0.0,0.0,0.0,0.0,0.0,0.0,0.0,0.0,0.0,0.0,0.0,0.0,0.0,0.0,0.0,0.0,0.0,0.0,0.0,0.0,0.0,0.0,0.0,0.0,0.0,0.0,0.0,0.0,0.0,0.0,0.0,0.0,0.0,0.0,0.0,0.0,0.0,0.0,0.0,0.0,0.0,0.0,0.0,0.0,0.0,0.0,0.0,-1.4309,-1.4333,-1.6137,-1.6775,-1.6175,-1.6751,-1.6775,-1.6104,-1.5396,-1.474,0.0,0.0,0.0,0.0,0.0,0.0,0.0,0.0,0.0,0.0,0.0,0.0,0.0,0.0,0.0,0.0,0.0,0.0,0.0,0.0,0.0,0.0,0.0,0.0,0.0,0.0,0.0,0.0,-1.0601,-1.0849,-1.0375,0.0,0.0,0.0,0.0,0.0,0.0,0.0,0.0,0.0,0.0,-1.1662,-1.2247,-1.2341,0.0,0.0,-1.2846,-1.2868,-1.2576,-1.3144,-1.3287,-1.2453,-1.2297,0.0,0.0,0.0,0.0,0.0,0.0,0.0,0.0,0.0,0.0,0.0,0.0,0.0,0.0,0.0,0.0,0.0,0.0,0.0,0.0,0.0,0.0,0.0,0.0,0.0,0.0,0.0,0.0,0.0,0.0,0.0,0.0,0.0,0.0,0.0,0.0,0.0,0.0,0.0,0.0,0.0,0.0,0.0,0.0,0.0,0.0,0.0,0.0,0.0,0.0,0.0,0.0,-1.4132,-1.4321,-1.6185,-1.6799,-1.6044,-1.6775,-1.6799,-1.6044,-1.5516,-1.4905,0.0,0.0,0.0,0.0,0.0,0.0,0.0,0.0,0.0,0.0,0.0,0.0,0.0,0.0,0.0,0.0,0.0,0.0,0.0,0.0,0.0,0.0,0.0,0.0,0.0,0.0,0.0,0.0,-1.0997,-1.0919,-1.0271,0.0,0.0,0.0,0.0,0.0,0.0,0.0,0.0,0.0,0.0,-1.1984,-1.2748,-1.2651,-1.2565,-1.2853,-1.2905,-1.2843,-1.2722,-1.3196,-1.3351,-1.2608,0.0,0.0,0.0,0.0,0.0,0.0,0.0,0.0,0.0,0.0,0.0,0.0,0.0,0.0,0.0,0.0,0.0,0.0,0.0,0.0,0.0,0.0,0.0,0.0,0.0,0.0,0.0,0.0,0.0,0.0,0.0,0.0,0.0,0.0,0.0,0.0,0.0,0.0,0.0,0.0,0.0,0.0,0.0,0.0,0.0,0.0,0.0,0.0,0.0,0.0,0.0,0.0,0.0,-1.3782,-1.4289,-1.5848,-1.6607,-1.6559,-1.6607,-1.6619,-1.6547,-1.6044,-1.532,-1.435,0.0,0.0,0.0,0.0,0.0,0.0,0.0,0.0,0.0,0.0,0.0,0.0,0.0,0.0,0.0,0.0,0.0,0.0,0.0,0.0,0.0,0.0,0.0,0.0,0.0,0.0,-1.1084,-1.0939,-1.0733,0.0,0.0,0.0,0.0,0.0,0.0,0.0,0.0,0.0,0.0,-1.2236,-1.2853,-1.2402,-1.2637,-1.2874,-1.2905,-1.2905,-1.3072,-1.3442,-1.3579,-1.3431,0.0,0.0,0.0,0.0,0.0,0.0,0.0,0.0,0.0,0.0,0.0,0.0,0.0,0.0,0.0,0.0,0.0,0.0,0.0,0.0,0.0,0.0,0.0,0.0,0.0,0.0,0.0,-1.3752,-1.3416,0.0,0.0,0.0,0.0,0.0,0.0,0.0,0.0,0.0,0.0,0.0,-1.5432,-1.4748,0.0,0.0,0.0,0.0,0.0,0.0,0.0,0.0,0.0,0.0,0.0,0.0,-1.3758,-1.4345,-1.5824,-1.6427,-1.608,-1.6427,-1.6439,-1.609,-1.59,-1.5443,-1.4728,0.0,0.0,0.0,0.0,0.0,0.0,0.0,0.0,0.0,0.0,0.0,0.0,0.0,0.0,0.0,0.0,0.0,0.0,0.0,0.0,0.0,0.0,0.0,0.0,0.0,-1.1921,0.0,0.0,0.0,0.0,0.0,0.0,0.0,0.0,0.0,0.0,0.0,-1.1666,-1.1942,-1.2058,-1.2173,-1.2287,-1.2637,-1.2905,0.0,0.0,0.0,0.0,0.0,0.0,0.0,0.0,0.0,0.0,0.0,0.0,0.0,0.0,-1.3424,-1.2824,-1.2981,-1.3271,-1.3558,0.0,0.0,0.0,0.0,0.0,0.0,0.0,0.0,0.0,0.0,0.0,0.0,0.0,0.0,0.0,0.0,-1.4904,0.0,0.0,0.0,0.0,0.0,0.0,0.0,0.0,-1.6561,-1.698,-1.7077,-1.6737,-1.6527,0.0,-1.5575,-1.4683,0.0,0.0,0.0,0.0,0.0,0.0,0.0,0.0,-1.3939,-1.4325,-1.5644,-1.614,-1.5828,-1.6151,-1.6163,-1.5826,-1.5659,-1.5394,-1.4987,-1.4406,-1.3801,0.0,0.0,0.0,0.0,0.0,0.0,0.0,0.0,0.0,0.0,0.0,0.0,0.0,0.0,0.0,0.0,0.0,0.0,0.0,0.0,0.0,0.0,0.0,-1.2286,0.0,0.0,0.0,0.0,0.0,0.0,0.0,0.0,0.0,-1.2374,-1.2086,-1.2017,-1.2341,-1.2204,-1.2068,-1.2048,0.0,0.0,0.0,0.0,0.0,0.0,0.0,-1.3755,-1.3421,-1.3776,-1.391,-1.3431,-1.2977,-1.2844,-1.33,0.0,0.0,-1.3462,-1.3786,-1.419,-1.449,-1.4204,-1.3971,-1.4302,-1.3993,-1.3837,0.0,0.0,0.0,0.0,0.0,0.0,0.0,0.0,-1.6807,-1.6448,0.0,-1.6317,0.0,0.0,0.0,0.0,0.0,0.0,0.0,0.0,-1.8505,-1.8744,-1.8343,-1.8511,-1.8093,-1.7111,-1.6806,-1.6391,-1.5874,-1.4907,0.0,0.0,0.0,0.0,0.0,0.0,-1.4277,-1.4349,-1.5298,-1.5814,-1.5814,-1.5826,-1.5814,-1.5792,-1.5379,-1.5142,-1.5108,-1.4658,-1.4339,-1.4294,-1.3412,0.0,0.0,0.0,0.0,0.0,0.0,0.0,0.0,0.0,0.0,0.0,0.0,0.0,0.0,0.0,0.0,0.0,0.0,0.0,0.0,-1.28,0.0,0.0,0.0,0.0,0.0,0.0,0.0,0.0,0.0,0.0,-1.2775,-1.2509,-1.2349,-1.2359,0.0,0.0,0.0,0.0,-1.3455,-1.2998,-1.3693,-1.4386,-1.4831,-1.4552,-1.4273,-1.4283,0.0,0.0,-1.3039,-1.2627,-1.2535,-1.2884,-1.339,-1.3783,-1.4283,-1.4666,-1.4966,-1.5007,-1.4888,-1.4819,-1.4824,-1.4714,-1.4756,-2.0635,0.0,0.0,0.0,0.0,-1.7568,-1.7961,-1.8445,-1.8376,-1.8026,-1.7486,-1.726,0.0,0.0,0.0,0.0,0.0,0.0,-1.7674,-1.8568,-1.9271,-1.9911,-2.0526,-1.9756,-1.9339,-1.9247,-1.8336,-1.7968,-1.8049,-1.74,-1.6317,-1.4794,0.0,0.0,0.0,0.0,-1.4076,-1.4782,-1.5456,-1.5814,-1.5814,-1.5814,-1.5814,-1.5814,-1.5647,-1.558,-1.5603,-1.546,-1.5178,-1.4823,-1.461,0.0,0.0,0.0,0.0,0.0,0.0,0.0,0.0,0.0,0.0,0.0,0.0,0.0,0.0,0.0,0.0,0.0,0.0,0.0,-1.2308,-1.2791,-1.2781,0.0,0.0,0.0,0.0,0.0,0.0,0.0,0.0,0.0,-1.4412,-1.3726,-1.3227,0.0,0.0,-1.3297,-1.3062,-1.3349,-1.3535,-1.3421,0.0,0.0,0.0,-1.3876,-1.3907,-1.4227,-1.4459,-1.4449,-1.3983,-1.3807,-1.3765,-1.389,-1.4283,-1.4738,-1.5173,-1.5111,-1.5132,-1.538,-1.5209,-1.5068,-1.5347,-1.5402,-1.5519,-2.4129,-2.1264,-1.9832,-1.9461,-1.9771,-1.9902,-2.0242,-2.068,-2.0639,-2.0199,-1.951,-1.9409,-1.8781,-1.7804,-1.7792,0.0,0.0,0.0,-1.9271,-2.0324,-2.0851,-2.1352,-2.1697,-2.1381,-2.0943,-2.0388,-1.9645,-1.9284,-1.9287,-1.8554,-1.7543,-1.6283,0.0,0.0,-1.4886,-1.5004,-1.5139,-1.5336,-1.584,-1.6018,-1.5814,-1.5814,-1.5824,-1.5869,-1.5891,-1.5891,-1.5947,-1.6013,-1.5845,-1.5432,-1.5383,-1.4902,0.0,0.0,0.0,0.0,0.0,0.0,0.0,0.0,0.0,0.0,0.0,-1.3405,0.0,0.0,0.0,0.0,-1.3405,-1.3071,-1.2914,-1.3184,0.0,0.0,0.0,0.0,0.0,0.0,0.0,-1.4003,-1.4378,-1.4665,-1.482,-1.4613,-1.4231,-1.3659,-1.3431,-1.3256,-1.3103,0.0,-1.3865,-1.389,-1.3962,-1.4093,-1.4386,-1.4438,-1.4417,-1.4314,-1.4697,-1.4821,-1.4397,-1.4449,-1.4573,-1.4624,-1.4966,-1.5359,-1.5628,-1.5587,-1.5645,-1.5898,-1.5742,-1.5711,-1.6136,-1.6218,-1.6405,-2.7338,-2.6485,-2.4481,-2.338,-2.3036,-2.2832,-2.2988,-2.3346,-2.3271,-2.2681,-2.1807,-2.2184,-2.1518,-2.0075,-1.9998,0.0,-2.01,-2.0603,-2.1368,-2.2431,-2.2932,-2.2847,-2.2317,-2.3096,-2.2555,-2.0905,-2.0672,-2.0326,-1.9799,-1.8773,-1.8265,-1.8253,-1.776,-1.6979,-1.6042,-1.6847,-1.6871,-1.5936,-1.6427,-1.6439,-1.5958,-1.5912,-1.5955,-1.6061,-1.6061,-1.6093,-1.6178,-1.6297,-1.6287,-1.6059,-1.5855,-1.5678,-1.5529,0.0,0.0,0.0,0.0,0.0,0.0,0.0,0.0,0.0,0.0,0.0,0.0,0.0,0.0,0.0,-1.3693,0.0,-1.3779,-1.3797,0.0,0.0,0.0,-1.4397,-1.4304,-1.4538,-1.4619,-1.4236,0.0,0.0,-1.4496,0.0,-1.5225,-1.3917,-1.3421,-1.3051,-1.267,-1.3693,-1.4407,-1.4449,-1.509,-1.5608,-1.5525,-1.5566,-1.5324,-1.4562,-1.4749,-1.4904,-1.4531,-1.4759,-1.5018,-1.5049,-1.5401,-1.5701,-1.5732,-1.6102,-1.6423,-1.6405,-1.6384,-1.6477,-1.6769,-1.6944,-1.7244,-3.0683,-2.8986,-2.8902,-2.7398,-2.5115,-2.5103,-2.5322,-2.5619,-2.4782,-2.4268,-2.3991,-2.3233,-2.2681,-2.2293,-2.1866,-2.1958,-2.2305,-2.2046,-2.2523,-2.3577,-2.374,-2.3697,-2.3541,-2.3304,-2.2703,-2.1774,-2.0765,-2.0245,-2.0058,-1.9226,-1.8871,-1.895,-1.8738,-1.8085,-1.7051,-1.6871,-1.6871,-1.7003,-1.7135,-1.7135,-1.7051,-1.7015,-1.6881,-1.6621,-1.6596,-1.6436,-1.6091,-1.6188,-1.635,-1.6595,-1.6757,-1.6794,-1.6749,-1.5836,0.0,0.0,0.0,0.0,0.0,0.0,0.0,0.0,0.0,-1.4965,-1.5428,0.0,-1.4425,0.0,-1.462,-1.408,-1.3681,-1.3644,0.0,0.0,-1.3738,-1.3921,-1.4113,-1.4296,-1.4584,-1.5063,-1.5324,-1.5591,-1.5884,-1.5773,-1.5594,-1.5235,-1.5401,-1.5515,-1.5459,-1.5328,-1.5359,-1.5339,-1.5245,-1.5287,-1.5628,-1.568,-1.5494,-1.4925,-1.5225,-1.5359,-1.4914,-1.5214,-1.5552,-1.5552,-1.5597,-1.5842,-1.6174,-1.634,-1.6498,-1.6748,-1.6612,-1.6405,-1.6529,-1.7048,-1.7606,-3.192,-3.0758,-3.1433,-3.0546,-2.8628,-2.7403,-2.7009,-2.7165,-2.654,-2.6013,-2.5473,-2.4336,-2.386,-2.3835,-2.3565,-2.3572,-2.3822,-2.3534,-2.3766,-2.4368,-2.4594,-2.4562,-2.4273,-2.4154,-2.3766,-2.3047,-2.2122,-2.1599,-2.1492,-2.0386,-1.9846,-1.9818,-1.9266,-1.8698,-1.8133,-1.782,-1.7712,-1.776,-1.7532,-1.7387,-1.7387,-1.7387,-1.7195,-1.6803,-1.6779,-1.657,-1.6113,-1.6231,-1.6379,-1.6516,-1.6752,-1.6863,-1.6841,-1.6332,-1.617,0.0,0.0,0.0,0.0,0.0,0.0,0.0,0.0,0.0,0.0,0.0,-1.5323,0.0,-1.5365,-1.485,-1.4521,-1.4196,-1.4007,-1.4007,-1.419,-1.4353,-1.4492,-1.4746,-1.5097,-1.5545,-1.5739,-1.5953,-1.6343,-1.6195,-1.6029,-1.6001,-1.6247,-1.6229,-1.5825,-1.5535,-1.5442,-1.5639,-1.5473,-1.5463,-1.5918,-1.5842,-1.5597,-1.5401,-1.5691,-1.5846,-1.5411,-1.568,-1.6029,-1.6001,-1.6029,-1.6091,-1.6361,-1.6402,-1.6467,-1.6622,-1.656,-1.6651,-1.7169,-1.7522,-1.7781,-3.2326,-3.2001,-3.2783,-3.2791,-3.2131,-2.9655,-2.8554,-2.8445,-2.8369,-2.7702,-2.6537,-2.5658,-2.5183,-2.5034,-2.5055,-2.5023,-2.5021,-2.4926,-2.4958,-2.5059,-2.5498,-2.5369,-2.4763,-2.5211,-2.507,-2.4341,-2.3818,-2.3452,-2.3257,-2.1829,-2.099,-2.066,-1.9755,-1.9211,-1.9052,-1.9066,-1.8811,-1.8313,-1.7857,-1.7616,-1.7616,-1.7531,-1.7303,-1.6925,-1.6827,-1.6593,-1.6203,-1.6318,-1.6365,-1.632,-1.6504,-1.6654,-1.6713,-1.6679,-1.6911,0.0,-1.7423,0.0,0.0,0.0,0.0,0.0,0.0,0.0,0.0,-1.6612,-1.6279,-1.6303,-1.5905,-1.565,-1.5638,-1.5007,-1.4687,-1.4747,-1.5099,-1.5303,-1.5173,-1.5541,-1.5878,-1.5994,-1.6074,-1.622,-1.6448,-1.6456,-1.6485,-1.6392,-1.6381,-1.6153,-1.5401,-1.5266,-1.5421,-1.5732,-1.5773,-1.5918,-1.6218,-1.607,-1.5794,-1.5853,-1.6084,-1.6257,-1.5846,-1.6122,-1.6381,-1.6381,-1.6371,-1.6392,-1.6402,-1.6402,-1.6405,-1.6537,-1.6456,-1.6744,-1.7646,-1.7833,-1.8009,-3.4022,-3.2749,-3.3402,-3.3143,-3.2258,-3.1613,-3.0973,-3.037,-2.9941,-2.8751,-2.722,-2.7611,-2.7203,-2.6202,-2.6297,-2.6282,-2.6147,-2.5661,-2.5732,-2.6185,-2.6285,-2.6,-2.5452,-2.5515,-2.5269,-2.4678,-2.4072,-2.3779,-2.3823,-2.2824,-2.195,-2.1181,-2.0846,-2.0263,-1.9352,0.0,0.0,0.0,-1.8746,-1.8698,-1.8674,-1.8277,-1.7858,-1.746,-1.7034,0.0,-1.6069,-1.6284,-1.6538,-1.685,-1.71,0.0,0.0,0.0,0.0,0.0,0.0,0.0,0.0,0.0,0.0,0.0,-1.7814,-1.7681,-1.7638,-1.7386,-1.6955,-1.6291,-1.6081,-1.5905,-1.5704,-1.5546,-1.5629,-1.6017,-1.6113,-1.6097,-1.5916,-1.6312,-1.6616,-1.6645,-1.6971,-1.7114,-1.6915,-1.6882,-1.6788,-1.6456,-1.6402,-1.634,-1.6146,-1.6112,-1.6136,-1.6267,-1.6236,-1.6288,-1.6381,-1.6319,-1.6226,-1.6299,-1.633,-1.6361,-1.626,-1.628,-1.6402,-1.6402,-1.6402,-1.6402,-1.6402,-1.6402,-1.6487,-1.681,-1.6622,-1.6485,-1.6755,-1.7295,-1.775,-3.4192,0.0,-3.4104,-3.4138,0.0,-3.3437,-3.2861,-3.1997,-3.1365,-3.0391,-2.9285,-2.908,-2.8605,-2.7957,-2.7367,-2.7229,-2.7425,-2.651,-2.6401,-2.6973,-2.6645,-2.6336,-2.6059,-2.6059,-2.5921,-2.5624,-2.5302,-2.5111,-2.5053,-2.4101,-2.3232,-2.2379,-2.1765,-2.1071,-2.0268,-2.0232,-1.988,-1.921,-1.9172,-1.9198,-1.9186,-1.8917,-1.8579,-1.8105,0.0,0.0,0.0,0.0,0.0,0.0,0.0,0.0,0.0,0.0,0.0,-1.892,-1.8205,-1.8105,-1.8907,-1.8731,-1.8657,-1.8858,-1.9171,-1.892,-1.7994,-1.8087,-1.8007,-1.7424,-1.7081,-1.6922,-1.6911,-1.6567,-1.6435,-1.6647,-1.6678,-1.6678,-1.6598,-1.683,-1.7063,-1.7155,-1.7359,-1.7441,-1.7348,-1.7358,-1.7172,-1.6819,-1.6922,-1.6953,-1.6736,-1.6508,-1.6402,-1.6402,-1.6402,-1.6402,-1.6402,-1.6402,-1.6402,-1.6402,-1.6402,-1.6402,-1.6402,-1.6402,-1.6402,-1.6402,-1.6402,-1.6402,-1.6402,-1.6402,-1.6456,-1.6632,-1.6539,-1.6402,-1.6423,-1.6912,-1.744,-3.4317,-3.3801,-3.4765,-3.5049,-3.4835,-3.4683,-3.4182,-3.3367,0.0,0.0,0.0,-3.028,-2.9726,-2.942,-2.8365,-2.8084,-2.8395,-2.7351,-2.7162,-2.7637,-2.6994,-2.6692,-2.6645,-2.6555,-2.6487,-2.6487,-2.6487,-2.6443,-2.6233,-2.5369,-2.4449,-2.3603,-2.2719,-2.1914,-2.123,-2.1181,-2.0696,-1.9805,-1.9703,-1.9689,-1.9689,-1.9605,-1.931,-1.8744,-1.8658,-1.8412,-1.797,-1.809,-1.8199,-1.8299,-1.8408,-1.8543,-1.8631,-1.8643,-1.8857,-1.9384,-1.9447,-1.9648,-2.0075,-2.01,-2.01,-2.0112,-2.0566,-2.0227,-1.8702,-1.909,-1.9253,-1.9005,-1.8454,-1.818,-1.8269,-1.7668,-1.7211,-1.7128,-1.7128,-1.7128,-1.7128,-1.7333,-1.7489,-1.7625,-1.7748,-1.7738,-1.7833,-1.7812,-1.7647,-1.7296,-1.742,-1.7585,-1.7182,-1.6798,-1.6527,-1.6433,-1.6402,-1.6402,-1.6402,-1.6402,-1.6402,-1.6402,-1.6402,-1.6402,-1.6402,-1.6402,-1.6402,-1.6402,-1.6402,-1.6402,-1.6402,-1.6402,-1.6402,-1.6402,-1.6402,-1.6402,-1.6433,-1.6663,-1.7027,-3.6026,-3.575,-3.5171,-3.4883,-3.4731,-3.4515,-3.438,-3.4104,-3.2851,-3.1889,-3.1299,-3.1249,-3.057,-2.9487,-2.9352,-2.8998,-2.8492,-2.8298,-2.8266,0.0,-2.767,-2.7351,-2.733,-2.6769,-2.6487,-2.6487,-2.6487,-2.6499,-2.644,-2.6289,-2.5485,-2.4092,-2.3766,-2.2952,-2.1562,-2.1437,-2.135,-2.1212,-2.0974,-2.0862,-2.0862,-2.0409,-1.9916,-1.9385,-1.8943,-1.8647,-1.8598,-1.8648,-1.8921,-1.9432,-1.9521,-1.9811,-2.0302,-2.0327,-2.0591,-2.1079,-2.1142,-2.1179,-2.123,-2.127,-2.1255,-2.1242,-2.133,-2.1265,-2.1044,-2.0915,-2.0725,-2.0349,-1.9889,-1.9417,-1.8764,-1.8425,-1.8131,-1.7698,-1.7626,-1.7606,-1.7636,-1.7828,-1.8064,-1.8288,-1.8477,-1.8486,-1.8393,-1.832,-1.8123,-1.773,-1.7709,-1.7699,-1.7575,-1.7213,-1.6808,-1.6506,-1.6402,-1.6402,-1.6402,-1.6402,-1.6402,-1.6402,-1.6402,-1.6402,-1.6402,-1.6402,-1.6402,-1.6402,-1.6402,-1.6402,-1.6402,-1.6402,-1.6402,-1.6402,-1.6402,-1.6402,-1.6402,-1.6467,-1.6643,-3.663,-3.6078,-3.5765,-3.5465,-3.5132,-3.4627,-3.438,-3.4351,-3.3729,-3.3294,-3.2913,-3.2324,-3.1699,-3.1067,-3.0411,-3.0101,-3.0101,-2.9728,-2.9748,-3.0071,-2.9396,-2.8671,-2.8001,-2.7648,-2.7165,-2.6546,-2.6487,-2.6487,-2.6487,-2.6487,-2.5946,-2.4895,-2.4594,-2.3904,-2.2924,-2.2849,-2.2686,-2.2355,-2.1665,-2.1309,-2.1309,-2.1063,-2.0827,-2.0603,-2.0343,-2.0218,-2.0218,-2.0245,-2.0384,-2.0646,-2.07,-2.084,-2.1119,-2.1131,-2.1245,-2.1468,-2.1481,-2.1481,-2.1481,-2.1481,-2.1619,-2.1907,-2.1933,-2.2071,-2.233,-2.1465,-2.0773,-2.05,-2.0339,-2.0197,-1.9989,-1.9503,-1.9104,-1.885,-1.8518,-1.8303,-1.8313,-1.8489,-1.8809,-1.9221,-1.9095,-1.9048,-1.9296,-1.9005,-1.8611,-1.8185,-1.8081,-1.8092,-1.8081,-1.7905,-1.7482,-1.6891,-1.655,-1.6413,-1.6413,-1.6402,-1.6402,-1.6402,-1.6402,-1.6402,-1.6402,-1.6402,-1.6402,-1.6402,-1.6402,-1.6402,-1.6402,-1.6402,-1.6402,-1.6402,-1.6402,-1.6402,-1.6402,-1.6402,-1.6456,-3.7128,-3.6431,-3.631,-3.5991,-3.5507,-3.4889,-3.4545,-3.4414,-3.438,-3.438,-3.4254,-3.3177,-3.273,-3.2593,-3.1479,-3.1257,-3.1613,-3.1157,-3.1182,-3.1594,-3.0968,-3.01,-2.9139,-2.8805,-2.8015,-2.7002,-2.6892,-2.6738,-2.6537,-2.6612,-2.6323,-2.5611,-2.5084,-2.4607,-2.4205,-2.418,-2.3904,-2.3283,-2.2485,-2.1995,-2.187,-2.1857,-2.1807,-2.1681,-2.1669,-2.1669,-2.1681,-2.1681,-2.1732,-2.1857,-2.1857,-2.1857,-2.1857,-2.1857,-2.1857,-2.187,-2.187,-2.1857,-2.1857,-2.1857,-2.2046,-2.246,-2.2456,-2.2656,-2.294,-2.1925,-2.1131,-2.1007,-2.1028,-2.107,-2.1155,-2.0707,-2.0226,-2.0096,-1.9649,-1.9377,-1.9342,-1.9363,-1.9485,-1.9933,-1.9518,-1.9297,-1.9616,-1.9419,-1.8953,-1.8652,-1.8569,-1.8569,-1.8559,-1.8497,-1.805,-1.7512,-1.6974,-1.6757,-1.6674,-1.6591,-1.656,-1.6529,-1.6446,-1.6423,-1.6402,-1.6402,-1.6402,-1.6402,-1.6402,-1.6402,-1.6402,-1.6402,-1.6402,-1.6402,-1.6402,-1.6402,-1.6402,-1.6402,-1.6374,-3.7908,-3.7605,-3.6896,-3.6105,-3.547,-3.5334,-3.4971,-3.4457,-3.438,-3.438,-3.4327,-3.3688,-3.3402,-3.3296,-3.2605,-3.2315,-3.2394,-3.2323,-3.2349,-3.2346,-3.1707,-3.1335,-3.1046,-2.9877,-2.8865,-2.8282,-2.8038,-2.75,-2.6719,-2.7062,-2.67,-2.5649,-2.5071,-2.482,-2.4725,-2.4713,-2.4469,-2.3941,-2.3816,-2.3514,-2.2995,-2.2957,-2.2719,-2.2217,-2.2234,-2.2234,-2.2272,-2.2205,-2.2443,-2.2895,-2.2957,-2.2945,-2.2932,-2.2945,-2.2957,-2.2945,-2.2945,-2.2945,-2.2945,-2.2957,-2.2932,-2.302,-2.2995,-2.302,-2.3108,-2.2947,-2.2867,-2.2737,-2.261,-2.2304,-2.2051,-2.1772,-2.1408,-2.0996,-2.0837,-2.0901,-2.0741,-2.0355,-2.0042,-2.0096,-1.9584,-1.9131,-1.9297,-1.9198,-1.9077,-1.8984,-1.8953,-1.8953,-1.8942,-1.8694,-1.8465,-1.8206,-1.7885,-1.7585,-1.7482,-1.7203,-1.7006,-1.6924,-1.6653,-1.6568,-1.6558,-1.6467,-1.6413,-1.6498,-1.6402,-1.6413,-1.6402,-1.6402,-1.6402,-1.6402,-1.6402,-1.6402,-1.6402,-1.6402,-1.6402,-3.8595,-3.8354,-3.7541,-3.6697,-3.5944,-3.5566,-3.5261,-3.4951,-3.4559,-3.438,-3.4385,-3.4138,-3.3867,-3.3489,-3.3195,-3.3079,-3.3108,-3.3456,-3.3597,-3.3597,-3.3331,-3.2815,-3.201,-3.146,-3.0617,-2.9562,-2.9069,-2.8599,-2.8263,-2.8379,-2.7838,-2.6757,-2.6782,-2.6394,-2.5368,-2.5285,-2.5021,-2.4506,-2.4481,-2.4356,-2.4048,-2.3446,-2.2995,-2.2794,-2.2769,-2.2945,-2.3276,-2.3314,-2.3414,-2.3653,-2.3923,-2.3797,-2.3145,-2.3735,-2.3979,-2.3659,-2.3653,-2.364,-2.3609,-2.3308,-2.3095,-2.3095,-2.3095,-2.3095,-2.312,-2.3409,-2.3609,-2.3584,-2.323,-2.2866,-2.2702,-2.2292,-2.1928,-2.1678,-2.1345,-2.1103,-2.1071,-2.088,-2.0709,-2.0645,-2.0096,-1.9682,-1.9616,-1.933,-1.9131,-1.9098,-1.9131,-1.9164,-1.9121,-1.8932,-1.8849,-1.8797,-1.862,-1.8256,-1.7864,-1.7564,-1.743,-1.7389,-1.7285,-1.7191,-1.7119,-1.6872,-1.6748,-1.6738,-1.657,-1.6454,-1.6402,-1.6402,-1.6402,-1.6402,-1.6402,-1.6402,-1.6402,-1.6402,-1.6402,-3.8848,-3.8613,-3.8026,-3.7317,-3.6548,-3.6133,-3.5726,-3.5363,-3.4864,-3.4588,-3.438,-3.438,-3.4167,-3.3794,-3.3765,-3.3765,-3.3823,-3.4211,-3.438,-3.438,-3.438,-3.3869,-3.2985,-3.2704,-3.2025,-3.0993,-3.0373,-2.9864,-2.9564,-2.9358,-2.8708,-2.7759,-2.8071,-2.7571,-2.6231,-2.6063,-2.5711,-2.5084,-2.5001,-2.4971,-2.47,-2.3985,-2.3572,-2.3572,-2.3572,-2.3772,-2.4205,-2.423,-2.423,-2.423,-2.4575,-2.4424,-2.3672,-2.4349,-2.4632,-2.428,-2.4217,-2.4217,-2.4217,-2.3828,-2.3559,-2.3572,-2.3559,-2.3559,-2.3634,-2.396,-2.4205,-2.4205,-2.381,-2.3609,-2.3498,-2.301,-2.2652,-2.259,-2.2027,-2.1671,-2.1702,-2.1534,-2.1396,-2.1333,-2.0762,-2.0387,-2.0323,-1.9998,-1.9737,-1.9748,-1.9715,-1.9649,-1.9649,-1.9671,-1.9628,-1.9419,-1.9386,-1.9035,-1.8279,-1.7946,-1.7905,-1.7833,-1.7771,-1.7626,-1.7709,-1.7368,-1.7068,-1.6944,-1.6686,-1.6508,-1.6423,-1.6402,-1.6423,-1.6402,-1.6402,-1.6402,-1.6402,-1.6402,-1.6402,-3.8516,-3.8478,-3.8263,-3.7825,-3.7259,-3.7186,-3.6504,-3.5537,-3.5378,-3.5014,-3.4501,-3.4443,-3.4399,-3.4327,-3.4298,-3.4356,-3.4356,-3.4385,-3.438,-3.438,-3.438,-3.4366,-3.4269,-3.3547,-3.2848,-3.2308,-3.1968,-3.1267,-3.0128,-2.9607,-2.8879,-2.8132,-2.8205,-2.7891,-2.7231,-2.7155,-2.6653,-2.5749,-2.5636,-2.536,-2.4933,-2.4775,-2.4713,-2.4713,-2.4687,-2.4662,-2.475,-2.4782,-2.475,-2.475,-2.487,-2.4775,-2.47,-2.4763,-2.48,-2.482,-2.4763,-2.475,-2.475,-2.4662,-2.4625,-2.4662,-2.4575,-2.4662,-2.455,-2.4675,-2.4782,-2.475,-2.477,-2.4713,-2.4695,-2.416,-2.3817,-2.3729,-2.3299,-2.2971,-2.2927,-2.2341,-2.2101,-2.1916,-2.1365,-2.0965,-2.0996,-2.1028,-2.0869,-2.0837,-2.0901,-2.0869,-2.0773,-2.0869,-2.0549,-2.0128,-1.9933,-1.977,-1.9138,-1.8642,-1.8382,-1.8319,-1.8154,-1.7812,-1.773,-1.7626,-1.7409,-1.7213,-1.7089,-1.6851,-1.6529,-1.6423,-1.6446,-1.6436,-1.6405,-1.6423,-1.6519,-1.6415,-1.6425,-3.8652,-3.8917,-3.8879,-3.871,-3.8434,-3.7665,-3.7027,-3.6577,-3.6141,-3.5619,-3.5131,-3.5058,-3.4791,-3.438,-3.438,-3.438,-3.438,-3.438,-3.438,-3.438,-3.438,-3.438,-3.438,-3.4079,-3.3862,-3.3636,-3.3094,-3.2324,-3.15,-3.1186,-3.051,-2.9533,-2.9385,-2.8884,-2.7968,-2.7808,-2.7419,-2.6753,-2.6691,-2.6449,-2.5933,-2.5908,-2.5896,-2.5824,-2.5172,-2.4951,-2.531,-2.5322,-2.5322,-2.5322,-2.5661,-2.5548,-2.4913,-2.5146,-2.5498,-2.5787,-2.5523,-2.5322,-2.5272,-2.5008,-2.48,-2.48,-2.48,-2.4825,-2.4883,-2.5109,-2.531,-2.536,-2.5686,-2.585,-2.5699,-2.5071,-2.4381,-2.4042,-2.3816,-2.3509,-2.3165,-2.2884,-2.2586,-2.2125,-2.1534,-2.1103,-2.1256,-2.1103,-2.1103,-2.1103,-2.1103,-2.1146,-2.104,-2.0773,-2.042,-2.0193,-2.0096,-1.9879,-1.9198,-1.8984,-1.8849,-1.8828,-1.8725,-1.863,-1.8547,-1.8237,-1.8009,-1.7823,-1.7657,-1.7378,-1.7088,-1.687,-1.685,-1.6748,-1.6715,-1.6705,-1.6757,-1.6653,-1.6653,-3.8745,-3.9261,-3.9242,-3.932,-3.9378,-3.858,-3.797,-3.7578,-3.7114,-3.646,-3.5813,-3.5712,-3.543,-3.5067,-3.5024,-3.4989,-3.4994,-3.4835,-3.4719,-3.4719,-3.4719,-3.4719,-3.469,-3.4516,-3.438,-3.4332,-3.3859,-3.3206,-3.2541,-3.247,-3.1726,-3.0433,-3.0346,-2.9693,-2.8559,-2.8373,-2.8034,-2.748,-2.7329,-2.704,-2.6562,-2.6487,-2.6487,-2.6399,-2.5724,-2.5511,-2.5875,-2.5875,-2.5875,-2.5937,-2.6298,-2.616,-2.5485,-2.5674,-2.6084,-2.6386,-2.6122,-2.5887,-2.5883,-2.5548,-2.536,-2.536,-2.536,-2.5347,-2.5372,-2.5686,-2.5883,-2.6009,-2.6223,-2.6487,-2.6361,-2.5774,-2.5134,-2.4619,-2.4368,-2.4117,-2.371,-2.3659,-2.3474,-2.3112,-2.2758,-2.2392,-2.2293,-2.2337,-2.2372,-2.2293,-2.2016,-2.1728,-2.162,-2.0948,-2.0291,-2.0128,-2.0096,-1.9781,-1.9297,-1.9079,-1.9025,-1.9025,-1.8994,-1.9067,-1.9046,-1.8766,-1.8559,-1.8414,-1.8185,-1.7905,-1.7668,-1.742,-1.7296,-1.7223,-1.7161,-1.7171,-1.7037,-1.6851,-1.6934,-3.8708,-3.9414,-3.9281,-3.9567,-3.9958,-3.9886,-3.9291,-3.8304,-3.8217,-3.752,-3.6431,-3.6344,-3.6315,-3.6214,-3.6083,-3.6199,-3.6054,-3.5662,-3.5465,-3.5407,-3.5348,-3.5319,-3.529,-3.4675,-3.438,-3.438,-3.438,-3.3942,-3.3157,-3.2967,-3.2236,-3.1117,-3.0755,-3.0097,-2.89,-2.885,-2.836,-2.7582,-2.7366,-2.704,-2.6562,-2.6487,-2.6487,-2.6487,-2.6399,-2.6373,-2.6449,-2.6449,-2.6411,-2.6424,-2.6474,-2.6487,-2.6373,-2.6411,-2.6461,-2.6474,-2.6461,-2.6461,-2.6449,-2.6399,-2.6311,-2.6311,-2.6399,-2.6311,-2.6285,-2.6361,-2.6399,-2.6399,-2.6436,-2.6487,-2.6487,-2.6386,-2.6097,-2.5624,-2.5071,-2.4763,-2.47,-2.4738,-2.4763,-2.4598,-2.4407,-2.4718,-2.4718,-2.4407,-2.428,-2.4122,-2.3607,-2.3007,-2.2907,-2.2078,-2.1037,-2.0552,-2.0697,-2.0764,-1.993,-1.9152,-1.9162,-1.9173,-1.9098,-1.9098,-1.9098,-1.8911,-1.8797,-1.8662,-1.86,-1.833,-1.7988,-1.7771,-1.774,-1.7678,-1.7637,-1.7585,-1.7543,-1.745,-1.7389,-3.9053,-3.9324,-3.9678,-3.9915,-4.0089,-4.0104,-3.961,-3.8986,-3.9305,-3.8565,-3.7288,-3.7433,-3.7143,-3.6446,-3.6286,-3.6315,-3.6315,-3.6533,-3.646,-3.6025,-3.5625,-3.5436,-3.529,-3.4704,-3.438,-3.438,-3.438,-3.3997,-3.3262,-3.272,-3.1878,-3.1007,-3.0406,-2.9948,-2.9529,-2.9088,-2.8549,-2.7908,-2.7469,-2.7052,-2.6549,-2.6499,-2.6499,-2.6487,-2.6487,-2.6487,-2.6487,-2.6487,-2.6487,-2.6499,-2.6487,-2.6487,-2.6487,-2.6487,-2.6487,-2.6487,-2.6487,-2.6487,-2.6487,-2.6487,-2.6487,-2.6487,-2.6487,-2.6487,-2.6487,-2.6487,-2.6487,-2.6487,-2.6487,-2.6487,-2.6487,-2.6487,-2.6248,-2.5661,-2.5448,-2.5222,-2.4938,-2.4883,-2.48,-2.48,-2.48,-2.48,-2.4813,-2.4838,-2.4921,-2.4876,-2.4424,-2.4159,-2.4045,-2.328,-2.2971,-2.2697,-2.2566,-2.1709,-2.0704,-2.006,-2.0058,-1.9651,-1.9346,-1.9175,-1.9131,-1.9088,-1.8973,-1.8911,-1.8849,-1.8694,-1.8319,-1.8185,-1.8185,-1.8092,-1.7978,-1.7999,-1.8092,-1.8019,-1.7843,-3.901,-3.9348,-3.9649,-3.99,-4.0118,-4.035,-4.0104,-3.9683,-4.0191,-3.9523,-3.8333,-3.8405,-3.8014,-3.7172,-3.7012,-3.7012,-3.7056,-3.7462,-3.7418,-3.6954,-3.6373,-3.6002,-3.5619,-3.4791,-3.438,-3.438,-3.438,-3.4147,-3.3673,-3.3171,-3.2555,-3.1769,-3.0996,-3.0508,-3.019,-2.9555,-2.89,-2.8197,-2.7959,-2.7431,-2.6751,-2.67,-2.6688,-2.6562,-2.6688,-2.6788,-2.6813,-2.6989,-2.6914,-2.6587,-2.6487,-2.6487,-2.6487,-2.6487,-2.6487,-2.6487,-2.6487,-2.6487,-2.6487,-2.6487,-2.6487,-2.6487,-2.6487,-2.6487,-2.6487,-2.6487,-2.6487,-2.6487,-2.6487,-2.6487,-2.6487,-2.6487,-2.6311,-2.6009,-2.5925,-2.5774,-2.5473,-2.5423,-2.546,-2.5498,-2.5473,-2.5435,-2.5435,-2.5435,-2.5435,-2.5423,-2.5004,-2.4715,-2.4521,-2.392,-2.363,-2.3236,-2.2524,-2.1776,-2.1255,-2.1006,-2.0962,-2.032,-1.9649,-1.9402,-1.9198,-1.9131,-1.9036,-1.9036,-1.8994,-1.8963,-1.8683,-1.864,-1.863,-1.8475,-1.835,-1.8495,-1.86,-1.8257,-1.8133,-3.8678,-3.937,-3.9266,-3.9538,-4.006,-4.067,-4.0554,-4.022,-4.0757,-4.0336,-3.9378,-3.9218,-3.8855,-3.8333,-3.8057,-3.7999,-3.8173,-3.8086,-3.8086,-3.7912,-3.7476,-3.6881,-3.5981,-3.5024,-3.4545,-3.4414,-3.438,-3.4312,-3.4045,-3.3962,-3.3894,-3.2706,-3.1965,-3.1526,-3.0619,-3.0063,-2.9151,-2.8411,-2.8537,-2.7971,-2.6788,-2.7067,-2.7165,-2.6725,-2.7115,-2.7366,-2.7394,-2.7695,-2.7557,-2.6763,-2.6725,-2.6751,-2.6637,-2.6575,-2.6587,-2.66,-2.6537,-2.6487,-2.6487,-2.6487,-2.6487,-2.6487,-2.6487,-2.6487,-2.6487,-2.6487,-2.6487,-2.6487,-2.6487,-2.6487,-2.6487,-2.6487,-2.6461,-2.6474,-2.6386,-2.6373,-2.6461,-2.6399,-2.6298,-2.6348,-2.6461,-2.6461,-2.6336,-2.6348,-2.6361,-2.6217,-2.5506,-2.5105,-2.4847,-2.4302,-2.3017,-2.2846,-2.3282,-2.2937,-2.276,-2.2617,-2.2522,-2.1654,-2.0761,-2.0094,-1.9428,-1.9198,-1.9098,-1.9098,-1.9164,-1.9121,-1.9056,-1.8984,-1.8963,-1.888,-1.8901,-1.9067,-1.8932,-1.8578,-1.8475,-3.8341,-3.8583,-3.9024,-3.9305,-3.9523,-4.0104,-4.0278,-4.0191,-4.08,-4.0612,-3.9958,-3.9857,-3.945,-3.8913,-3.8391,-3.8202,-3.8202,-3.8202,-3.8202,-3.8173,-3.8072,-3.7027,-3.5901,-3.5348,-3.4878,-3.453,-3.4467,-3.4113,-3.3555,-3.3638,-3.2946,-3.1549,-3.1549,-3.0959,-3.0101,-2.958,-2.9051,-2.8662,-2.8411,-2.821,-2.7795,-2.777,-2.7821,-2.772,-2.7808,-2.7896,-2.7896,-2.8021,-2.8034,-2.7733,-2.7682,-2.767,-2.757,-2.7278,-2.7052,-2.7014,-2.67,-2.6487,-2.6487,-2.6512,-2.6499,-2.6487,-2.6549,-2.6487,-2.6487,-2.6487,-2.6487,-2.6487,-2.6487,-2.6524,-2.6512,-2.6524,-2.6512,-2.6487,-2.6487,-2.6487,-2.6487,-2.6487,-2.6487,-2.6487,-2.6487,-2.6487,-2.6487,-2.6487,-2.6487,-2.6427,-2.6177,-2.5868,-2.5608,-2.5561,-2.4695,-2.5164,-2.5414,-2.4892,-2.4517,-2.4398,-2.3986,-2.312,-2.215,-2.1159,-2.0205,-1.9264,-1.9164,-1.9098,-1.9297,-1.932,-1.9198,-1.91,-1.9098,-1.9198,-1.9198,-1.9264,-1.9131,-1.8911,-1.888,-3.8202,-3.8231,-3.8623,-3.8783,-3.8913,-3.9726,-3.9958,-3.9944,-4.0684,-4.0568,-3.9886,-3.9726,-3.9378,-3.8768,-3.8376,-3.8202,-3.8202,-3.8202,-3.8202,-3.8202,-3.8188,-3.7433,-3.6402,-3.5988,-3.5561,-3.5227,-3.4922,-3.46,-3.4203,-3.385,-3.3171,-3.2613,-3.2024,-3.1623,-3.1341,-3.0223,-2.9603,-2.94,-2.8999,-2.8637,-2.816,-2.8335,-2.8273,-2.8235,-2.831,-2.8524,-2.8762,-2.8825,-2.8637,-2.8247,-2.8109,-2.8109,-2.8059,-2.7582,-2.7329,-2.7304,-2.6813,-2.6487,-2.6537,-2.6688,-2.6839,-2.6851,-2.6839,-2.6839,-2.6801,-2.6663,-2.6524,-2.6826,-2.6826,-2.6964,-2.7102,-2.6989,-2.6738,-2.6537,-2.6487,-2.6487,-2.6487,-2.6487,-2.6487,-2.6487,-2.6487,-2.6487,-2.6487,-2.6487,-2.6487,-2.6487,-2.6487,-2.6368,-2.6368,-2.6499,-2.6396,-2.6314,-2.6094,-2.5332,-2.4696,-2.449,-2.4408,-2.3709,-2.3267,-2.2294,-2.106,-1.9854,-1.9801,-1.9778,-1.9637,-1.955,-1.9581,-1.9505,-1.9363,-1.9429,-1.9429,-1.9396,-1.933,-1.9386,-1.9353,-3.8225,-3.824,-3.824,-3.8202,-3.8405,-3.9378,-3.9596,-3.9494,-4.0321,-4.0278,-3.9538,-3.9262,-3.9,-3.8304,-3.8318,-3.8202,-3.8202,-3.8202,-3.8202,-3.8202,-3.8173,-3.7796,-3.7317,-3.6664,-3.6315,-3.6083,-3.5697,-3.5503,-3.5224,-3.4795,-3.4423,-3.3829,-3.329,-3.2932,-3.2096,-3.1214,-3.0546,-3.0004,-2.9745,-2.9214,-2.8687,-2.8812,-2.8837,-2.8612,-2.8837,-2.9214,-2.9541,-2.9641,-2.9302,-2.8348,-2.8285,-2.8398,-2.8298,-2.7795,-2.758,-2.7469,-2.7143,-2.6813,-2.6776,-2.7168,-2.7369,-2.7369,-2.7341,-2.7329,-2.719,-2.6889,-2.6826,-2.7143,-2.7318,-2.7507,-2.7632,-2.7482,-2.704,-2.6625,-2.6487,-2.6487,-2.6487,-2.6487,-2.6487,-2.6487,-2.6487,-2.6487,-2.6487,-2.6487,-2.6487,-2.6487,-2.6487,-2.6487,-2.6487,-2.6487,-2.6245,-2.5921,-2.5652,-2.5323,-2.4779,-2.4355,-2.4305,-2.4046,-2.3933,-2.3205,-2.2024,-2.1105,-2.0905,-2.0795,-2.0731,-2.0577,-2.0424,-2.026,-1.9965,-1.9911,-2.0074,-1.9846,-1.9649,-1.9835,-1.9868,-3.8575,-3.8441,-3.8427,-3.8366,-3.8246,-3.8507,-3.8855,-3.9218,-3.9479,-3.9741,-3.9726,-3.9392,-3.9088,-3.8899,-3.8405,-3.8202,-3.8202,-3.8202,-3.8202,-3.8202,-3.8202,-3.8159,-3.7883,-3.7346,-3.6838,-3.646,-3.6214,-3.6112,-3.5952,-3.5482,-3.4862,-3.4243,-3.3345,-3.2074,-3.1516,-3.091,-2.9999,-2.9859,-2.9819,-2.9666,-2.9453,-2.9428,-2.9478,-2.934,-2.9478,-2.9616,-2.9741,-2.9779,-2.9666,-2.949,-2.9377,-2.9289,-2.9202,-2.88,-2.8486,-2.8323,-2.7996,-2.7708,-2.777,-2.7808,-2.7921,-2.7908,-2.762,-2.7329,-2.7329,-2.7253,-2.719,-2.7369,-2.7645,-2.7833,-2.767,-2.7419,-2.7153,-2.6801,-2.6612,-2.6562,-2.6499,-2.6499,-2.6487,-2.6487,-2.6487,-2.6487,-2.6487,-2.6487,-2.6487,-2.6487,-2.6487,-2.6487,-2.6487,-2.6487,-2.6267,-2.599,-2.5943,-2.5756,-2.5591,-2.5211,-2.5054,-2.4919,-2.4733,-2.4514,-2.333,-2.2614,-2.2525,-2.222,-2.1873,-2.1681,-2.1432,-2.1128,-2.0854,-2.0809,-2.0688,-2.0581,-2.0452,-2.0505,-2.0376,-3.8686,-3.8516,-3.8516,-3.8404,-3.826,-3.8536,-3.8696,-3.8797,-3.9088,-3.9189,-3.9131,-3.8841,-3.8739,-3.871,-3.8376,-3.8202,-3.8202,-3.8202,-3.8202,-3.8202,-3.8202,-3.8202,-3.8173,-3.7912,-3.7506,-3.7157,-3.6896,-3.6794,-3.6606,-3.6135,-3.5616,-3.5153,-3.4057,-3.3447,-3.2376,-3.1341,-3.0759,-3.0292,-2.9972,-2.9779,-2.9779,-2.9779,-2.9779,-2.9779,-2.9779,-2.9779,-2.9779,-2.9779,-2.9779,-2.9779,-2.9779,-2.9779,-2.9691,-2.9264,-2.8963,-2.88,-2.8423,-2.8134,-2.8122,-2.8335,-2.8499,-2.8461,-2.8197,-2.8122,-2.7971,-2.7846,-2.7821,-2.8034,-2.8285,-2.836,-2.8097,-2.8072,-2.777,-2.7417,-2.7253,-2.7165,-2.6914,-2.6663,-2.6487,-2.6487,-2.6487,-2.6487,-2.6487,-2.6487,-2.6487,-2.6487,-2.6487,-2.6487,-2.6487,-2.6487,-2.6487,-2.6349,-2.6383,-2.6383,-2.6383,-2.6239,-2.6061,-2.5949,-2.5803,-2.5645,-2.5124,-2.4645,-2.43,-2.3716,-2.3022,-2.268,-2.2424,-2.211,-2.1716,-2.1256,-2.1103,-2.1219,-2.1219,-2.0985,-2.0869,-3.8775,-3.8538,-3.8553,-3.8427,-3.8289,-3.8754,-3.8696,-3.8362,-3.8797,-3.8739,-3.8318,-3.8202,-3.8304,-3.8217,-3.8231,-3.8202,-3.8202,-3.8202,-3.8202,-3.8202,-3.8202,-3.8202,-3.8188,-3.8144,-3.8101,-3.813,-3.768,-3.7447,-3.7222,-3.6664,-3.605,-3.5993,-3.5175,-3.4046,-3.3528,-3.2562,-3.1318,-3.0675,-3.01,-2.9779,-2.9779,-2.9779,-2.9779,-2.9779,-2.9779,-2.9779,-2.9779,-2.9779,-2.9779,-2.9779,-2.9779,-2.9779,-2.9666,-2.939,-2.9063,-2.9076,-2.8725,-2.8586,-2.8637,-2.8837,-2.9063,-2.9026,-2.8875,-2.885,-2.8712,-2.8499,-2.8461,-2.8699,-2.8925,-2.895,-2.89,-2.8737,-2.8499,-2.8185,-2.8072,-2.7883,-2.7505,-2.7002,-2.6851,-2.6487,-2.6487,-2.6487,-2.6487,-2.6487,-2.6487,-2.6487,-2.6487,-2.6487,-2.6487,-2.6487,-2.6487,-2.6487,-2.6487,-2.6487,-2.6487,-2.6487,-2.6424,-2.6411,-2.6386,-2.6327,-2.6267,-2.5887,-2.5271,-2.4743,-2.4174,-2.3838,-2.3583,-2.3414,-2.2831,-2.1922,-2.182,-2.2272,-2.2044,-2.1494,-2.1482,-3.9104,-3.876,-3.876,-3.8523,-3.8254,-3.8333,-3.8333,-3.8231,-3.8347,-3.8318,-3.8231,-3.8202,-3.8202,-3.8202,-3.8202,-3.8202,-3.8202,-3.8202,-3.8202,-3.8202,-3.8202,-3.8202,-3.8202,-3.8202,-3.8202,-3.8188,-3.7953,-3.7858,-3.7653,-3.6773,-3.6399,-3.5766,-3.4358,-3.3321,-3.289,-3.159,-3.1074,-3.0712,-3.016,-2.988,-2.9792,-2.9779,-2.9779,-2.9779,-2.9779,-2.9779,-2.9779,-2.9779,-2.9779,-2.9779,-2.9779,-2.9779,-2.9767,-2.9654,-2.9591,-2.9541,-2.944,-2.9289,-2.9352,-2.9503,-2.9628,-2.9541,-2.9252,-2.8963,-2.8938,-2.8875,-2.89,-2.9026,-2.9327,-2.9453,-2.8938,-2.8976,-2.8662,-2.8323,-2.8222,-2.8147,-2.8009,-2.7808,-2.7394,-2.6876,-2.6675,-2.6487,-2.6487,-2.6487,-2.6487,-2.6487,-2.6487,-2.6487,-2.6487,-2.6487,-2.6487,-2.6487,-2.6487,-2.6487,-2.6487,-2.6487,-2.6461,-2.6461,-2.6449,-2.6449,-2.6402,-2.6461,-2.6086,-2.5521,-2.5264,-2.5074,-2.4872,-2.4598,-2.4072,-2.3242,-2.3304,-2.3443,-2.2935,-2.2478,-2.2506,-3.9228,-3.8929,-3.8943,-3.8797,-3.8523,-3.8523,-3.8464,-3.8366,-3.8366,-3.8277,-3.824,-3.8202,-3.8202,-3.8202,-3.8202,-3.8202,-3.8202,-3.8202,-3.8202,-3.8202,-3.8202,-3.8202,-3.8217,-3.8217,-3.8202,-3.8037,-3.7796,-3.7863,-3.8098,-3.7561,-3.6945,-3.6741,-3.5245,-3.417,-3.3488,-3.245,-3.1336,-3.0804,-3.0357,-3.0043,-2.9817,-2.9779,-2.9779,-2.9779,-2.9779,-2.9779,-2.9779,-2.9779,-2.9779,-2.9779,-2.9779,-2.9779,-2.9779,-2.9779,-2.9779,-2.9779,-2.9779,-2.9779,-2.9779,-2.9779,-2.9767,-2.9754,-2.949,-2.9402,-2.9377,-2.9377,-2.934,-2.9428,-2.9515,-2.9691,-2.9428,-2.9365,-2.9239,-2.9063,-2.8938,-2.8787,-2.8587,-2.8549,-2.8034,-2.7369,-2.7168,-2.6939,-2.6487,-2.6487,-2.6487,-2.6487,-2.6512,-2.6524,-2.6549,-2.6487,-2.6487,-2.6487,-2.6487,-2.6487,-2.6487,-2.6487,-2.6487,-2.6487,-2.6487,-2.6487,-2.6487,-2.6487,-2.6487,-2.6255,-2.6113,-2.5933,-2.5578,-2.5115,-2.4831,-2.4582,-2.4348,-2.4104,-2.3766,-2.3534,-2.3459,-3.9301,-3.909,-3.909,-3.898,-3.8819,-3.8782,-3.8723,-3.859,-3.8516,-3.8404,-3.8277,-3.824,-3.8202,-3.8202,-3.8202,-3.8202,-3.8202,-3.8202,-3.8202,-3.8202,-3.8202,-3.8202,-3.8217,-3.8362,-3.8463,-3.8446,-3.8007,-3.7567,-3.762,-3.7151,-3.7271,-3.6598,-3.5859,-3.529,-3.4326,-3.2983,-3.1957,-3.1463,-3.0685,-3.0331,-2.9917,-2.9779,-2.9779,-2.9779,-2.9779,-2.9779,-2.9779,-2.9779,-2.9779,-2.9779,-2.9779,-2.9779,-2.9779,-2.9779,-2.9779,-2.9779,-2.9779,-2.9779,-2.9779,-2.9779,-2.9779,-2.9779,-2.9779,-2.9767,-2.9754,-2.9691,-2.9729,-2.9779,-2.9779,-2.9779,-2.9704,-2.9754,-2.9741,-2.9716,-2.9666,-2.9616,-2.9264,-2.9038,-2.8812,-2.8285,-2.7871,-2.7507,-2.7203,-2.7077,-2.7203,-2.7065,-2.7077,-2.6851,-2.6826,-2.6537,-2.6487,-2.6487,-2.6487,-2.6487,-2.6487,-2.6487,-2.6487,-2.6487,-2.6487,-2.6487,-2.6487,-2.6487,-2.6487,-2.6487,-2.6449,-2.6223,-2.5912,-2.5699,-2.5448,-2.5222,-2.5059,-2.4725,-2.4311,-2.4111,-2.4048,-3.9301,-3.909,-3.909,-3.898,-3.8819,-3.8819,-3.8797,-3.8745,-3.859,-3.8478,-3.8441,-3.8277,-3.8202,-3.8202,-3.8202,-3.8202,-3.8202,-3.8202,-3.8202,-3.8202,-3.8202,-3.8246,-3.8333,-3.8855,-3.9,-3.8924,-3.8823,-3.812,-3.725,-3.5924,-3.5155,-3.502,-3.457,-3.3795,-3.4372,-3.3132,-3.2615,-3.2673,-3.1434,-3.0369,-2.993,-2.9817,-2.9779,-2.9779,-2.9779,-2.9779,-2.9779,-2.9779,-2.9779,-2.9779,-2.9779,-2.9779,-2.9779,-2.9779,-2.9779,-2.9779,-2.9779,-2.9779,-2.9779,-2.9779,-2.9779,-2.9779,-2.9779,-2.9779,-2.9779,-2.9779,-2.9779,-2.9779,-2.9779,-2.9779,-2.9779,-2.9779,-2.9779,-2.9779,-2.9779,-2.9767,-2.9616,-2.944,-2.9227,-2.9063,-2.8612,-2.836,-2.8072,-2.7996,-2.7921,-2.7745,-2.7557,-2.7293,-2.704,-2.6713,-2.6487,-2.6487,-2.6487,-2.6487,-2.6487,-2.6487,-2.6524,-2.6512,-2.6499,-2.6499,-2.6487,-2.6487,-2.6487,-2.6487,-2.6487,-2.6487,-2.6273,-2.6109,-2.6021,-2.5824,-2.5586,-2.5234,-2.4833,-2.472,-2.4657,-3.9352,-3.9265,-3.9265,-3.9213,-3.9156,-3.9126,-3.9068,-3.8943,-3.876,-3.8627,-3.8478,-3.8277,-3.8202,-3.8202,-3.8202,-3.8202,-3.8202,-3.8202,-3.8202,-3.8202,-3.8231,-3.8405,-3.8768,-3.9073,-3.9305,-3.9392,-3.8814,-3.7751,-3.6724,-3.6167,-3.5615,-3.4896,-3.4272,-3.4079,-3.4343,-3.3284,-3.2798,-3.232,-3.1413,-3.0545,-3.0244,-2.998,-2.9792,-2.9779,-2.9779,-2.9779,-2.9779,-2.9779,-2.9779,-2.9779,-2.9779,-2.9779,-2.9779,-2.9779,-2.9779,-2.9779,-2.9779,-2.9779,-2.9779,-2.9779,-2.9779,-2.9779,-2.9779,-2.9779,-2.9779,-2.9779,-2.9779,-2.9779,-2.9779,-2.9779,-2.9779,-2.9779,-2.9779,-2.9779,-2.9779,-2.9779,-2.9779,-2.9779,-2.9628,-2.9515,-2.9339,-2.9089,-2.8775,-2.8486,-2.831,-2.8134,-2.7821,-2.7457,-2.7153,-2.6776,-2.6587,-2.6487,-2.6487,-2.6487,-2.6487,-2.6487,-2.6575,-2.6575,-2.6537,-2.6524,-2.6499,-2.6487,-2.6487,-2.6487,-2.6487,-2.6487,-2.6487,-2.6411,-2.626,-2.6185,-2.6122,-2.5757,-2.5372,-2.5285,-2.5234,-3.9388,-3.9388,-3.9388,-3.9388,-3.9388,-3.9388,-3.9301,-3.9141,-3.8943,-3.876,-3.8538,-3.8352,-3.824,-3.824,-3.824,-3.824,-3.8292,-3.824,-3.8202,-3.8202,-3.826,-3.8463,-3.8754,-3.9044,-3.9407,-3.9847,-3.8578,-3.7541,-3.6837,-3.6171,-3.5602,-3.5278,-3.4592,-3.4551,-3.4371,-3.3636,-3.2852,-3.2206,-3.1553,-3.0972,-3.0583,-3.0218,-2.9967,-2.9842,-2.9779,-2.9779,-2.9779,-2.9779,-2.9779,-2.9779,-2.9779,-2.9779,-2.9779,-2.9779,-2.9779,-2.9779,-2.9779,-2.9779,-2.9779,-2.9779,-2.9779,-2.9779,-2.9779,-2.9779,-2.9779,-2.9779,-2.9779,-2.9779,-2.9779,-2.9779,-2.9779,-2.9779,-2.9779,-2.9779,-2.9779,-2.9779,-2.9779,-2.9779,-2.9779,-2.9691,-2.9616,-2.9666,-2.9327,-2.8925,-2.8674,-2.8511,-2.8134,-2.7682,-2.7379,-2.7065,-2.7077,-2.7052,-2.7077,-2.709,-2.7052,-2.6977,-2.6901,-2.6776,-2.6738,-2.6725,-2.6801,-2.6625,-2.6487,-2.6487,-2.6512,-2.6487,-2.6487,-2.6487,-2.6487,-2.6373,-2.6285,-2.6197,-2.5996,-2.5883,-2.582,-3.9388,-3.9388,-3.9388,-3.9388,-3.9388,-3.9388,-3.9388,-3.9352,-3.9141,-3.8943,-3.8686,-3.8412,-3.8352,-3.8404,-3.8329,-3.8315,-3.8427,-3.8277,-3.826,-3.826,-3.8246,-3.8478,-3.8855,-3.9247,-3.9368,-3.9348,-3.8499,-3.7614,-3.6566,-3.568,-3.5029,-3.4439,-3.4314,-3.4814,-3.4649,-3.37,-3.2928,-3.2403,-3.1976,-3.1486,-3.0972,-3.0545,-3.0294,-2.9917,-2.9804,-2.9779,-2.9779,-2.9779,-2.9779,-2.9779,-2.9779,-2.9779,-2.9779,-2.9779,-2.9779,-2.9779,-2.9779,-2.9779,-2.9779,-2.9779,-2.9779,-2.9779,-2.9779,-2.9779,-2.9779,-2.9779,-2.9779,-2.9779,-2.9779,-2.9779,-2.9779,-2.9779,-2.9779,-2.9779,-2.9779,-2.9779,-2.9779,-2.9779,-2.9779,-2.9779,-2.9779,-2.9779,-2.9779,-2.934,-2.9239,-2.9089,-2.8674,-2.8222,-2.7946,-2.7695,-2.7795,-2.7833,-2.7871,-2.7896,-2.7921,-2.7795,-2.7544,-2.7394,-2.7379,-2.7281,-2.7256,-2.7027,-2.6688,-2.66,-2.6637,-2.6562,-2.6487,-2.6487,-2.6487,-2.6487,-2.6436,-2.6336,-2.6311,-2.6223,-2.6235,-3.9388,-3.9388,-3.9388,-3.9388,-3.9388,-3.9388,-3.9388,-3.9373,-3.9192,-3.8922,-3.8627,-3.8575,-3.8538,-3.8478,-3.8441,-3.8404,-3.8441,-3.8277,-3.8472,-3.871,-3.8841,-3.9262,-3.9726,-4.006,-4.0394,-4.0032,-3.9081,-3.7795,-3.6606,-3.57,-3.5077,-3.4599,-3.3959,-3.3768,-3.3598,-3.3556,-3.3089,-3.2729,-3.2416,-3.1926,-3.1662,-3.0884,-3.052,-3.0331,-2.988,-2.9817,-2.9779,-2.9779,-2.9779,-2.9779,-2.9779,-2.9779,-2.9779,-2.9779,-2.9779,-2.9779,-2.9779,-2.9779,-2.9779,-2.9779,-2.9779,-2.9779,-2.9779,-2.9779,-2.9779,-2.9779,-2.9779,-2.9779,-2.9779,-2.9779,-2.9779,-2.9779,-2.9779,-2.9779,-2.9779,-2.9779,-2.9779,-2.9779,-2.9779,-2.9779,-2.9779,-2.9779,-2.9779,-2.9741,-2.9716,-2.9666,-2.9214,-2.8762,-2.8524,-2.831,-2.8386,-2.8411,-2.8423,-2.8348,-2.8348,-2.826,-2.816,-2.8084,-2.7996,-2.7871,-2.7745,-2.7331,-2.7065,-2.6927,-2.6751,-2.665,-2.6575,-2.6512,-2.6487,-2.6487,-2.6487,-2.6461,-2.6474,-2.6537,-2.6637,-3.9388,-3.9388,-3.9388,-3.9388,-3.9388,-3.9388,-3.9388,-3.9388,-3.9265,-3.8973,-3.859,-3.8686,-3.8686,-3.859,-3.859,-3.859,-3.859,-3.8522,-3.8766,-3.9004,-3.9339,-3.9911,-4.0506,-4.0713,-4.0525,-4.0429,-3.925,-3.7717,-3.689,-3.6291,-3.5211,-3.4315,-3.3738,-3.3584,-3.3569,-3.3197,-3.3124,-3.2955,-3.2754,-3.234,-3.2114,-3.1361,-3.0884,-3.0708,-3.0193,-2.9967,-2.9955,-2.9942,-2.9779,-2.9779,-2.9779,-2.9779,-2.9779,-2.9779,-2.9779,-2.9779,-2.9779,-2.9779,-2.9779,-2.9779,-2.9779,-2.9779,-2.9779,-2.9779,-2.9779,-2.9779,-2.9779,-2.9779,-2.9779,-2.9779,-2.9779,-2.9779,-2.9779,-2.9779,-2.9779,-2.9779,-2.9779,-2.9779,-2.9779,-2.9779,-2.9779,-2.9779,-2.9779,-2.9779,-2.9779,-2.9779,-2.9591,-2.9264,-2.9101,-2.8938,-2.8875,-2.8875,-2.8863,-2.8762,-2.8662,-2.8775,-2.8888,-2.8825,-2.8699,-2.8436,-2.821,-2.7795,-2.7532,-2.7469,-2.7231,-2.6864,-2.6713,-2.67,-2.66,-2.6487,-2.6487,-2.6487,-2.6839,-2.6927,-2.7052,-3.9388,-3.9388,-3.9388,-3.9388,-3.9388,-3.9388,-3.9388,-3.9388,-3.9373,-3.9141,-3.876,-3.8649,-3.8649,-3.8723,-3.8723,-3.8723,-3.8752,-3.8811,-3.9007,-3.9281,-3.9692,-3.9911,-4.024,-4.051,-4.0684,-3.9808,-3.8697,-3.7753,-3.7253,-3.5869,-3.4749,-3.4193,-3.389,-3.3824,-3.4199,-3.3496,-3.3124,-3.3111,-3.3061,-3.2704,-3.229,-3.17,-3.1436,-3.1185,-3.0432,-3.0143,-3.0281,-2.9993,-2.9817,-2.9779,-2.9779,-2.9779,-2.9779,-2.9779,-2.9779,-2.9779,-2.9779,-2.9779,-2.9779,-2.9779,-2.9779,-2.9779,-2.9779,-2.9779,-2.9779,-2.9779,-2.9779,-2.9779,-2.9779,-2.9779,-2.9779,-2.9779,-2.9779,-2.9779,-2.9779,-2.9779,-2.9779,-2.9779,-2.9779,-2.9779,-2.9779,-2.9779,-2.9779,-2.9779,-2.9779,-2.9779,-2.9779,-2.9679,-2.9528,-2.944,-2.9315,-2.9289,-2.9264,-2.9264,-2.9239,-2.9503,-2.9603,-2.9541,-2.9365,-2.9063,-2.875,-2.8398,-2.8185,-2.8072,-2.772,-2.7306,-2.7102,-2.6927,-2.6964,-2.6989,-2.6575,-2.6587,-2.6989,-2.7243,-2.7306,-3.9388,-3.9388,-3.9388,-3.9388,-3.9388,-3.9388,-3.9388,-3.9388,-3.9388,-3.9177,-3.8855,-3.8848,-3.8833,-3.8782,-3.8723,-3.8723,-3.8841,-3.9237,-3.9434,-3.9833,-4.0281,-4.1004,-4.1273,-4.1218,-4.1105,-4.0385,-3.9034,-3.7871,-3.7335,-3.6082,-3.5095,-3.4537,-3.4136,-3.3757,-3.3538,-3.3154,-3.3124,-3.3124,-3.3056,-3.2943,-3.2717,-3.224,-3.1913,-3.1876,-3.0896,-3.0482,-3.062,-3.0156,-2.988,-2.9792,-2.9779,-2.9779,-2.9779,-2.9779,-2.9779,-2.9779,-2.9779,-2.9779,-2.9779,-2.9779,-2.9779,-2.9779,-2.9779,-2.9779,-2.9779,-2.9779,-2.9779,-2.9779,-2.9779,-2.9779,-2.9779,-2.9779,-2.9779,-2.9779,-2.9779,-2.9779,-2.9779,-2.9779,-2.9779,-2.9779,-2.9779,-2.9779,-2.9779,-2.9779,-2.9779,-2.9779,-2.9779,-2.9779,-2.9666,-2.9679,-2.9616,-2.9628,-2.9641,-2.9704,-2.9779,-2.9779,-2.9779,-2.9679,-2.9654,-2.9578,-2.9264,-2.8925,-2.8787,-2.8599,-2.821,-2.7795,-2.7595,-2.7457,-2.7582,-2.7507,-2.7115,-2.6964,-2.7354,-2.7494,-2.7469,-3.9388,-3.9388,-3.9388,-3.9388,-3.9388,-3.9388,-3.9388,-3.9388,-3.9337,-3.9141,-3.898,-3.9031,-3.9031,-3.8907,-3.8848,-3.8686,-3.8863,-3.9247,-3.9821,-4.0198,-4.0573,-4.1305,-4.1869,-4.1983,-4.1674,-4.1066,-4.0111,-3.8984,-3.8179,-3.7243,-3.6412,-3.5571,-3.4464,-3.4035,-3.3627,-3.3488,-3.3124,-3.3124,-3.3111,-3.3111,-3.2855,-3.2566,-3.2315,-3.2152,-3.1587,-3.0909,-3.0746,-3.0419,-2.9993,-2.9892,-2.9817,-2.9817,-2.9817,-2.9792,-2.9792,-2.9779,-2.9779,-2.9779,-2.9779,-2.9779,-2.9779,-2.9779,-2.9779,-2.9779,-2.9779,-2.9779,-2.9779,-2.9779,-2.9779,-2.9779,-2.9779,-2.9779,-2.9779,-2.9779,-2.9779,-2.9779,-2.9779,-2.9779,-2.9779,-2.9779,-2.9779,-2.9779,-2.9779,-2.9779,-2.9779,-2.9779,-2.9779,-2.9779,-2.9779,-2.9779,-2.9779,-2.9779,-2.9779,-2.9779,-2.9779,-2.9779,-2.9779,-2.9779,-2.9779,-2.9779,-2.9704,-2.9365,-2.9289,-2.9126,-2.8737,-2.836,-2.8134,-2.8059,-2.8047,-2.7908,-2.7582,-2.757,-2.7783,-2.7858,-2.7896,-3.9388,-3.9388,-3.9388,-3.9388,-3.9388,-3.9388,-3.9388,-3.9388,-3.9213,-3.909,-3.9104,-3.9053,-3.9053,-3.9104,-3.9228,-3.9104,-3.9017,-3.9289,-3.9794,-4.0185,-4.0318,-4.1239,-4.1743,-4.1799,-4.1723,-4.1758,-4.1196,-4.0023,-3.9292,-3.8381,-3.7667,-3.6547,-3.4926,-3.4463,-3.4173,-3.3834,-3.3382,-3.3363,-3.3269,-3.325,-3.3006,-3.2641,-3.2629,-3.2478,-3.2014,-3.1512,-3.126,-3.0934,-3.0457,-3.0181,-2.9967,-2.993,-2.9892,-2.9842,-2.9817,-2.9779,-2.9779,-2.9779,-2.9779,-2.9779,-2.9779,-2.9779,-2.9779,-2.9779,-2.9779,-2.9779,-2.9779,-2.9779,-2.9779,-2.9779,-2.9779,-2.9779,-2.9779,-2.9779,-2.9779,-2.9779,-2.9779,-2.9779,-2.9779,-2.9779,-2.9779,-2.9779,-2.9779,-2.9779,-2.9779,-2.9779,-2.9779,-2.9779,-2.9779,-2.9779,-2.9779,-2.9779,-2.9779,-2.9779,-2.9779,-2.9779,-2.9779,-2.9779,-2.9779,-2.9779,-2.9754,-2.9741,-2.9603,-2.9415,-2.9189,-2.895,-2.8775,-2.8561,-2.8386,-2.8222,-2.8273,-2.8222,-2.8423,-2.8524,-2.8649,-3.9388,-3.9388,-3.9388,-3.9388,-3.9388,-3.9388,-3.9388,-3.9388,-3.9301,-3.9192,-3.8907,-3.9017,-3.9017,-3.8892,-3.8943,-3.8995,-3.9231,-3.9565,-3.9802,-4.0014,-4.0182,-4.0772,-4.1151,-4.141,-4.151,-4.159,-4.1317,-4.0916,-3.9929,-3.9166,-3.7508,-3.5879,-3.5388,-3.5055,-3.4713,-3.4399,-3.4048,-3.3784,-3.3709,-3.3407,-3.3206,-3.2918,-3.3011,-3.2822,-3.2416,-3.2014,-3.1788,-3.1436,-3.1035,-3.0922,-3.0896,-3.0909,-3.0922,-3.0583,-3.0294,-2.9817,-2.9779,-2.9779,-2.9779,-2.9792,-2.9854,-2.9917,-2.988,-2.9792,-2.9779,-2.9829,-2.9829,-2.9779,-2.9779,-2.9779,-2.9779,-2.9779,-2.9779,-2.9779,-2.9779,-2.9779,-2.9779,-2.9779,-2.9779,-2.9779,-2.9779,-2.9779,-2.9779,-2.9779,-2.9779,-2.9779,-2.9779,-2.9779,-2.9779,-2.9779,-2.9779,-2.9779,-2.9779,-2.9779,-2.9779,-2.9779,-2.9779,-2.9779,-2.9779,-2.9779,-2.9779,-2.9767,-2.9779,-2.9679,-2.9465,-2.944,-2.944,-2.9214,-2.895,-2.9202,-2.9277,-2.9139,-2.9013,-2.9038,-2.9151,-3.9388,-3.9388,-3.9388,-3.9388,-3.9388,-3.9388,-3.9388,-3.9388,-3.9388,-3.9265,-3.9053,-3.909,-3.9068,-3.9053,-3.898,-3.898,-3.9134,-3.9511,-3.9825,-4.0061,-4.0075,-4.055,-4.0829,-4.1111,-4.1386,-4.15,-4.1639,-4.1532,-4.0375,-3.8988,-3.7404,-3.7189,-3.6383,-3.5609,-3.5353,-3.5165,-3.4876,-3.4587,-3.4286,-3.3796,-3.3445,-3.33,-3.3325,-3.3074,-3.2654,-3.2491,-3.2227,-3.1838,-3.1675,-3.1449,-3.1386,-3.1373,-3.1348,-3.1035,-3.0871,-3.0507,-3.0495,-3.052,-3.0532,-3.0507,-3.0457,-3.0407,-3.0382,-3.047,-3.0244,-3.0156,-2.9942,-2.9779,-2.9779,-2.9779,-2.9779,-2.9779,-2.9779,-2.9779,-2.9779,-2.9779,-2.9779,-2.9779,-2.9779,-2.9779,-2.9779,-2.9779,-2.9779,-2.9779,-2.9779,-2.9779,-2.9779,-2.9779,-2.9779,-2.9779,-2.9779,-2.9779,-2.9779,-2.9779,-2.9779,-2.9779,-2.9779,-2.9779,-2.9779,-2.9779,-2.9779,-2.9779,-2.9779,-2.9779,-2.9754,-2.9716,-2.9654,-2.9704,-2.9603,-2.9779,-2.9779,-2.9578,-2.9402,-2.9415,-2.9528,-3.9388,-3.9388,-3.9388,-3.9388,-3.9388,-3.9388,-3.9388,-3.9388,-3.9388,-3.9388,-3.9316,-3.9177,-3.9228,-3.9228,-3.9141,-3.9141,-3.9228,-3.945,-3.9689,-4.0018,-3.9558,-3.9884,-4.0584,-4.1082,-4.1133,-4.173,-4.1902,-4.1346,-4.0218,-3.8899,-3.8238,-3.8859,-3.6975,-3.5966,-3.6053,-3.578,-3.5479,-3.5157,-3.4781,-3.4349,-3.3596,-3.3495,-3.3608,-3.3224,-3.3023,-3.2855,-3.2466,-3.2202,-3.2064,-3.1712,-3.1603,-3.1678,-3.1512,-3.1486,-3.1424,-3.126,-3.1135,-3.1122,-3.111,-3.111,-3.1185,-3.1235,-3.1361,-3.1198,-3.0859,-3.0583,-3.0357,-3.0294,-3.0344,-3.0344,-3.0357,-3.0168,-3.008,-2.998,-2.9917,-2.9854,-2.9779,-2.9779,-2.9779,-2.9779,-2.9779,-2.9779,-2.9779,-2.9779,-2.9779,-2.9779,-2.9779,-2.9779,-2.9779,-2.9779,-2.9779,-2.9779,-2.9779,-2.9779,-2.9779,-2.9779,-2.9779,-2.9779,-2.9779,-2.9779,-2.9779,-2.9779,-2.9779,-2.9779,-2.9779,-2.9779,-2.9767,-2.9779,-2.9779,-2.9779,-2.9779,-2.9779,-2.9741,-2.9679,-2.9704,-3.9388,-3.9388,-3.9388,-3.9388,-3.9388,-3.9388,-3.9388,-3.9388,-3.9388,-3.9301,-3.9213,-3.9265,-3.9265,-3.9228,-3.9265,-3.9265,-3.9352,-3.9352,-3.9478,-3.9518,-3.9237,-3.9392,-3.9949,-4.0427,-4.0708,-4.1085,-4.1186,-4.0823,-3.9507,-3.8582,-3.775,-3.7158,-3.6315,-3.6407,-3.6304,-3.6031,-3.5956,-3.5608,-3.5194,-3.4675,-3.3909,-3.3357,-3.3199,-3.3124,-3.3074,-3.3074,-3.2805,-3.2817,-3.2792,-3.2722,-3.2722,-3.2466,-3.2064,-3.2039,-3.18,-3.1499,-3.1553,-3.1603,-3.1562,-3.1587,-3.1599,-3.1512,-3.1486,-3.1411,-3.1273,-3.1097,-3.0997,-3.0984,-3.0934,-3.0922,-3.0846,-3.0595,-3.0394,-3.0244,-3.0118,-2.9993,-2.9854,-2.9804,-2.9804,-2.9779,-2.9779,-2.9779,-2.9779,-2.9779,-2.9779,-2.9779,-2.9779,-2.9779,-2.9779,-2.9779,-2.9779,-2.9779,-2.9779,-2.9779,-2.9779,-2.9779,-2.9779,-2.9779,-2.9779,-2.9779,-2.9779,-2.9779,-2.9779,-2.9779,-2.9779,-2.9779,-2.9779,-2.9779,-2.9779,-2.9779,-2.9779,-2.9779,-2.9779,-2.9741,-2.9754,-3.8691,-3.899,-3.9305,-3.9388,-3.9388,-3.9388,-3.9388,-3.9388,-3.9388,-3.9337,-3.9228,-3.9265,-3.9265,-3.9192,-3.9265,-3.9337,-3.9388,-3.9388,-3.9418,-3.9367,-3.9301,-3.9301,-3.9569,-3.9928,-4.0278,-4.063,-4.0651,-4.0153,-3.8967,-3.859,-3.798,-3.6669,-3.6488,-3.6467,-3.62,-3.6157,-3.6241,-3.5918,-3.5445,-3.4839,-3.4161,-3.3734,-3.3325,-3.3262,-3.3124,-3.3124,-3.3124,-3.3124,-3.3124,-3.3111,-3.3048,-3.293,-3.2654,-3.2604,-3.2453,-3.229,-3.2256,-3.2181,-3.2143,-3.2064,-3.2064,-3.2039,-3.2114,-3.2294,-3.2332,-3.2102,-3.165,-3.1615,-3.1289,-3.1185,-3.1185,-3.0997,-3.0959,-3.0859,-3.0758,-3.0658,-3.0281,-2.998,-2.9892,-2.9779,-2.9779,-2.9779,-2.9779,-2.9779,-2.9779,-2.9779,-2.9779,-2.9779,-2.9779,-2.9779,-2.9779,-2.9779,-2.9779,-2.9779,-2.9779,-2.9779,-2.9779,-2.9779,-2.9779,-2.9779,-2.9779,-2.9779,-2.9779,-2.9779,-2.9779,-2.9779,-2.9779,-2.9779,-2.9779,-2.9779,-2.9779,-2.9779,-2.9779,-2.9779,-2.9779,-3.7838,-3.8452,-3.9035,-3.9349,-3.9424,-3.9388,-3.9388,-3.9388,-3.9388,-3.9388,-3.9388,-3.9228,-3.9265,-3.9265,-3.9228,-3.9301,-3.9352,-3.9388,-3.9388,-3.9388,-3.9388,-3.9388,-3.9568,-3.9911,-3.9988,-3.9997,-4.0032,-3.9667,-3.8933,-3.8427,-3.7603,-3.6652,-3.6451,-3.6438,-3.5957,-3.5931,-3.6107,-3.583,-3.5391,-3.4788,-3.4412,-3.411,-3.3533,-3.3237,-3.3124,-3.3124,-3.3124,-3.3124,-3.3124,-3.3124,-3.3124,-3.3074,-3.3048,-3.2986,-3.3011,-3.2885,-3.2847,-3.2885,-3.2948,-3.2898,-3.2948,-3.3036,-3.3124,-3.3111,-3.3061,-3.2835,-3.2382,-3.2131,-3.1804,-3.1637,-3.1637,-3.1524,-3.1512,-3.1436,-3.1348,-3.121,-3.0733,-3.0306,-3.0168,-3.0018,-2.9967,-2.9967,-2.9917,-2.9917,-2.9829,-2.9817,-2.9817,-2.9792,-2.9779,-2.9779,-2.9779,-2.9779,-2.9779,-2.9779,-2.9779,-2.9779,-2.9779,-2.9779,-2.9779,-2.9779,-2.9779,-2.9779,-2.9779,-2.9779,-2.9779,-2.9779,-2.9779,-2.9779,-2.9779,-2.9779,-2.9779,-2.9779,-2.9779,-2.9779,-2.9779,-3.7793,-3.8392,-3.8542,-3.8886,-3.9328,-3.9373,-3.9388,-3.9388,-3.9388,-3.9388,-3.9388,-3.9388,-3.9388,-3.9388,-3.9388,-3.9388,-3.9388,-3.9388,-3.9388,-3.9388,-3.9388,-3.9388,-3.9448,-3.9642,-3.9439,-3.937,-3.9201,-3.8514,-3.8306,-3.7572,-3.6601,-3.5594,-3.5955,-3.594,-3.5638,-3.5717,-3.5755,-3.5554,-3.5203,-3.46,-3.4048,-3.3684,-3.3338,-3.3136,-3.3124,-3.3124,-3.3124,-3.3124,-3.3124,-3.3124,-3.3124,-3.3124,-3.3124,-3.3124,-3.3124,-3.3124,-3.3124,-3.3124,-3.3124,-3.3124,-3.3124,-3.3124,-3.3124,-3.3124,-3.3099,-3.3086,-3.2822,-3.2822,-3.2608,-3.2608,-3.2503,-3.2177,-3.2064,-3.1901,-3.1775,-3.1549,-3.1198,-3.1047,-3.0947,-3.0771,-3.0633,-3.0557,-3.0444,-3.0306,-3.0005,-3.0018,-3.0043,-3.003,-3.008,-2.9967,-2.988,-2.9867,-2.9892,-2.9779,-2.9779,-2.9779,-2.9779,-2.9779,-2.9779,-2.9779,-2.9779,-2.9779,-2.9779,-2.9779,-2.9779,-2.9779,-2.9779,-2.9779,-2.9779,-2.9779,-2.9779,-2.9779,-2.9779,-2.9779,-2.9779]},{"header":{"parameterUnit":"m.s-1","parameterCategory":1,"la1":31.0,"la2":29.5877,"lo1":-88.7671,"lo2":-86.6584,"dy":0.0162,"dx":0.0185,"nx":115,"ny":88,"refTime":"2023-06-21T12:00:00:Z","depth":0,"parameterNumber":3,"parameterNumberName":"V-component_of_WINDS"},"data":[0.0,0.0,0.0,0.0,0.0,0.0,0.0,0.0,0.0,0.0,0.0,0.0,0.0,0.0,0.0,0.0,0.0,0.0,0.0,0.0,0.0,0.0,0.0,0.0,0.0,0.0,0.0,0.0,0.0,0.0,0.0,0.0,0.0,0.0,0.0,0.0,0.0,0.0,0.0,0.0,0.0,0.0,0.0,0.0,0.0,0.0,0.0,0.0,0.0,0.0,0.0,0.0,0.0,0.0,0.0,0.0,0.0,0.0,0.0,0.0,0.0,0.0,0.0,0.0,0.0,0.0,0.0,0.0,0.0,0.0,0.0,0.0,0.0,0.0,0.0,0.0,0.0,0.0,0.0,0.0,0.0,0.0,0.0,0.0,0.0,0.0,0.0,0.0,0.0,0.0,0.0,0.0,0.0,0.0,0.0,0.0,0.0,0.0,0.0,0.0,0.0,0.0,0.0,0.0,0.0,0.0,0.0,0.0,0.0,0.0,0.0,0.0,0.0,0.0,0.0,0.0,0.0,0.0,0.0,0.0,0.0,0.0,0.0,0.0,0.0,0.0,0.0,0.0,0.0,0.0,0.0,0.0,0.0,0.0,0.0,0.0,0.0,0.0,0.0,0.0,0.0,0.0,0.0,0.0,0.0,0.0,0.0,0.0,0.0,0.0,0.0,0.0,0.0,0.0,0.0,0.0,0.0,0.0,0.0,0.0,0.0,0.0,0.0,0.0,0.0,0.0,0.0,0.0,0.0,0.0,0.0,0.0,0.0,0.0,0.0,0.0,0.0,0.0,0.0,0.0,0.0,0.0,0.0,0.0,0.0,0.0,0.0,0.0,0.0,0.0,0.0,0.0,0.0,0.0,0.0,0.0,0.0,0.0,0.0,0.0,0.0,0.0,0.0,0.0,0.0,0.0,0.0,0.0,0.0,0.0,0.0,0.0,0.0,0.0,0.0,0.0,0.0,0.0,0.0,0.0,0.0,0.0,0.0,0.0,0.0,0.0,0.0,0.0,0.0,0.0,0.0,0.0,0.0,0.0,0.0,0.0,0.0,0.0,0.0,0.0,0.0,0.0,0.0,0.0,0.0,0.0,0.0,0.0,0.0,0.0,0.0,0.0,0.0,0.0,0.0,0.0,0.0,0.0,0.0,0.0,0.0,0.0,0.0,0.0,0.0,0.0,0.0,0.0,0.0,0.0,0.0,0.0,0.0,0.0,0.0,0.0,0.0,0.0,0.0,0.0,0.0,0.0,0.0,0.0,0.0,0.0,0.0,0.0,0.0,0.0,0.0,0.0,0.0,0.0,0.0,0.0,0.0,0.0,0.0,0.0,0.0,0.0,0.0,0.0,0.0,0.0,0.0,0.0,0.0,0.0,0.0,0.0,0.0,0.0,0.0,0.0,0.0,0.0,0.0,0.0,0.0,0.0,0.0,0.0,0.0,0.0,0.0,0.0,0.0,0.0,0.0,0.0,0.0,0.0,0.0,0.0,0.0,0.0,0.0,0.0,0.0,0.0,0.0,0.0,0.0,0.0,0.0,0.0,0.0,0.0,0.0,0.0,0.0,0.0,0.0,0.0,0.0,0.0,0.0,0.0,0.0,0.0,0.0,0.0,0.0,0.0,0.0,0.0,0.0,0.0,0.0,0.0,0.0,0.0,0.0,0.0,0.0,0.0,0.0,0.0,0.0,0.0,0.0,0.0,0.0,0.0,0.0,0.0,0.0,0.0,0.0,0.0,0.0,0.0,0.0,0.0,0.0,0.0,0.0,0.0,0.0,0.0,0.0,0.0,0.0,0.0,0.0,0.0,0.0,0.0,0.0,0.0,0.0,0.0,0.0,0.0,0.0,0.0,0.0,0.0,0.0,0.0,0.0,0.0,0.0,0.0,0.0,0.0,0.0,0.0,0.0,0.0,0.0,0.0,0.0,0.0,0.0,0.0,0.0,0.0,0.0,0.0,0.0,0.0,0.0,0.0,0.0,0.0,0.0,0.0,0.0,0.0,0.0,0.0,0.0,0.0,0.0,0.0,0.0,0.0,0.0,0.0,0.0,0.0,0.0,0.0,0.0,0.0,0.0,0.0,0.0,0.0,0.0,0.0,0.0,0.0,0.0,0.0,0.0,0.0,0.0,0.0,0.0,0.0,0.0,0.0,0.0,0.0,0.0,0.0,0.0,0.0,0.0,0.0,0.0,0.0,0.0,0.0,0.0,0.0,0.0,0.0,0.0,0.0,0.0,0.0,0.0,0.0,0.0,0.0,0.0,0.0,0.0,0.0,0.0,0.0,0.0,0.0,0.0,0.0,0.0,0.0,0.0,0.0,0.0,0.0,0.0,0.0,0.0,0.0,0.0,0.0,0.0,0.0,0.0,0.0,0.0,0.0,0.0,0.0,0.0,0.0,0.0,0.0,0.0,0.0,0.0,0.0,0.0,0.0,0.0,0.0,0.0,0.0,0.0,0.0,0.0,0.0,0.0,0.0,0.0,0.0,0.0,0.0,0.0,0.0,0.0,0.0,0.0,0.0,0.0,0.0,0.0,0.0,0.0,0.0,0.0,0.0,0.0,0.0,0.0,0.0,0.0,0.0,0.0,0.0,0.0,0.0,0.0,0.0,0.0,0.0,0.0,0.0,0.0,0.0,0.0,0.0,0.0,0.0,0.0,0.0,0.0,0.0,0.0,0.0,0.0,0.0,0.0,0.0,0.0,0.0,0.0,0.0,0.0,0.0,0.0,0.0,0.0,0.0,0.0,0.0,0.0,0.0,0.0,0.0,0.0,0.0,0.0,0.0,0.0,0.0,0.0,0.0,0.0,0.0,0.0,0.0,0.0,0.0,0.0,0.0,0.0,0.0,0.0,0.0,0.0,0.0,0.0,0.0,0.0,0.0,0.0,0.0,0.0,0.0,0.0,0.0,0.0,0.0,0.0,0.0,0.0,0.0,0.0,0.0,0.0,0.0,0.0,0.0,0.0,0.0,0.0,0.0,0.0,0.0,0.0,0.0,0.0,0.0,0.0,0.0,0.0,0.0,0.0,0.0,0.0,0.0,0.0,0.0,0.0,0.0,0.0,0.0,0.0,0.0,0.0,0.0,0.0,0.0,0.0,0.0,0.0,0.0,0.0,0.0,0.0,0.0,0.0,0.0,0.0,0.0,0.0,0.0,0.0,0.0,0.0,0.0,0.0,0.0,0.0,0.0,0.0,0.0,0.0,0.0,0.0,0.0,0.0,0.0,0.0,0.0,0.0,0.0,0.0,0.0,0.0,0.0,0.0,0.0,0.0,0.0,0.0,0.0,0.0,0.0,0.0,0.0,0.0,0.0,0.0,0.0,0.0,0.0,0.0,0.0,0.0,0.0,0.0,0.0,0.0,0.0,0.0,0.0,0.0,0.0,0.0,0.0,0.0,0.0,0.0,0.0,0.0,0.0,0.0,0.0,0.0,0.0,0.0,0.0,0.0,0.0,0.0,0.0,0.0,0.0,0.0,0.0,0.0,0.0,0.0,0.0,0.0,0.0,0.0,0.0,0.0,0.0,0.0,0.0,0.0,0.0,0.0,0.0,0.0,0.0,0.0,0.0,0.0,0.0,0.0,0.0,0.0,0.0,0.0,0.0,0.0,0.0,0.0,0.0,0.0,0.0,0.0,0.0,0.0,0.0,0.0,0.0,0.0,0.0,0.0,0.0,0.0,0.0,0.0,0.0,0.0,0.0,0.0,0.0,0.0,0.0,0.0,0.0,0.0,0.0,0.0,0.0,0.0,0.0,0.0,0.0,0.0,0.0,0.0,0.0,0.0,0.0,0.0,0.0,0.0,0.0,0.0,0.0,0.0,0.0,0.0,0.0,0.0,0.0,0.0,0.0,0.0,0.0,0.0,0.0,0.0,0.0,0.0,0.0,0.0,0.0,0.0,0.0,0.0,0.0,0.0,0.0,0.0,0.0,0.0,0.0,0.0,0.0,0.0,0.0,0.0,0.0,0.0,0.0,0.0,0.0,0.0,0.0,0.0,0.0,0.0,0.0,0.0,0.0,0.0,0.0,0.0,0.0,0.0,0.0,0.0,0.0,0.0,0.0,0.0,0.0,0.0,0.0,0.0,0.0,0.0,0.0,0.0,0.0,0.0,0.0,0.0,0.0,0.0,0.0,0.0,0.0,0.0,0.0,0.0,0.0,0.0,0.0,0.0,0.0,0.0,0.0,0.0,0.0,0.0,0.0,0.0,0.0,0.0,0.0,0.0,0.0,0.0,0.0,0.0,0.0,0.0,0.0,0.0,0.0,-0.3026,0.0,0.0,0.0,0.0,0.0,0.0,0.0,0.0,0.0,0.0,0.0,0.0,0.0,0.0,0.0,0.0,0.0,0.0,0.0,0.0,0.0,0.0,0.0,0.0,0.0,0.0,0.0,0.0,0.0,0.0,0.0,0.0,0.0,0.0,0.0,0.0,0.0,0.0,0.0,0.0,0.0,0.0,0.0,0.0,0.0,0.0,0.0,0.0,0.0,0.0,0.0,0.0,0.0,0.0,0.0,0.0,0.0,0.0,0.0,0.0,0.0,0.0,0.0,0.0,0.0,0.0,0.0,0.0,0.0,0.0,0.0,0.0,0.0,0.0,0.0,0.0,0.0,0.0,0.0,0.0,0.0,0.0,0.0,0.0,0.0,0.0,0.0,0.0,0.0,0.0,0.0,0.0,0.0,0.0,0.0,0.0,0.0,0.0,0.0,0.0,0.0,0.0,0.0,0.0,0.0,0.0,0.0,0.0,0.0,0.0,-0.3546,-0.3252,-0.3153,-0.3177,-0.3311,0.0,0.0,0.0,0.0,0.0,0.0,0.0,0.0,0.0,0.0,0.0,0.0,0.0,0.0,0.0,0.0,0.0,0.0,0.0,0.0,0.0,0.0,0.0,0.0,0.0,0.0,0.0,0.0,0.0,0.0,0.0,0.0,0.0,0.0,0.0,0.0,0.0,0.0,0.0,0.0,0.0,0.0,0.0,0.0,0.0,0.0,0.0,0.0,0.0,0.0,0.0,0.0,0.0,0.0,0.0,0.0,0.0,0.0,0.0,0.0,0.0,0.0,0.0,0.0,0.0,0.0,0.0,0.0,0.0,0.0,0.0,0.0,0.0,0.0,0.0,0.0,0.0,0.0,0.0,0.0,0.0,0.0,0.0,0.0,0.0,0.0,0.0,0.0,0.0,0.0,0.0,0.0,0.0,0.0,0.0,0.0,0.0,0.0,0.0,0.0,0.0,0.0,0.0,0.0,0.0,0.0,0.0,0.0,0.0,0.0,0.0,0.0,-0.3286,-0.329,-0.3451,0.0,0.0,0.0,0.0,0.0,0.0,0.0,0.0,0.0,0.0,0.0,0.0,0.0,0.0,0.0,0.0,0.0,0.0,0.0,0.0,0.0,0.0,0.0,0.0,0.0,0.0,0.0,0.0,0.0,0.0,0.0,0.0,0.0,0.0,0.0,0.0,0.0,0.0,0.0,0.0,0.0,0.0,0.0,0.0,0.0,0.0,0.0,0.0,0.0,0.0,0.0,0.0,0.0,0.0,0.0,0.0,0.0,0.0,0.0,0.0,0.0,0.0,0.0,0.0,0.0,0.0,0.0,0.0,0.0,0.0,0.0,0.0,0.0,0.0,0.0,0.0,0.0,0.0,0.0,0.0,0.0,0.0,0.0,0.0,0.0,0.0,0.0,0.0,0.0,0.0,0.0,0.0,0.0,0.0,0.0,0.0,0.0,0.0,0.0,0.0,0.0,0.0,0.0,0.0,0.0,0.0,0.0,0.0,0.0,0.0,-0.3609,-0.3066,-0.3209,0.0,-0.3345,0.0,0.0,0.0,0.0,0.0,0.0,0.0,0.0,0.0,0.0,0.0,0.0,0.0,0.0,0.0,0.0,0.0,0.0,0.0,0.0,0.0,0.0,0.0,0.0,0.0,0.0,0.0,0.0,0.0,0.0,0.0,0.0,0.0,0.0,0.0,0.0,0.0,0.0,0.0,0.0,0.0,0.0,0.0,0.0,0.0,0.0,0.0,0.0,0.0,0.0,0.0,0.0,0.0,0.0,0.0,0.0,0.0,0.0,0.0,0.0,0.0,0.0,0.0,0.0,0.0,0.0,0.0,0.0,0.0,0.0,0.0,0.0,0.0,0.0,0.0,0.0,0.0,0.0,0.0,0.0,0.0,0.0,0.0,0.0,0.0,0.0,0.0,0.0,0.0,0.0,0.0,0.0,0.0,0.0,0.0,0.0,0.0,0.0,0.0,0.0,0.0,0.0,0.0,0.0,0.0,0.0,0.0,0.0,0.0,0.0,-0.3665,-0.3415,-0.3568,-0.3661,0.0,0.0,0.0,0.0,0.0,0.0,0.0,0.0,0.0,0.0,0.0,0.0,0.0,0.0,0.0,0.0,0.0,0.0,0.0,0.0,0.0,0.0,0.0,0.0,0.0,0.0,0.0,0.0,0.0,0.0,0.0,0.0,0.0,0.0,0.0,0.0,0.0,0.0,0.0,0.0,0.0,0.0,0.0,0.0,0.0,0.0,0.0,0.0,0.0,0.0,0.0,0.0,0.0,0.0,0.0,0.0,0.0,0.0,0.0,0.0,0.0,0.0,0.0,0.0,0.0,0.0,0.0,0.0,0.0,0.0,0.0,0.0,0.0,0.0,0.0,0.0,0.0,0.0,0.0,0.0,0.0,0.0,0.0,0.0,0.0,0.0,0.0,0.0,0.0,0.0,0.0,0.0,0.0,0.0,0.0,0.0,0.0,0.0,0.0,0.0,0.0,0.0,0.0,0.0,0.0,0.0,0.0,0.0,0.0,0.0,-0.3548,-0.3642,-0.3636,-0.3753,-0.3825,-0.3864,0.0,0.0,0.0,0.0,0.0,0.0,0.0,0.0,0.0,0.0,0.0,0.0,0.0,0.0,0.0,0.0,0.0,0.0,0.0,0.0,0.0,0.0,0.0,0.0,0.0,0.0,0.0,0.0,0.0,0.0,0.0,0.0,0.0,0.0,0.0,0.0,0.0,0.0,0.0,0.0,0.0,0.0,0.0,0.0,0.0,0.0,0.0,0.0,0.0,0.0,0.0,0.0,0.0,0.0,0.0,0.0,0.0,0.0,0.0,0.0,0.0,0.0,0.0,0.0,0.0,0.0,0.0,0.0,0.0,0.0,0.0,0.0,0.0,0.0,0.0,0.0,0.0,0.0,0.0,0.0,0.0,0.0,0.0,0.0,0.0,0.0,0.0,0.0,0.0,0.0,0.0,0.0,0.0,0.0,0.0,0.0,0.0,0.0,0.0,0.0,0.0,0.0,0.0,0.0,0.0,0.0,0.0,0.0,-0.3309,-0.3435,-0.3483,-0.3422,-0.3531,-0.3675,0.0,0.0,0.0,0.0,0.0,0.0,0.0,0.0,0.0,0.0,0.0,0.0,0.0,0.0,0.0,0.0,0.0,0.0,0.0,0.0,0.0,0.0,0.0,0.0,0.0,0.0,0.0,0.0,0.0,0.0,0.0,0.0,0.0,0.0,0.0,0.0,0.0,0.0,0.0,0.0,0.0,0.0,0.0,0.0,0.0,0.0,0.0,0.0,0.0,0.0,0.0,0.0,0.0,0.0,0.0,0.0,0.0,0.0,0.0,0.0,0.0,0.0,0.0,0.0,0.0,0.0,0.0,0.0,0.0,0.0,0.0,0.0,0.0,0.0,0.0,0.0,0.0,0.0,0.0,0.0,0.0,0.0,0.0,0.0,0.0,0.0,0.0,0.0,0.0,0.0,0.0,0.0,0.0,0.0,0.0,0.0,0.0,0.0,0.0,0.0,0.0,0.0,0.0,0.0,0.0,0.0,0.0,0.0,0.0,-0.3428,-0.3425,-0.3402,-0.3352,-0.3425,-0.3614,0.0,0.0,0.0,0.0,0.0,0.0,0.0,0.0,0.0,0.0,0.0,0.0,0.0,0.0,0.0,0.0,0.0,0.0,0.0,0.0,0.0,0.0,0.0,0.0,0.0,0.0,0.0,0.0,0.0,0.0,0.0,0.0,0.0,0.0,0.0,0.0,0.0,0.0,0.0,0.0,0.0,0.0,0.0,0.0,0.0,0.0,0.0,0.0,0.0,0.0,0.0,0.0,0.0,0.0,0.0,0.0,0.0,0.0,0.0,0.0,0.0,0.0,0.0,0.0,0.0,0.0,0.0,0.0,0.0,0.0,0.0,0.0,0.0,0.0,0.0,0.0,0.0,0.0,0.0,0.0,0.0,0.0,0.0,0.0,0.0,0.0,0.0,0.0,0.0,0.0,0.0,0.0,0.0,0.0,0.0,0.0,0.0,0.0,0.0,0.0,0.0,0.0,0.0,0.0,0.0,0.0,0.0,0.0,0.0,-0.3552,0.0,-0.344,-0.3402,-0.3634,-0.3913,0.0,0.0,0.0,0.0,0.0,0.0,0.0,0.0,0.0,0.0,0.0,0.0,0.0,0.0,0.0,0.0,0.0,0.0,0.0,0.0,0.0,0.0,0.0,0.0,0.0,0.0,0.0,0.0,0.0,0.0,0.0,0.0,0.0,0.0,0.0,0.0,0.0,0.0,0.0,0.0,0.0,0.0,0.0,0.0,0.0,0.0,0.0,0.0,0.0,0.0,0.0,0.0,0.0,0.0,0.0,0.0,0.0,0.0,0.0,0.0,0.0,0.0,0.0,0.0,0.0,0.0,0.0,0.0,0.0,0.0,0.0,0.0,0.0,0.0,0.0,0.0,0.0,0.0,0.0,0.0,0.0,0.0,0.0,0.0,0.0,0.0,0.0,0.0,0.0,0.0,0.0,0.0,0.0,0.0,0.0,0.0,0.0,0.0,0.0,0.0,0.0,0.0,0.0,0.0,0.0,0.0,0.0,0.0,-0.3884,-0.3727,-0.3682,-0.3653,-0.3622,-0.4178,-0.4519,0.0,0.0,0.0,0.0,0.0,0.0,0.0,0.0,0.0,0.0,0.0,0.0,0.0,0.0,0.0,0.0,0.0,0.0,0.0,0.0,0.0,0.0,0.0,0.0,0.0,0.0,0.0,0.0,0.0,0.0,0.0,0.0,0.0,0.0,0.0,0.0,0.0,0.0,0.0,0.0,0.0,0.0,0.0,0.0,0.0,0.0,0.0,0.0,0.0,0.0,0.0,0.0,0.0,0.0,0.0,0.0,0.0,0.0,0.0,0.0,0.0,0.0,0.0,0.0,0.0,0.0,0.0,0.0,0.0,0.0,0.0,0.0,0.0,0.0,0.0,0.0,0.0,0.0,0.0,0.0,0.0,0.0,0.0,0.0,0.0,0.0,0.0,0.0,0.0,0.0,0.0,0.0,0.0,0.0,0.0,0.0,0.0,0.0,0.0,0.0,0.0,0.0,0.0,0.0,0.0,0.0,0.0,0.0,0.0,-0.4421,-0.4595,-0.4669,-0.458,-0.4705,-0.4937,0.0,0.0,0.0,0.0,0.0,0.0,0.0,0.0,0.0,0.0,0.0,0.0,0.0,0.0,0.0,0.0,0.0,0.0,0.0,0.0,0.0,0.0,0.0,0.0,0.0,0.0,0.0,0.0,0.0,0.0,0.0,0.0,0.0,0.0,0.0,0.0,0.0,0.0,0.0,0.0,0.0,0.0,0.0,0.0,0.0,0.0,0.0,0.0,0.0,0.0,0.0,0.0,0.0,0.0,0.0,0.0,0.0,0.0,0.0,0.0,0.0,0.0,0.0,0.0,0.0,0.0,0.0,0.0,0.0,0.0,0.0,0.0,0.0,0.0,0.0,0.0,0.0,0.0,0.0,0.0,0.0,0.0,0.0,0.0,0.0,0.0,0.0,0.0,0.0,0.0,0.0,0.0,0.0,0.0,0.0,0.0,0.0,0.0,0.0,0.0,0.0,0.0,0.0,0.0,0.0,0.0,0.0,0.0,0.0,-0.6617,-0.6315,-0.6015,-0.5718,-0.575,-0.5733,-0.5722,0.0,0.0,0.0,0.0,0.0,0.0,0.0,0.0,0.0,0.0,0.0,0.0,0.0,0.0,0.0,0.0,0.0,0.0,0.0,0.0,0.0,0.0,0.0,0.0,0.0,0.0,0.0,0.0,0.0,0.0,0.0,0.0,0.0,0.0,0.0,0.0,0.0,0.0,0.0,0.0,0.0,0.0,0.0,0.0,0.0,0.0,0.0,0.0,0.0,0.0,0.0,0.0,0.0,0.0,0.0,0.0,0.0,0.0,0.0,0.0,0.0,0.0,0.0,0.0,0.0,0.0,0.0,0.0,0.0,0.0,0.0,0.0,0.0,0.0,0.0,0.0,0.0,0.0,0.0,0.0,0.0,0.0,0.0,0.0,0.0,0.0,0.0,0.0,0.0,0.0,0.0,0.0,0.0,0.0,0.0,0.0,0.0,0.0,0.0,0.0,0.0,0.0,0.0,0.0,0.0,0.0,0.0,0.0,-0.9997,-0.8836,-0.79,-0.718,-0.7288,-0.6988,0.0,0.0,0.0,0.0,0.0,0.0,0.0,0.0,0.0,0.0,0.0,0.0,0.0,0.0,0.0,0.0,0.0,0.0,0.0,0.0,0.0,0.0,0.0,0.0,0.0,0.0,0.0,0.0,0.0,0.0,0.0,0.0,0.0,0.0,0.0,0.0,0.0,0.0,0.0,0.0,0.0,0.0,0.0,0.0,0.0,0.0,0.0,0.0,0.0,0.0,0.0,0.0,0.0,0.0,0.0,0.0,0.0,0.0,0.0,0.0,0.0,0.0,0.0,0.0,0.0,0.0,0.0,0.0,0.0,0.0,0.0,0.0,0.0,0.0,0.0,0.0,0.0,0.0,0.0,0.0,0.0,0.0,0.0,0.0,0.0,0.0,0.0,0.0,0.0,0.0,0.0,0.0,0.0,0.0,0.0,0.0,0.0,0.0,0.0,0.0,0.0,0.0,0.0,0.0,0.0,0.0,0.0,0.0,0.0,-1.2274,-1.2947,-1.2166,-0.9864,-0.9304,-0.8615,0.0,0.0,0.0,0.0,0.0,0.0,0.0,0.0,0.0,0.0,0.0,0.0,0.0,0.0,0.0,0.0,0.0,0.0,0.0,0.0,0.0,0.0,0.0,0.0,0.0,0.0,0.0,0.0,0.0,0.0,0.0,0.0,0.0,0.0,0.0,0.0,0.0,0.0,0.0,0.0,0.0,0.0,0.0,0.0,0.0,0.0,0.0,0.0,0.0,0.0,0.0,0.0,0.0,0.0,0.0,0.0,0.0,0.0,0.0,0.0,0.0,0.0,0.0,0.0,0.0,0.0,0.0,0.0,0.0,0.0,0.0,0.0,0.0,0.0,0.0,0.0,0.0,0.0,0.0,0.0,0.0,0.0,0.0,0.0,0.0,0.0,0.0,0.0,0.0,0.0,0.0,0.0,0.0,0.0,0.0,0.0,0.0,0.0,0.0,0.0,0.0,0.0,0.0,0.0,0.0,0.0,0.0,0.0,-1.2926,-1.4176,-1.5938,-1.5767,-1.3465,-1.1739,-1.0279,0.0,0.0,0.0,0.0,0.0,0.0,0.0,0.0,0.0,0.0,0.0,0.0,0.0,0.0,0.0,0.0,0.0,0.0,0.0,0.0,0.0,0.0,0.0,0.0,0.0,0.0,0.0,0.0,0.0,0.0,0.0,0.0,0.0,0.0,0.0,0.0,0.0,0.0,0.0,0.0,0.0,0.0,0.0,0.0,0.0,0.0,0.0,0.0,0.0,0.0,0.0,0.0,0.0,0.0,0.0,0.0,0.0,0.0,0.0,0.0,0.0,0.0,0.0,0.0,0.0,0.0,0.0,0.0,0.0,0.0,0.0,0.0,0.0,0.0,0.0,0.0,0.0,0.0,0.0,0.0,0.0,0.0,0.0,0.0,0.0,0.0,0.0,0.0,0.0,0.0,0.0,0.0,0.0,0.0,0.0,0.0,0.0,0.0,0.0,0.0,0.0,0.0,0.0,0.0,0.0,0.0,0.0,0.0,-1.4885,-1.5794,-1.812,-1.8653,-1.7202,-1.4269,-1.1994,0.0,0.0,0.0,0.0,0.0,0.0,0.0,0.0,0.0,0.0,0.0,0.0,0.0,0.0,0.0,0.0,0.0,0.0,0.0,0.0,0.0,0.0,0.0,0.0,0.0,0.0,0.0,0.0,0.0,0.0,0.0,0.0,0.0,0.0,0.0,0.0,0.0,0.0,0.0,0.0,0.0,0.0,0.0,0.0,0.0,0.0,0.0,0.0,0.0,0.0,0.0,0.0,0.0,0.0,0.0,0.0,0.0,0.0,0.0,0.0,0.0,0.0,0.0,0.0,0.0,0.0,0.0,0.0,0.0,0.0,0.0,0.0,0.0,0.0,0.0,0.0,0.0,0.0,0.0,0.0,0.0,0.0,0.0,0.0,0.0,0.0,0.0,0.0,0.0,0.0,0.0,0.0,0.0,0.0,0.0,0.0,0.0,0.0,0.0,0.0,0.0,0.0,0.0,0.0,0.0,0.0,0.0,0.0,-1.6086,-1.7703,-1.9446,-1.9832,-1.8753,-1.5998,-1.359,0.0,0.0,0.0,0.0,0.0,0.0,0.0,0.0,0.0,0.0,0.0,0.0,0.0,0.0,0.0,0.0,0.0,0.0,0.0,0.0,0.0,0.0,0.0,0.0,0.0,0.0,0.0,0.0,0.0,0.0,0.0,0.0,0.0,0.0,0.0,0.0,0.0,0.0,0.0,0.0,0.0,0.0,0.0,0.0,0.0,0.0,0.0,0.0,-1.2482,0.0,0.0,0.0,0.0,0.0,0.0,0.0,0.0,0.0,0.0,0.0,0.0,0.0,0.0,0.0,0.0,0.0,0.0,0.0,0.0,0.0,0.0,0.0,0.0,0.0,0.0,0.0,0.0,0.0,0.0,0.0,0.0,0.0,0.0,0.0,0.0,0.0,0.0,0.0,0.0,0.0,0.0,0.0,0.0,0.0,0.0,0.0,0.0,0.0,0.0,0.0,0.0,0.0,0.0,0.0,0.0,0.0,0.0,0.0,-1.7376,-1.9271,-2.0654,-2.0909,-1.989,-1.8057,-1.5692,0.0,0.0,0.0,0.0,0.0,0.0,0.0,0.0,0.0,0.0,0.0,0.0,0.0,0.0,0.0,0.0,0.0,0.0,0.0,0.0,0.0,0.0,0.0,0.0,0.0,0.0,0.0,0.0,0.0,0.0,0.0,0.0,0.0,0.0,0.0,0.0,0.0,0.0,0.0,0.0,0.0,0.0,0.0,0.0,0.0,0.0,0.0,0.0,0.0,0.0,0.0,0.0,0.0,0.0,0.0,0.0,0.0,0.0,0.0,0.0,0.0,0.0,0.0,0.0,0.0,0.0,0.0,0.0,0.0,0.0,0.0,0.0,0.0,0.0,0.0,0.0,0.0,0.0,0.0,0.0,0.0,0.0,0.0,0.0,0.0,0.0,0.0,0.0,0.0,0.0,0.0,0.0,0.0,0.0,0.0,0.0,0.0,0.0,0.0,0.0,0.0,0.0,0.0,0.0,0.0,0.0,0.0,-1.6288,-1.8467,-2.0309,-2.1397,-2.1537,-2.0644,-1.9662,-1.749,-1.4018,0.0,0.0,0.0,0.0,0.0,0.0,0.0,0.0,0.0,0.0,0.0,0.0,0.0,0.0,0.0,0.0,0.0,0.0,0.0,0.0,0.0,0.0,0.0,0.0,0.0,0.0,0.0,0.0,0.0,0.0,0.0,0.0,0.0,0.0,0.0,0.0,0.0,0.0,-1.0377,-1.1207,0.0,0.0,0.0,0.0,0.0,0.0,0.0,0.0,-1.2971,0.0,0.0,0.0,0.0,0.0,0.0,0.0,0.0,0.0,0.0,0.0,0.0,0.0,0.0,0.0,0.0,0.0,0.0,0.0,0.0,0.0,0.0,0.0,0.0,0.0,0.0,0.0,0.0,0.0,0.0,0.0,0.0,0.0,0.0,0.0,0.0,0.0,0.0,0.0,0.0,0.0,0.0,0.0,0.0,0.0,0.0,0.0,0.0,0.0,0.0,0.0,0.0,0.0,0.0,0.0,0.0,-1.4624,-1.6634,-1.8505,-2.0181,-2.0857,-2.0918,-2.0356,-1.914,-1.7539,-1.559,0.0,0.0,0.0,0.0,0.0,0.0,0.0,0.0,0.0,0.0,0.0,0.0,0.0,0.0,0.0,0.0,0.0,0.0,0.0,0.0,0.0,0.0,0.0,0.0,0.0,0.0,0.0,0.0,0.0,0.0,0.0,0.0,0.0,0.0,0.0,0.0,0.0,0.0,0.0,-1.139,-1.2099,0.0,0.0,0.0,0.0,0.0,0.0,0.0,0.0,-1.4481,0.0,0.0,0.0,0.0,0.0,0.0,0.0,0.0,0.0,0.0,0.0,0.0,0.0,0.0,0.0,0.0,0.0,0.0,0.0,0.0,0.0,0.0,0.0,0.0,0.0,0.0,0.0,0.0,0.0,0.0,0.0,0.0,0.0,0.0,0.0,0.0,0.0,0.0,0.0,0.0,0.0,0.0,0.0,0.0,0.0,0.0,0.0,0.0,0.0,0.0,0.0,0.0,0.0,0.0,0.0,-1.5269,-1.7221,-1.9132,-2.0962,-2.1285,-2.1215,-2.0766,-1.972,-1.8158,0.0,0.0,0.0,0.0,0.0,0.0,0.0,0.0,0.0,0.0,0.0,0.0,0.0,0.0,0.0,0.0,0.0,0.0,0.0,0.0,0.0,0.0,0.0,0.0,0.0,0.0,0.0,0.0,0.0,0.0,0.0,0.0,0.0,0.0,0.0,0.0,0.0,0.0,0.0,0.0,-1.2114,-1.2824,-1.3382,0.0,0.0,0.0,0.0,0.0,0.0,-1.4785,-1.5105,0.0,0.0,0.0,0.0,0.0,0.0,0.0,0.0,0.0,0.0,0.0,0.0,0.0,0.0,0.0,0.0,0.0,0.0,0.0,0.0,0.0,0.0,0.0,0.0,0.0,0.0,0.0,0.0,0.0,0.0,0.0,0.0,0.0,0.0,0.0,0.0,0.0,0.0,0.0,0.0,0.0,0.0,0.0,0.0,0.0,0.0,0.0,0.0,0.0,0.0,0.0,0.0,0.0,0.0,0.0,-1.595,-1.7792,-1.9629,-2.1344,-2.145,-2.13,-2.0976,-2.008,-1.862,0.0,0.0,0.0,0.0,0.0,0.0,0.0,0.0,0.0,0.0,0.0,0.0,0.0,0.0,0.0,0.0,0.0,0.0,0.0,0.0,0.0,0.0,0.0,0.0,0.0,0.0,0.0,0.0,0.0,0.0,0.0,0.0,0.0,0.0,0.0,0.0,0.0,0.0,0.0,0.0,0.0,-1.3678,-1.4032,-1.386,0.0,0.0,0.0,0.0,-1.5352,-1.5598,0.0,0.0,0.0,0.0,0.0,0.0,0.0,0.0,0.0,0.0,0.0,0.0,0.0,0.0,0.0,0.0,0.0,0.0,0.0,0.0,0.0,0.0,0.0,0.0,0.0,0.0,0.0,0.0,0.0,0.0,0.0,0.0,0.0,0.0,0.0,0.0,0.0,0.0,0.0,0.0,0.0,0.0,0.0,0.0,0.0,0.0,0.0,0.0,0.0,0.0,0.0,0.0,0.0,0.0,0.0,0.0,-1.6789,-1.821,-1.9364,-2.0155,-2.0215,-2.0218,-2.0205,-1.8928,-1.8123,0.0,0.0,0.0,0.0,0.0,0.0,0.0,0.0,0.0,0.0,0.0,0.0,0.0,0.0,0.0,0.0,0.0,0.0,0.0,0.0,0.0,0.0,0.0,0.0,0.0,0.0,0.0,0.0,0.0,0.0,0.0,0.0,0.0,0.0,0.0,0.0,0.0,0.0,0.0,0.0,0.0,-1.4362,-1.4441,-1.4505,-1.4578,0.0,0.0,-1.678,-1.701,-1.763,0.0,0.0,0.0,0.0,0.0,0.0,0.0,0.0,0.0,0.0,0.0,0.0,0.0,0.0,0.0,0.0,0.0,0.0,0.0,0.0,0.0,0.0,0.0,0.0,0.0,0.0,0.0,0.0,0.0,0.0,0.0,0.0,0.0,0.0,0.0,0.0,0.0,0.0,0.0,0.0,0.0,0.0,0.0,0.0,0.0,0.0,0.0,0.0,0.0,0.0,0.0,0.0,0.0,0.0,0.0,-1.6316,-1.7045,-1.8735,-1.9773,-2.0045,-2.0426,-2.0444,-2.0098,-1.8816,-1.7945,0.0,0.0,0.0,0.0,0.0,0.0,0.0,0.0,0.0,0.0,0.0,0.0,0.0,0.0,0.0,0.0,0.0,0.0,0.0,0.0,0.0,0.0,0.0,0.0,0.0,0.0,0.0,0.0,0.0,0.0,0.0,0.0,0.0,0.0,0.0,0.0,0.0,0.0,0.0,0.0,0.0,0.0,-1.5705,-1.5658,0.0,0.0,0.0,-1.7248,-1.7345,0.0,0.0,0.0,0.0,0.0,0.0,0.0,0.0,0.0,0.0,0.0,0.0,0.0,0.0,0.0,0.0,0.0,0.0,0.0,0.0,0.0,0.0,0.0,0.0,0.0,0.0,0.0,0.0,0.0,0.0,0.0,0.0,0.0,0.0,0.0,0.0,0.0,0.0,0.0,0.0,0.0,0.0,0.0,0.0,0.0,0.0,0.0,0.0,0.0,0.0,0.0,0.0,0.0,0.0,0.0,0.0,0.0,-1.7394,-1.9369,-2.0395,-2.0411,-2.0901,-2.0916,-2.0395,-1.9143,0.0,0.0,0.0,0.0,0.0,0.0,0.0,0.0,0.0,0.0,0.0,0.0,0.0,0.0,0.0,0.0,0.0,0.0,0.0,0.0,0.0,0.0,0.0,0.0,0.0,0.0,0.0,-1.0511,0.0,0.0,0.0,0.0,0.0,0.0,0.0,0.0,0.0,0.0,0.0,0.0,0.0,0.0,-1.6007,-1.6811,-1.6987,-1.7174,0.0,0.0,-1.8153,-1.8219,-1.9303,-1.9846,0.0,0.0,0.0,0.0,0.0,0.0,0.0,0.0,0.0,0.0,0.0,0.0,0.0,0.0,0.0,0.0,0.0,0.0,0.0,0.0,0.0,0.0,0.0,0.0,0.0,0.0,0.0,0.0,0.0,0.0,0.0,0.0,0.0,0.0,0.0,0.0,0.0,0.0,0.0,0.0,0.0,0.0,0.0,0.0,0.0,0.0,0.0,0.0,0.0,0.0,0.0,0.0,0.0,0.0,0.0,-1.8207,-2.0177,-2.1193,-2.1227,-2.1255,-2.1255,-2.1211,-1.9934,-1.887,0.0,0.0,0.0,0.0,0.0,0.0,0.0,0.0,0.0,0.0,0.0,0.0,0.0,0.0,0.0,0.0,0.0,0.0,0.0,0.0,0.0,0.0,0.0,0.0,0.0,0.0,0.0,0.0,0.0,0.0,0.0,0.0,0.0,0.0,0.0,0.0,0.0,0.0,0.0,0.0,0.0,-1.7791,-1.7343,-1.8423,-1.9303,0.0,0.0,-2.0405,-2.0456,-2.1133,-2.1168,-1.975,0.0,0.0,0.0,0.0,0.0,0.0,0.0,0.0,0.0,0.0,0.0,0.0,0.0,0.0,0.0,0.0,0.0,0.0,0.0,0.0,0.0,0.0,0.0,0.0,0.0,0.0,0.0,0.0,0.0,0.0,0.0,0.0,0.0,0.0,0.0,0.0,0.0,0.0,0.0,0.0,0.0,0.0,0.0,0.0,0.0,0.0,0.0,0.0,0.0,0.0,0.0,0.0,0.0,-1.8191,-1.8222,-2.0654,-2.1519,-2.0749,-2.1488,-2.1519,-2.0705,-1.9795,-1.8994,0.0,0.0,0.0,0.0,0.0,0.0,0.0,0.0,0.0,0.0,0.0,0.0,0.0,0.0,0.0,0.0,0.0,0.0,0.0,0.0,0.0,0.0,0.0,0.0,0.0,0.0,0.0,0.0,-1.3004,-1.3457,-1.316,0.0,0.0,0.0,0.0,0.0,0.0,0.0,0.0,0.0,0.0,-1.8044,-1.9177,-1.9464,0.0,0.0,-2.0508,-2.0494,-2.0078,-2.1036,-2.1315,-1.9832,-1.9584,0.0,0.0,0.0,0.0,0.0,0.0,0.0,0.0,0.0,0.0,0.0,0.0,0.0,0.0,0.0,0.0,0.0,0.0,0.0,0.0,0.0,0.0,0.0,0.0,0.0,0.0,0.0,0.0,0.0,0.0,0.0,0.0,0.0,0.0,0.0,0.0,0.0,0.0,0.0,0.0,0.0,0.0,0.0,0.0,0.0,0.0,0.0,0.0,0.0,0.0,0.0,0.0,-1.8007,-1.8207,-2.0716,-2.155,-2.0628,-2.1519,-2.155,-2.0628,-1.995,-1.9336,0.0,0.0,0.0,0.0,0.0,0.0,0.0,0.0,0.0,0.0,0.0,0.0,0.0,0.0,0.0,0.0,0.0,0.0,0.0,0.0,0.0,0.0,0.0,0.0,0.0,0.0,0.0,0.0,-1.3763,-1.385,-1.3266,0.0,0.0,0.0,0.0,0.0,0.0,0.0,0.0,0.0,0.0,-1.8766,-2.0108,-2.01,-2.0108,-2.0619,-2.0702,-2.0602,-2.0309,-2.1118,-2.1367,-2.0127,0.0,0.0,0.0,0.0,0.0,0.0,0.0,0.0,0.0,0.0,0.0,0.0,0.0,0.0,0.0,0.0,0.0,0.0,0.0,0.0,0.0,0.0,0.0,0.0,0.0,0.0,0.0,0.0,0.0,0.0,0.0,0.0,0.0,0.0,0.0,0.0,0.0,0.0,0.0,0.0,0.0,0.0,0.0,0.0,0.0,0.0,0.0,0.0,0.0,0.0,0.0,0.0,0.0,-1.7562,-1.8207,-2.0285,-2.1304,-2.1242,-2.1304,-2.1319,-2.1227,-2.0628,-2.0101,-1.9751,0.0,0.0,0.0,0.0,0.0,0.0,0.0,0.0,0.0,0.0,0.0,0.0,0.0,0.0,0.0,0.0,0.0,0.0,0.0,0.0,0.0,0.0,0.0,0.0,0.0,0.0,-1.4316,-1.4256,-1.4019,0.0,0.0,0.0,0.0,0.0,0.0,0.0,0.0,0.0,0.0,-1.9161,-2.0273,-1.9703,-2.0224,-2.0652,-2.0702,-2.0702,-2.092,-2.1564,-2.1731,-2.1547,0.0,0.0,0.0,0.0,0.0,0.0,0.0,0.0,0.0,0.0,0.0,0.0,0.0,0.0,0.0,0.0,0.0,0.0,0.0,0.0,0.0,0.0,0.0,0.0,0.0,0.0,0.0,-1.5995,-1.5639,0.0,0.0,0.0,0.0,0.0,0.0,0.0,0.0,0.0,0.0,0.0,-1.831,-1.7812,0.0,0.0,0.0,0.0,0.0,0.0,0.0,0.0,0.0,0.0,0.0,0.0,-1.7531,-1.8237,-2.0254,-2.1073,-2.0674,-2.1073,-2.1088,-2.0641,-2.0443,-2.008,-1.9545,0.0,0.0,0.0,0.0,0.0,0.0,0.0,0.0,0.0,0.0,0.0,0.0,0.0,0.0,0.0,0.0,0.0,0.0,0.0,0.0,0.0,0.0,0.0,0.0,0.0,-1.5397,0.0,0.0,0.0,0.0,0.0,0.0,0.0,0.0,0.0,0.0,0.0,-1.818,-1.87,-1.9019,-1.9293,-1.9568,-2.0224,-2.0702,0.0,0.0,0.0,0.0,0.0,0.0,0.0,0.0,0.0,0.0,0.0,0.0,0.0,0.0,-2.1483,-2.0522,-2.0723,-2.1187,-2.1698,0.0,0.0,0.0,0.0,0.0,0.0,0.0,0.0,0.0,0.0,0.0,0.0,0.0,0.0,0.0,0.0,-1.7605,0.0,0.0,0.0,0.0,0.0,0.0,0.0,0.0,-1.9606,-2.0146,-2.0397,-2.0349,-2.0318,0.0,-1.958,-1.8667,0.0,0.0,0.0,0.0,0.0,0.0,0.0,0.0,-1.7761,-1.8253,-2.0023,-2.0751,-2.035,-2.0718,-2.0734,-2.0302,-2.0407,-2.029,-1.9888,-1.9249,-1.8482,0.0,0.0,0.0,0.0,0.0,0.0,0.0,0.0,0.0,0.0,0.0,0.0,0.0,0.0,0.0,0.0,0.0,0.0,0.0,0.0,0.0,0.0,0.0,-1.6566,0.0,0.0,0.0,0.0,0.0,0.0,0.0,0.0,0.0,-1.8651,-1.87,-1.8999,-1.9464,-1.9389,-1.9267,-1.9234,0.0,0.0,0.0,0.0,0.0,0.0,0.0,-2.2013,-2.1531,-2.2046,-2.2261,-2.1547,-2.0818,-2.0555,-2.1284,0.0,0.0,-2.1597,-2.2062,-2.2708,-2.3189,-2.2953,-2.2798,-2.3282,-2.3059,-2.2971,0.0,0.0,0.0,0.0,0.0,0.0,0.0,0.0,-1.9678,-1.9343,0.0,-1.9403,0.0,0.0,0.0,0.0,0.0,0.0,0.0,0.0,-2.2054,-2.2388,-2.1909,-2.2607,-2.2343,-2.1178,-2.1271,-2.1026,-2.0364,-1.9038,0.0,0.0,0.0,0.0,0.0,0.0,-1.8192,-1.8284,-1.9625,-2.0287,-2.0287,-2.0302,-2.0287,-2.0304,-2.0595,-2.0745,-2.0746,-2.0083,-1.9736,-1.972,-1.7479,0.0,0.0,0.0,0.0,0.0,0.0,0.0,0.0,0.0,0.0,0.0,0.0,0.0,0.0,0.0,0.0,0.0,0.0,0.0,0.0,-1.8028,0.0,0.0,0.0,0.0,0.0,0.0,0.0,0.0,0.0,0.0,-1.9719,-1.9635,-1.9667,-1.9684,0.0,0.0,0.0,0.0,-2.1532,-2.0851,-2.1913,-2.3023,-2.3735,-2.3288,-2.2841,-2.2857,0.0,0.0,-2.0917,-2.0207,-2.0011,-2.0669,-2.1481,-2.2111,-2.2857,-2.347,-2.3951,-2.4017,-2.4,-2.4065,-2.4131,-2.4129,-2.4378,-2.2867,0.0,0.0,0.0,0.0,-2.0389,-2.103,-2.1644,-2.1754,-2.1436,-2.0793,-2.0524,0.0,0.0,0.0,0.0,0.0,0.0,-2.1017,-2.2128,-2.2966,-2.3729,-2.4462,-2.3859,-2.367,-2.3821,-2.3,-2.2793,-2.3102,-2.227,-2.0885,-1.8978,0.0,0.0,0.0,0.0,-1.7976,-1.8962,-1.9873,-2.0287,-2.0287,-2.0287,-2.0287,-2.0287,-2.0392,-2.0443,-2.0426,-2.0239,-1.9915,-1.9449,-1.87,0.0,0.0,0.0,0.0,0.0,0.0,0.0,0.0,0.0,0.0,0.0,0.0,0.0,0.0,0.0,0.0,0.0,0.0,0.0,-1.7538,-1.8439,-1.8683,0.0,0.0,0.0,0.0,0.0,0.0,0.0,0.0,0.0,-2.2568,-2.1754,-2.1168,0.0,0.0,-2.1332,-2.0903,-2.1414,-2.1713,-2.1531,0.0,0.0,0.0,-2.226,-2.231,-2.2823,-2.3139,-2.3123,-2.2377,-2.2096,-2.2029,-2.2228,-2.2857,-2.3586,-2.4282,-2.4183,-2.4216,-2.4613,-2.4398,-2.4232,-2.468,-2.4829,-2.5079,-2.6974,-2.3877,-2.2614,-2.2289,-2.2693,-2.3302,-2.3911,-2.4537,-2.4597,-2.4125,-2.3251,-2.308,-2.2383,-2.1265,-2.125,0.0,0.0,0.0,-2.2966,-2.4275,-2.4904,-2.5503,-2.603,-2.5937,-2.569,-2.546,-2.4753,-2.4516,-2.4687,-2.3748,-2.2505,-2.0888,0.0,0.0,-1.9054,-1.9161,-1.9377,-1.9718,-2.0366,-2.0549,-2.0287,-2.0287,-2.0254,-2.022,-2.0202,-2.0202,-2.0183,-2.0131,-1.9965,-1.9619,-1.9209,-1.8443,0.0,0.0,0.0,0.0,0.0,0.0,0.0,0.0,0.0,0.0,0.0,-1.689,0.0,0.0,0.0,0.0,-1.8241,-1.8886,-1.9418,-1.9825,0.0,0.0,0.0,0.0,0.0,0.0,0.0,-2.2087,-2.2844,-2.3356,-2.3489,-2.3273,-2.2775,-2.1912,-2.1547,-2.1265,-2.0969,0.0,-2.2243,-2.2228,-2.2344,-2.2608,-2.3023,-2.3106,-2.3073,-2.2907,-2.352,-2.3719,-2.304,-2.3123,-2.3321,-2.3404,-2.3951,-2.458,-2.5011,-2.4944,-2.4977,-2.5441,-2.5193,-2.5143,-2.5822,-2.5955,-2.6253,-3.0629,-3.0002,-2.755,-2.6542,-2.6558,-2.6733,-2.7215,-2.7884,-2.7794,-2.7091,-2.5989,-2.6437,-2.5644,-2.3924,-2.3886,0.0,-2.3954,-2.45,-2.5465,-2.6791,-2.739,-2.741,-2.7013,-2.8268,-2.7978,-2.6222,-2.6282,-2.5958,-2.5229,-2.3974,-2.3379,-2.3363,-2.2782,-2.1781,-2.058,-2.1612,-2.1642,-2.0489,-2.1073,-2.1088,-2.0472,-2.0458,-2.0375,-2.0192,-2.0192,-2.0142,-2.0023,-1.9902,-1.9935,-2.0144,-1.9405,-1.9019,-1.9091,0.0,0.0,0.0,0.0,0.0,0.0,0.0,0.0,0.0,0.0,0.0,0.0,0.0,0.0,0.0,-1.9739,0.0,-2.1628,-2.1709,0.0,0.0,0.0,-2.2763,-2.2891,-2.355,-2.3798,-2.3231,0.0,0.0,-2.3254,0.0,-2.4365,-2.2326,-2.1531,-2.0886,-2.0227,-2.1913,-2.3056,-2.3123,-2.4149,-2.4978,-2.4845,-2.4911,-2.4464,-2.3305,-2.3603,-2.3851,-2.3255,-2.3619,-2.4033,-2.4083,-2.4646,-2.5127,-2.5176,-2.5705,-2.6219,-2.6253,-2.622,-2.6369,-2.6901,-2.7182,-2.7663,-3.2192,-3.2691,-3.1611,-3.0496,-2.9406,-2.9391,-2.9846,-3.0464,-2.9535,-2.8921,-2.8592,-2.775,-2.7091,-2.6626,-2.6117,-2.6168,-2.6641,-2.6273,-2.6841,-2.8098,-2.8293,-2.8304,-2.818,-2.8021,-2.7479,-2.665,-2.5758,-2.5224,-2.5048,-2.4388,-2.4045,-2.3984,-2.3876,-2.3148,-2.1874,-2.1642,-2.1642,-2.1812,-2.1981,-2.1981,-2.1824,-2.1827,-2.151,-2.0895,-2.0864,-2.0617,-2.0093,-1.999,-2.0236,-2.0816,-2.0509,-2.0327,-2.0364,-1.9041,0.0,0.0,0.0,0.0,0.0,0.0,0.0,0.0,0.0,-1.924,-1.9746,0.0,-1.9406,0.0,-2.0591,-2.1223,-2.1736,-2.1783,0.0,0.0,-2.1932,-2.2278,-2.2917,-2.3102,-2.3567,-2.458,-2.4763,-2.5011,-2.5358,-2.5243,-2.4894,-2.4381,-2.4646,-2.4829,-2.4679,-2.453,-2.458,-2.4547,-2.4398,-2.4464,-2.5011,-2.5094,-2.4795,-2.3884,-2.4365,-2.458,-2.3868,-2.4348,-2.4828,-2.4828,-2.4961,-2.5292,-2.5821,-2.6086,-2.6402,-2.6868,-2.6584,-2.6253,-2.6452,-2.7348,-2.8243,-3.2982,-3.3566,-3.2907,-3.2188,-3.1517,-3.1663,-3.1975,-3.2303,-3.1629,-3.1001,-3.0357,-2.9067,-2.8498,-2.8468,-2.8083,-2.8154,-2.8453,-2.8109,-2.8323,-2.9041,-2.931,-2.9337,-2.912,-2.9042,-2.8703,-2.8208,-2.7197,-2.6792,-2.6778,-2.5686,-2.5118,-2.5139,-2.4604,-2.3933,-2.3209,-2.2809,-2.2671,-2.2732,-2.244,-2.2305,-2.2305,-2.2305,-2.191,-2.1124,-2.1094,-2.0785,-2.0076,-1.9955,-2.0137,-2.0579,-2.0412,-2.0321,-2.0339,-1.9594,-1.9271,0.0,0.0,0.0,0.0,0.0,0.0,0.0,0.0,0.0,0.0,0.0,-2.0197,0.0,-2.1691,-2.2329,-2.2521,-2.2774,-2.2913,-2.2913,-2.3213,-2.3595,-2.4058,-2.4361,-2.4879,-2.5681,-2.5746,-2.5843,-2.6154,-2.5854,-2.559,-2.5607,-2.5937,-2.5971,-2.5325,-2.4862,-2.4713,-2.5027,-2.4762,-2.4746,-2.5475,-2.5292,-2.4961,-2.4646,-2.511,-2.5359,-2.4663,-2.5094,-2.559,-2.5607,-2.559,-2.5689,-2.6119,-2.6185,-2.6352,-2.6601,-2.6501,-2.6583,-2.741,-2.8042,-2.8525,-3.2967,-3.3283,-3.2569,-3.2506,-3.2912,-3.3299,-3.3507,-3.36,-3.3511,-3.2795,-3.1555,-3.0175,-2.9682,-2.9834,-2.9662,-2.9689,-2.9819,-2.9771,-2.9744,-2.9864,-3.0387,-3.0368,-2.9907,-3.0448,-3.0413,-2.9925,-2.9217,-2.8961,-2.9043,-2.7259,-2.6329,-2.6266,-2.5115,-2.4424,-2.4276,-2.424,-2.3969,-2.344,-2.2855,-2.2548,-2.2548,-2.249,-2.2048,-2.1277,-2.1155,-2.0767,-2.0053,-1.9884,-1.9896,-2.0109,-1.9933,-1.9936,-2.014,-1.9966,-2.0154,0.0,-2.0718,0.0,0.0,0.0,0.0,0.0,0.0,0.0,0.0,-2.0652,-2.0742,-2.1635,-2.2768,-2.3533,-2.3682,-2.4133,-2.4443,-2.4543,-2.5129,-2.5531,-2.5631,-2.6253,-2.6689,-2.6619,-2.6685,-2.6665,-2.6387,-2.6336,-2.6318,-2.6169,-2.6152,-2.5788,-2.4646,-2.4431,-2.4679,-2.5176,-2.5243,-2.5475,-2.5955,-2.5656,-2.5276,-2.5308,-2.574,-2.5954,-2.5359,-2.5739,-2.6152,-2.6152,-2.6136,-2.6169,-2.6185,-2.6185,-2.6253,-2.6401,-2.6336,-2.6732,-2.8172,-2.8539,-2.882,-3.1244,-3.2464,-3.1905,-3.2146,-3.2898,-3.3168,-3.358,-3.4101,-3.362,-3.3002,-3.2154,-3.033,-3.0146,-3.102,-2.9985,-3.0102,-3.1092,-3.0582,-3.0599,-3.1137,-3.1256,-3.0986,-3.04,-3.0475,-3.0248,-2.9672,-2.9008,-2.8718,-2.8707,-2.7936,-2.6985,-2.5924,-2.5743,-2.5134,-2.4112,0.0,0.0,0.0,-2.3994,-2.3933,-2.3902,-2.3394,-2.2755,-2.1999,-2.1415,0.0,-2.0111,-1.9887,-2.0107,-2.0761,-2.0606,0.0,0.0,0.0,0.0,0.0,0.0,0.0,0.0,0.0,0.0,0.0,-2.1562,-2.1545,-2.1781,-2.1808,-2.2096,-2.2734,-2.3074,-2.3691,-2.4709,-2.4878,-2.5195,-2.5758,-2.5975,-2.6076,-2.6164,-2.6815,-2.7247,-2.7229,-2.7763,-2.7859,-2.7201,-2.7083,-2.6866,-2.6336,-2.6185,-2.6086,-2.5839,-2.5722,-2.5822,-2.597,-2.5921,-2.6003,-2.6152,-2.6053,-2.5904,-2.602,-2.607,-2.6119,-2.6021,-2.6054,-2.6185,-2.6185,-2.6185,-2.6185,-2.6185,-2.6185,-2.6385,-2.6967,-2.6601,-2.6318,-2.6748,-2.7677,-2.8475,-3.1057,0.0,-3.1182,-3.1145,0.0,-3.1869,-3.2434,-3.3206,-3.3269,-3.2949,-3.224,-3.0644,-3.0341,-3.0913,-3.0261,-3.0175,-3.0525,-3.0835,-3.098,-3.1029,-3.1336,-3.1316,-3.0987,-3.0987,-3.0823,-3.0537,-3.022,-3.0126,-3.0123,-2.9237,-2.8308,-2.7391,-2.6758,-2.5963,-2.503,-2.4984,-2.4715,-2.4151,-2.4156,-2.4135,-2.412,-2.3835,-2.3305,-2.2609,0.0,0.0,0.0,0.0,0.0,0.0,0.0,0.0,0.0,0.0,0.0,-2.2598,-2.1744,-2.1625,-2.2532,-2.2323,-2.2283,-2.2675,-2.2999,-2.3054,-2.2723,-2.3047,-2.3627,-2.4541,-2.4852,-2.5385,-2.6418,-2.6773,-2.7083,-2.7434,-2.7484,-2.7484,-2.7555,-2.7803,-2.7981,-2.7994,-2.8258,-2.8322,-2.7898,-2.7845,-2.7547,-2.6916,-2.7081,-2.7131,-2.6783,-2.6419,-2.6185,-2.6185,-2.6185,-2.6185,-2.6185,-2.6185,-2.6185,-2.6185,-2.6185,-2.6185,-2.6185,-2.6185,-2.6185,-2.6185,-2.6185,-2.6185,-2.6185,-2.6185,-2.6336,-2.6617,-2.6468,-2.6185,-2.6219,-2.7065,-2.7978,-3.1239,-3.1797,-3.0622,-3.0267,-3.0482,-3.0685,-3.1185,-3.1942,0.0,0.0,0.0,-3.0679,-3.0183,-3.0399,-3.0218,-2.9919,-2.9597,-3.0644,-3.0837,-3.0359,-3.0984,-3.1322,-3.1336,-3.1438,-3.1496,-3.1496,-3.1496,-3.1583,-3.1682,-3.0571,-2.9659,-2.8888,-2.7744,-2.6762,-2.5984,-2.5924,-2.5387,-2.4349,-2.4331,-2.4368,-2.4368,-2.421,-2.3846,-2.3198,-2.3041,-2.2738,-2.2191,-2.2043,-2.2029,-2.2149,-2.2084,-2.2099,-2.2203,-2.2218,-2.2523,-2.3152,-2.3227,-2.3415,-2.3924,-2.3954,-2.3954,-2.3969,-2.4455,-2.4483,-2.383,-2.4271,-2.5035,-2.6098,-2.6539,-2.7081,-2.7865,-2.8343,-2.8645,-2.8718,-2.8718,-2.8718,-2.8718,-2.8777,-2.8751,-2.8691,-2.8821,-2.8805,-2.8608,-2.8575,-2.831,-2.7746,-2.7945,-2.821,-2.7564,-2.6882,-2.6384,-2.6235,-2.6185,-2.6185,-2.6185,-2.6185,-2.6185,-2.6185,-2.6185,-2.6185,-2.6185,-2.6185,-2.6185,-2.6185,-2.6185,-2.6185,-2.6185,-2.6185,-2.6185,-2.6185,-2.6185,-2.6185,-2.6235,-2.6667,-2.7315,-3.0837,-3.1008,-3.0573,-3.0457,-3.066,-3.0874,-3.1024,-3.1182,-3.1379,-3.175,-3.2059,-2.9719,-2.9328,-3.0335,-2.9288,-2.9062,-2.9504,-2.969,-2.9721,0.0,-3.0329,-3.0644,-3.0688,-3.1204,-3.1496,-3.1496,-3.1496,-3.1511,-3.1509,-3.133,-3.0372,-2.8839,-2.8449,-2.7475,-2.5811,-2.5661,-2.5556,-2.5392,-2.5614,-2.5705,-2.5705,-2.5091,-2.4485,-2.3885,-2.3237,-2.2874,-2.2763,-2.2722,-2.2953,-2.3468,-2.3419,-2.361,-2.4141,-2.4171,-2.4485,-2.5121,-2.5196,-2.5241,-2.53,-2.5292,-2.533,-2.5315,-2.542,-2.5398,-2.5303,-2.5485,-2.5765,-2.6163,-2.6514,-2.691,-2.7558,-2.7903,-2.8188,-2.8461,-2.8483,-2.845,-2.8569,-2.9093,-2.9406,-2.9268,-2.9932,-3.0019,-2.9363,-2.9248,-2.9003,-2.8442,-2.8409,-2.8392,-2.8194,-2.7613,-2.6899,-2.6351,-2.6185,-2.6185,-2.6185,-2.6185,-2.6185,-2.6185,-2.6185,-2.6185,-2.6185,-2.6185,-2.6185,-2.6185,-2.6185,-2.6185,-2.6185,-2.6185,-2.6185,-2.6185,-2.6185,-2.6185,-2.6185,-2.6352,-2.6634,-3.1423,-3.1849,-3.1021,-3.083,-3.115,-3.1042,-3.1024,-3.0998,-3.1043,-3.1252,-3.137,-2.9685,-2.9239,-2.974,-2.924,-2.8942,-2.8942,-2.9989,-3.0271,-3.0005,-3.064,-3.0948,-3.1031,-3.1319,-3.1457,-3.1497,-3.1496,-3.1496,-3.1496,-3.1496,-3.0853,-2.9669,-2.931,-2.8487,-2.732,-2.723,-2.7036,-2.6701,-2.6107,-2.5793,-2.5793,-2.5439,-2.5153,-2.4882,-2.4514,-2.4364,-2.4364,-2.4342,-2.4455,-2.477,-2.4724,-2.4837,-2.5113,-2.5128,-2.5262,-2.5585,-2.56,-2.56,-2.56,-2.56,-2.5764,-2.6108,-2.6138,-2.6303,-2.6671,-2.6272,-2.6351,-2.7081,-2.7299,-2.7671,-2.8349,-2.8779,-2.9069,-2.9235,-2.9492,-2.9649,-2.9666,-2.9879,-2.9955,-2.9739,-3.0191,-3.0336,-2.9714,-2.9832,-2.9711,-2.9102,-2.8936,-2.8953,-2.8936,-2.8655,-2.8044,-2.7031,-2.6485,-2.6202,-2.6202,-2.6185,-2.6185,-2.6185,-2.6185,-2.6185,-2.6185,-2.6185,-2.6185,-2.6185,-2.6185,-2.6185,-2.6185,-2.6185,-2.6185,-2.6185,-2.6185,-2.6185,-2.6185,-2.6185,-2.6336,-3.2133,-3.2803,-3.1703,-3.1356,-3.1552,-3.1276,-3.1104,-3.0986,-3.1024,-3.1024,-3.0843,-2.9938,-2.947,-2.9476,-2.9419,-2.9084,-2.8842,-3.0154,-3.0576,-3.0179,-3.0766,-3.1101,-3.1179,-3.1435,-3.1595,-3.1545,-3.1766,-3.1795,-3.1555,-3.1645,-3.1301,-3.0522,-2.9894,-2.9325,-2.8846,-2.8816,-2.8487,-2.7809,-2.6797,-2.6213,-2.6063,-2.6048,-2.5989,-2.5839,-2.5824,-2.5824,-2.5839,-2.5839,-2.5899,-2.6048,-2.6048,-2.6048,-2.6048,-2.6048,-2.6048,-2.6063,-2.6063,-2.6048,-2.6048,-2.6048,-2.6273,-2.6767,-2.6821,-2.7061,-2.746,-2.6955,-2.6865,-2.775,-2.7905,-2.8216,-2.8785,-2.93,-2.9705,-2.9793,-3.0113,-3.0197,-3.0288,-3.0321,-3.022,-2.9903,-3.0199,-3.0363,-3.0135,-3.0262,-3.0257,-2.9777,-2.9645,-2.9645,-2.9628,-2.9529,-2.8887,-2.8025,-2.7164,-2.6816,-2.6684,-2.6551,-2.6501,-2.6452,-2.6319,-2.6219,-2.6185,-2.6185,-2.6185,-2.6185,-2.6185,-2.6185,-2.6185,-2.6185,-2.6185,-2.6185,-2.6185,-2.6185,-2.6185,-2.6185,-2.6203,-3.2663,-3.2834,-3.2428,-3.2084,-3.1798,-3.1745,-3.1419,-3.1026,-3.1024,-3.1024,-3.0908,-3.0333,-3.0009,-2.998,-2.9551,-2.9289,-2.9231,-2.9425,-2.9513,-2.9575,-3.0089,-3.0392,-3.0575,-3.1691,-3.1988,-3.1618,-3.2612,-3.2557,-3.1632,-3.2109,-3.175,-3.0567,-2.9879,-2.9579,-2.9532,-2.9517,-2.916,-2.8532,-2.8382,-2.8023,-2.7465,-2.742,-2.7136,-2.6537,-2.6497,-2.6497,-2.6542,-2.6522,-2.6806,-2.7345,-2.742,-2.7405,-2.739,-2.7405,-2.742,-2.7405,-2.7405,-2.7405,-2.7405,-2.742,-2.739,-2.7495,-2.7465,-2.7495,-2.76,-2.753,-2.7495,-2.7705,-2.7858,-2.8103,-2.8352,-2.8567,-2.8865,-2.9166,-2.928,-2.9234,-2.9348,-2.9617,-2.9853,-2.9793,-3.0156,-3.0468,-3.0363,-3.0426,-3.0456,-3.0307,-3.0257,-3.0257,-3.0241,-2.9843,-2.9479,-2.9135,-2.8622,-2.821,-2.8044,-2.7597,-2.7282,-2.7149,-2.6651,-2.645,-2.6434,-2.6352,-2.6202,-2.6402,-2.6185,-2.6202,-2.6185,-2.6185,-2.6185,-2.6185,-2.6185,-2.6185,-2.6185,-2.6185,-2.6185,-3.3182,-3.3341,-3.2995,-3.2682,-3.2293,-3.1954,-3.168,-3.147,-3.1117,-3.1024,-3.096,-3.0738,-3.0427,-3.0087,-2.9889,-2.9784,-2.981,-3.0124,-3.0317,-3.0317,-3.0609,-3.0735,-3.0845,-3.1323,-3.1497,-3.1425,-3.2356,-3.2539,-3.2157,-3.2289,-3.2165,-3.1676,-3.1013,-3.0497,-3.0165,-3.0133,-2.9819,-2.9205,-2.9175,-2.9026,-2.8723,-2.8004,-2.7465,-2.7225,-2.7195,-2.7405,-2.7739,-2.7784,-2.7904,-2.8188,-2.8573,-2.8423,-2.7645,-2.8349,-2.8577,-2.8259,-2.8188,-2.8173,-2.8199,-2.7839,-2.7585,-2.7585,-2.7585,-2.7585,-2.7615,-2.7959,-2.8199,-2.8169,-2.7931,-2.78,-2.791,-2.8213,-2.8448,-2.8638,-2.8912,-2.9113,-2.9136,-2.9273,-2.9371,-2.9416,-2.9793,-3.0092,-3.0135,-3.0342,-3.0468,-3.0489,-3.0468,-3.0447,-3.0452,-3.0224,-3.0092,-3.0009,-2.9798,-2.9287,-2.8658,-2.8177,-2.7961,-2.7895,-2.7729,-2.7512,-2.7396,-2.7066,-2.6868,-2.6851,-2.6518,-2.6268,-2.6185,-2.6185,-2.6185,-2.6185,-2.6185,-2.6185,-2.6185,-2.6185,-2.6185,-3.3696,-3.3788,-3.3568,-3.3307,-3.2908,-3.2463,-3.2098,-3.1771,-3.1392,-3.1143,-3.1024,-3.1024,-3.0764,-3.0361,-3.0335,-3.0335,-3.0388,-3.0803,-3.1024,-3.1024,-3.1024,-3.1035,-3.1097,-3.1307,-3.1334,-3.1402,-3.2217,-3.2663,-3.2619,-3.2463,-3.252,-3.2645,-3.2221,-3.1647,-3.1123,-3.1061,-3.0642,-2.9894,-2.9861,-2.9759,-2.9502,-2.8648,-2.8154,-2.8154,-2.8154,-2.8393,-2.8846,-2.8876,-2.8876,-2.8876,-2.9352,-2.9172,-2.8274,-2.9082,-2.9355,-2.8936,-2.8861,-2.8861,-2.8861,-2.8397,-2.8139,-2.8154,-2.8139,-2.8139,-2.8229,-2.8618,-2.8846,-2.8846,-2.8438,-2.8199,-2.819,-2.8288,-2.8351,-2.84,-2.8642,-2.8693,-2.8669,-2.8772,-2.885,-2.8896,-2.9309,-2.9595,-2.9639,-2.9859,-3.0032,-3.0049,-3.007,-3.0113,-3.0113,-3.0075,-3.0081,-3.0262,-3.0284,-2.9951,-2.9112,-2.879,-2.8724,-2.8608,-2.8508,-2.8276,-2.8409,-2.7862,-2.7381,-2.7182,-2.6768,-2.6419,-2.6219,-2.6185,-2.6219,-2.6185,-2.6185,-2.6185,-2.6185,-2.6185,-2.6185,-3.4076,-3.4118,-3.4301,-3.4058,-3.3548,-3.3483,-3.2868,-3.1928,-3.1784,-3.1458,-3.1065,-3.1013,-3.0973,-3.0908,-3.0882,-3.0934,-3.0934,-3.096,-3.1024,-3.1024,-3.1024,-3.1011,-3.106,-3.1696,-3.1721,-3.1268,-3.2389,-3.3093,-3.3241,-3.2738,-3.2786,-3.3378,-3.3317,-3.3019,-3.2452,-3.2362,-3.1764,-3.0687,-3.0552,-3.0223,-2.9714,-2.9592,-2.9517,-2.9517,-2.9487,-2.9457,-2.9562,-2.9535,-2.9562,-2.9562,-2.9639,-2.9592,-2.9502,-2.9577,-2.9621,-2.9579,-2.9577,-2.9562,-2.9562,-2.9457,-2.9412,-2.9457,-2.9352,-2.9457,-2.9322,-2.9472,-2.9535,-2.9562,-2.952,-2.9517,-2.943,-2.8985,-2.8636,-2.8531,-2.8076,-2.7866,-2.775,-2.8149,-2.8288,-2.8432,-2.8873,-2.9189,-2.9166,-2.9143,-2.9257,-2.928,-2.9234,-2.9257,-2.9325,-2.9257,-2.9483,-2.9772,-2.9903,-2.994,-3.0186,-2.9761,-2.9417,-2.9317,-2.9052,-2.8575,-2.8442,-2.8276,-2.7928,-2.7613,-2.7415,-2.7033,-2.6452,-2.6219,-2.6319,-2.6303,-2.6253,-2.6219,-2.6435,-2.627,-2.6286,-3.4422,-3.4888,-3.493,-3.4855,-3.4607,-3.3914,-3.3339,-3.2934,-3.2542,-3.2071,-3.1562,-3.1497,-3.1326,-3.1024,-3.1024,-3.1024,-3.1024,-3.1024,-3.1024,-3.1024,-3.1024,-3.1024,-3.1024,-3.1296,-3.1302,-3.1229,-3.2028,-3.275,-3.3194,-3.3007,-3.3078,-3.3381,-3.3434,-3.3301,-3.3184,-3.314,-3.2677,-3.1884,-3.1809,-3.1451,-3.0838,-3.0808,-3.0793,-3.0776,-2.9998,-2.9801,-3.0163,-3.0178,-3.0178,-3.0178,-3.0582,-3.0447,-2.9756,-2.9968,-3.0387,-3.0731,-3.0417,-3.0178,-3.0118,-2.9804,-2.9621,-2.9621,-2.9621,-2.9651,-2.9654,-2.9924,-3.0163,-3.0223,-3.0612,-3.0806,-3.0627,-2.9879,-2.9056,-2.8652,-2.8382,-2.8079,-2.773,-2.776,-2.7953,-2.8319,-2.8772,-2.9113,-2.9122,-2.9113,-2.9113,-2.9113,-2.9113,-2.9106,-2.9159,-2.9325,-2.9572,-2.9728,-2.9793,-2.9962,-3.0426,-3.0307,-3.0092,-3.0059,-2.9893,-2.9814,-2.9682,-2.9185,-2.882,-2.8522,-2.8257,-2.7879,-2.7346,-2.6998,-2.6965,-2.6868,-2.675,-2.6733,-2.6816,-2.6651,-2.6651,-3.4582,-3.5119,-3.5256,-3.5404,-3.5456,-3.4737,-3.4188,-3.3835,-3.3417,-3.2829,-3.2176,-3.2084,-3.1901,-3.1575,-3.1535,-3.1574,-3.1509,-3.1365,-3.1261,-3.1261,-3.1261,-3.1261,-3.1235,-3.1078,-3.1024,-3.1048,-3.1505,-3.2137,-3.2755,-3.2826,-3.3141,-3.3651,-3.3703,-3.3709,-3.381,-3.3814,-3.341,-3.2676,-3.2497,-3.2153,-3.1585,-3.1496,-3.1496,-3.1391,-3.0657,-3.0402,-3.0836,-3.0836,-3.0836,-3.0911,-3.1271,-3.1107,-3.0372,-3.0597,-3.1017,-3.1376,-3.1062,-3.0851,-3.0778,-3.0447,-3.0223,-3.0223,-3.0223,-3.0208,-3.0238,-3.0612,-3.0778,-3.0928,-3.1182,-3.1496,-3.1346,-3.0717,-2.9953,-2.934,-2.9041,-2.8742,-2.8319,-2.8259,-2.8413,-2.8733,-2.9064,-2.9248,-2.925,-2.9242,-2.9288,-2.925,-2.9216,-2.9163,-2.9218,-2.9369,-2.9661,-2.9772,-2.9793,-3.0027,-3.0363,-3.0385,-3.0373,-3.0373,-3.0323,-3.0439,-3.0406,-2.9959,-2.9628,-2.9397,-2.9102,-2.8724,-2.8343,-2.7945,-2.7746,-2.763,-2.7531,-2.7479,-2.7332,-2.7033,-2.7166,-3.4624,-3.4947,-3.5214,-3.5626,-3.5979,-3.5913,-3.5378,-3.4489,-3.441,-3.3783,-3.2803,-3.2725,-3.2698,-3.2607,-3.2489,-3.2594,-3.2463,-3.211,-3.1863,-3.181,-3.1758,-3.1732,-3.1706,-3.1222,-3.1024,-3.1024,-3.1024,-3.1445,-3.216,-3.2326,-3.2947,-3.4032,-3.4307,-3.4394,-3.4518,-3.4382,-3.3799,-3.2871,-3.2542,-3.2153,-3.1585,-3.1496,-3.1496,-3.1496,-3.1391,-3.1361,-3.1451,-3.1451,-3.1406,-3.1421,-3.1481,-3.1496,-3.1361,-3.1406,-3.1466,-3.1481,-3.1466,-3.1466,-3.1451,-3.1391,-3.1286,-3.1286,-3.1391,-3.1286,-3.1256,-3.1346,-3.1391,-3.1391,-3.1436,-3.1496,-3.1496,-3.1376,-3.1032,-3.0537,-2.9879,-2.9577,-2.9502,-2.9547,-2.9577,-2.951,-2.9542,-2.9589,-2.9589,-2.9542,-2.952,-2.9524,-2.9413,-2.9316,-2.9319,-2.9365,-2.9425,-2.9695,-2.9904,-3.0142,-3.0326,-3.0501,-3.0518,-3.0534,-3.0489,-3.0489,-3.0489,-3.0191,-3.0009,-2.9794,-2.9694,-2.9334,-2.8787,-2.8439,-2.8459,-2.8359,-2.8293,-2.821,-2.8075,-2.7926,-2.7895,-3.5087,-3.5253,-3.5648,-3.594,-3.6096,-3.6109,-3.5665,-3.5103,-3.5391,-3.4724,-3.3574,-3.3705,-3.3443,-3.2816,-3.2672,-3.2698,-3.2698,-3.2894,-3.2829,-3.2437,-3.2006,-3.1836,-3.1706,-3.1248,-3.1024,-3.1024,-3.1024,-3.1357,-3.2051,-3.2577,-3.3374,-3.4211,-3.4824,-3.5142,-3.5113,-3.4743,-3.4023,-3.326,-3.2736,-3.2168,-3.157,-3.1511,-3.1511,-3.1496,-3.1496,-3.1496,-3.1496,-3.1496,-3.1496,-3.1511,-3.1496,-3.1496,-3.1496,-3.1496,-3.1496,-3.1496,-3.1496,-3.1496,-3.1496,-3.1496,-3.1496,-3.1496,-3.1496,-3.1496,-3.1496,-3.1496,-3.1496,-3.1496,-3.1496,-3.1496,-3.1496,-3.1496,-3.1212,-3.0582,-3.0328,-3.0058,-2.9786,-2.9654,-2.9621,-2.9621,-2.9621,-2.9621,-2.9636,-2.9666,-2.9699,-2.9711,-2.9629,-2.9569,-2.9561,-2.9797,-2.9937,-3.012,-3.0219,-3.0505,-3.0985,-3.0964,-3.0593,-3.0624,-3.0587,-3.0464,-3.0468,-3.0472,-3.029,-3.0191,-3.0092,-2.9843,-2.9317,-2.9102,-2.9102,-2.8953,-2.8771,-2.8804,-2.8953,-2.8837,-2.8624,-3.5048,-3.5197,-3.5622,-3.5926,-3.6123,-3.6332,-3.6109,-3.573,-3.6188,-3.5587,-3.4515,-3.458,-3.4228,-3.347,-3.3326,-3.3326,-3.3365,-3.3731,-3.3692,-3.3273,-3.2751,-3.2346,-3.2071,-3.1326,-3.1024,-3.1024,-3.1024,-3.1222,-3.1676,-3.2173,-3.2769,-3.3478,-3.4274,-3.4787,-3.5037,-3.4912,-3.4442,-3.3604,-3.332,-3.2691,-3.1809,-3.175,-3.1735,-3.1585,-3.1735,-3.1854,-3.1884,-3.2093,-3.2004,-3.1615,-3.1496,-3.1496,-3.1496,-3.1496,-3.1496,-3.1496,-3.1496,-3.1496,-3.1496,-3.1496,-3.1496,-3.1496,-3.1496,-3.1496,-3.1496,-3.1496,-3.1496,-3.1496,-3.1496,-3.1496,-3.1496,-3.1496,-3.1286,-3.0928,-3.0896,-3.0717,-3.0357,-3.0298,-3.0342,-3.0387,-3.0357,-3.0313,-3.0313,-3.0313,-3.0313,-3.0298,-3.0265,-3.025,-3.0281,-3.0411,-3.0588,-3.0766,-3.1002,-3.1389,-3.1885,-3.1512,-3.0787,-3.0701,-3.0695,-3.0528,-3.0426,-3.0468,-3.039,-3.039,-3.0323,-3.0274,-2.9827,-2.9831,-2.9814,-2.9566,-2.9367,-2.9599,-2.9694,-2.9218,-2.9019,-3.4598,-3.4908,-3.5201,-3.56,-3.607,-3.6619,-3.6515,-3.6214,-3.6698,-3.6319,-3.5456,-3.5312,-3.4986,-3.4515,-3.4267,-3.4214,-3.4371,-3.4293,-3.4293,-3.4136,-3.3744,-3.3208,-3.2398,-3.1535,-3.1104,-3.0986,-3.1024,-3.1099,-3.1334,-3.1394,-3.1468,-3.2563,-3.3318,-3.3734,-3.4533,-3.5121,-3.4741,-3.3858,-3.4084,-3.3335,-3.1854,-3.2258,-3.2303,-3.178,-3.2243,-3.2542,-3.2647,-3.3006,-3.2841,-3.1824,-3.178,-3.1809,-3.1675,-3.16,-3.1615,-3.163,-3.1555,-3.1496,-3.1496,-3.1496,-3.1496,-3.1496,-3.1496,-3.1496,-3.1496,-3.1496,-3.1496,-3.1496,-3.1496,-3.1496,-3.1496,-3.1496,-3.1466,-3.1481,-3.1376,-3.1361,-3.1466,-3.1391,-3.1271,-3.1331,-3.1466,-3.1466,-3.1316,-3.1331,-3.1346,-3.1314,-3.1218,-3.1141,-3.1097,-3.1105,-3.1319,-3.1444,-3.1463,-3.1788,-3.213,-3.1417,-3.0786,-3.1069,-3.0852,-3.0359,-3.0349,-3.0426,-3.0489,-3.0489,-3.0447,-3.0452,-3.0423,-3.0307,-3.0274,-3.0141,-3.0174,-3.0439,-3.0224,-2.9731,-2.9566,-3.4447,-3.4588,-3.5061,-3.5391,-3.5587,-3.6109,-3.6266,-3.6188,-3.6737,-3.6567,-3.5979,-3.5887,-3.5521,-3.5038,-3.4567,-3.4397,-3.4397,-3.4397,-3.4397,-3.4371,-3.428,-3.3339,-3.2254,-3.1758,-3.1405,-3.1091,-3.1102,-3.1259,-3.1773,-3.1713,-3.2376,-3.3685,-3.3685,-3.4308,-3.5088,-3.4865,-3.4622,-3.4234,-3.3858,-3.3619,-3.3125,-3.3095,-3.3155,-3.3036,-3.314,-3.3245,-3.3245,-3.3395,-3.341,-3.3051,-3.2991,-3.2976,-3.2856,-3.2437,-3.2168,-3.2123,-3.175,-3.1496,-3.1496,-3.1525,-3.1511,-3.1496,-3.157,-3.1496,-3.1496,-3.1496,-3.1496,-3.1496,-3.1496,-3.154,-3.1525,-3.154,-3.1525,-3.1496,-3.1496,-3.1496,-3.1496,-3.1496,-3.1496,-3.1496,-3.1496,-3.1496,-3.1496,-3.1496,-3.1496,-3.1495,-3.1474,-3.1451,-3.1412,-3.1425,-3.1467,-3.1494,-3.1594,-3.1932,-3.1951,-3.1228,-3.0979,-3.1388,-3.0982,-3.0009,-3.0167,-3.0384,-3.0447,-3.0489,-3.0363,-3.0326,-3.0426,-3.0418,-3.0489,-3.0426,-3.0426,-3.0384,-3.0468,-3.0191,-3.0141,-3.4397,-3.4424,-3.4776,-3.492,-3.5038,-3.577,-3.5979,-3.5966,-3.6632,-3.6528,-3.5913,-3.577,-3.5456,-3.4907,-3.4554,-3.4397,-3.4397,-3.4397,-3.4397,-3.4397,-3.4384,-3.3705,-3.2777,-3.2332,-3.2019,-3.1718,-3.1444,-3.1566,-3.1825,-3.1773,-3.2173,-3.2684,-3.3234,-3.3616,-3.3905,-3.4387,-3.428,-3.412,-3.4103,-3.4128,-3.3559,-3.3769,-3.3694,-3.3649,-3.3739,-3.3993,-3.4277,-3.4352,-3.4128,-3.3664,-3.3499,-3.3499,-3.344,-3.2871,-3.2497,-3.2467,-3.1884,-3.1496,-3.1555,-3.1735,-3.1914,-3.1929,-3.1914,-3.1914,-3.1869,-3.1705,-3.154,-3.1899,-3.1899,-3.2064,-3.2228,-3.2093,-3.1795,-3.1555,-3.1496,-3.1496,-3.1496,-3.1496,-3.1496,-3.1496,-3.1496,-3.1496,-3.1496,-3.1496,-3.1496,-3.1496,-3.1496,-3.1493,-3.1493,-3.1511,-3.1597,-3.164,-3.1796,-3.2133,-3.2257,-3.1701,-3.1171,-3.1534,-3.1158,-3.0129,-3.0007,-3.0283,-3.0201,-3.0239,-3.0238,-3.0248,-3.0297,-3.0323,-3.0321,-3.0279,-3.0279,-3.03,-3.0342,-3.0284,-3.0305,-3.4343,-3.4356,-3.4356,-3.4397,-3.458,-3.5456,-3.5652,-3.5561,-3.6305,-3.6266,-3.56,-3.5351,-3.5116,-3.4489,-3.4502,-3.4397,-3.4397,-3.4397,-3.4397,-3.4397,-3.4371,-3.4031,-3.36,-3.3012,-3.2698,-3.2489,-3.2071,-3.1967,-3.1925,-3.1468,-3.1268,-3.1823,-3.2218,-3.2362,-3.3164,-3.3916,-3.4074,-3.4138,-3.4827,-3.4816,-3.4188,-3.4337,-3.4367,-3.4098,-3.4367,-3.4816,-3.5205,-3.5325,-3.4921,-3.3784,-3.3709,-3.3844,-3.3724,-3.3125,-3.2796,-3.2736,-3.2347,-3.1884,-3.1839,-3.2377,-3.2617,-3.2617,-3.2512,-3.2497,-3.2333,-3.1974,-3.1899,-3.2347,-3.2557,-3.2781,-3.2931,-3.2751,-3.2153,-3.166,-3.1496,-3.1496,-3.1496,-3.1496,-3.1496,-3.1496,-3.1496,-3.1496,-3.1496,-3.1496,-3.1496,-3.1496,-3.1496,-3.1496,-3.1496,-3.1496,-3.1697,-3.1938,-3.2104,-3.2339,-3.2365,-3.2246,-3.1818,-3.1622,-3.1119,-3.0447,-3.0037,-3.0071,-2.9925,-2.9906,-3.0164,-3.0151,-2.9996,-3.0036,-3.0022,-2.9941,-2.9832,-2.9984,-3.0113,-2.9968,-2.9946,-3.3979,-3.416,-3.4147,-3.4243,-3.4437,-3.4672,-3.4986,-3.5312,-3.5547,-3.5783,-3.577,-3.5469,-3.5195,-3.5025,-3.458,-3.4397,-3.4397,-3.4397,-3.4397,-3.4397,-3.4397,-3.4358,-3.411,-3.3626,-3.3169,-3.2829,-3.2607,-3.2515,-3.2372,-3.2018,-3.1945,-3.2495,-3.2554,-3.3213,-3.3796,-3.4404,-3.5201,-3.5115,-3.5379,-3.5355,-3.51,-3.507,-3.513,-3.4966,-3.513,-3.5295,-3.5444,-3.5489,-3.5355,-3.5145,-3.5011,-3.4906,-3.4801,-3.4322,-3.3948,-3.3754,-3.3365,-3.3021,-3.3095,-3.314,-3.3275,-3.326,-3.2916,-3.2497,-3.2497,-3.2407,-3.2333,-3.2617,-3.2946,-3.317,-3.2976,-3.2677,-3.2288,-3.1869,-3.1645,-3.1585,-3.1511,-3.1511,-3.1496,-3.1496,-3.1496,-3.1496,-3.1496,-3.1496,-3.1496,-3.1496,-3.1496,-3.1496,-3.1496,-3.1496,-3.1653,-3.1881,-3.1894,-3.202,-3.2028,-3.198,-3.1781,-3.1539,-3.1163,-3.0888,-3.0473,-3.0353,-3.0371,-3.0305,-3.0244,-3.0117,-2.9839,-2.9552,-2.9507,-2.9444,-2.9409,-2.9461,-2.955,-2.9489,-2.9579,-3.3852,-3.4076,-3.4076,-3.4202,-3.445,-3.4698,-3.4842,-3.4933,-3.5195,-3.5286,-3.5234,-3.4972,-3.4881,-3.4855,-3.4554,-3.4397,-3.4397,-3.4397,-3.4397,-3.4397,-3.4397,-3.4397,-3.4371,-3.4136,-3.377,-3.3456,-3.3221,-3.313,-3.296,-3.2607,-3.2423,-3.2781,-3.2746,-3.2869,-3.36,-3.4277,-3.4539,-3.4924,-3.5326,-3.5489,-3.5489,-3.5489,-3.5489,-3.5489,-3.5489,-3.5489,-3.5489,-3.5489,-3.5489,-3.5489,-3.5489,-3.5489,-3.5385,-3.4876,-3.4517,-3.4399,-3.3873,-3.3529,-3.3514,-3.3769,-3.3963,-3.3994,-3.3604,-3.3514,-3.3335,-3.3185,-3.3155,-3.341,-3.3709,-3.3799,-3.3484,-3.3455,-3.3095,-3.2602,-3.2407,-3.2303,-3.2004,-3.1705,-3.1496,-3.1496,-3.1496,-3.1496,-3.1496,-3.1496,-3.1496,-3.1496,-3.1496,-3.1496,-3.1496,-3.1496,-3.1496,-3.1611,-3.1582,-3.1582,-3.1582,-3.1549,-3.1545,-3.1409,-3.1302,-3.1179,-3.1025,-3.0983,-3.1032,-3.0768,-3.0413,-2.9962,-2.969,-2.934,-2.9147,-2.9122,-2.9113,-2.9005,-2.9005,-2.915,-2.9257,-3.3781,-3.4021,-3.4034,-3.4147,-3.4476,-3.4894,-3.4842,-3.4541,-3.4933,-3.4881,-3.4502,-3.4397,-3.4489,-3.441,-3.4424,-3.4397,-3.4397,-3.4397,-3.4397,-3.4397,-3.4397,-3.4397,-3.4384,-3.4345,-3.4306,-3.4332,-3.3927,-3.3718,-3.3589,-3.3303,-3.3251,-3.3053,-3.2873,-3.3457,-3.3675,-3.3719,-3.4403,-3.5056,-3.532,-3.5489,-3.5489,-3.5489,-3.5489,-3.5489,-3.5489,-3.5489,-3.5489,-3.5489,-3.5489,-3.5489,-3.5489,-3.5489,-3.5355,-3.5026,-3.4637,-3.4651,-3.4233,-3.4068,-3.4128,-3.4367,-3.4637,-3.4668,-3.4488,-3.4459,-3.4294,-3.3963,-3.3918,-3.4203,-3.4472,-3.4578,-3.4518,-3.4324,-3.4039,-3.3589,-3.3455,-3.323,-3.2706,-3.2108,-3.1929,-3.1496,-3.1496,-3.1496,-3.1496,-3.1496,-3.1496,-3.1496,-3.1496,-3.1496,-3.1496,-3.1496,-3.1496,-3.1496,-3.1496,-3.1496,-3.1496,-3.1496,-3.1421,-3.1406,-3.1376,-3.1375,-3.1374,-3.1334,-3.1207,-3.083,-3.0459,-3.0103,-2.9781,-2.9567,-2.9354,-2.9091,-2.8825,-2.87,-2.8728,-2.885,-2.8834,-3.3398,-3.3768,-3.3768,-3.4008,-3.4369,-3.4515,-3.4515,-3.4424,-3.4528,-3.4502,-3.4424,-3.4397,-3.4397,-3.4397,-3.4397,-3.4397,-3.4397,-3.4397,-3.4397,-3.4397,-3.4397,-3.4397,-3.4397,-3.4397,-3.4397,-3.4384,-3.4323,-3.4312,-3.4277,-3.4366,-3.4166,-3.4463,-3.4887,-3.5344,-3.5425,-3.5864,-3.5667,-3.5722,-3.5705,-3.5609,-3.5504,-3.5489,-3.5489,-3.5489,-3.5489,-3.5489,-3.5489,-3.5489,-3.5489,-3.5489,-3.5489,-3.5489,-3.5474,-3.534,-3.5265,-3.5205,-3.5085,-3.4906,-3.4981,-3.516,-3.531,-3.5205,-3.4861,-3.4593,-3.4487,-3.4412,-3.4442,-3.4592,-3.4951,-3.51,-3.4563,-3.4608,-3.4234,-3.3754,-3.3634,-3.3544,-3.338,-3.314,-3.2647,-3.1959,-3.172,-3.1496,-3.1496,-3.1496,-3.1496,-3.1496,-3.1496,-3.1496,-3.1496,-3.1496,-3.1496,-3.1496,-3.1496,-3.1496,-3.1496,-3.1496,-3.1466,-3.1466,-3.1451,-3.1451,-3.1465,-3.1466,-3.1296,-3.1028,-3.0784,-3.0485,-3.0172,-2.984,-2.9463,-2.9154,-2.8779,-2.8439,-2.8449,-2.8514,-2.8168,-3.3283,-3.3543,-3.3556,-3.3725,-3.4008,-3.4008,-3.4105,-3.4243,-3.4243,-3.4314,-3.4356,-3.4397,-3.4397,-3.4397,-3.4397,-3.4397,-3.4397,-3.4397,-3.4397,-3.4397,-3.4397,-3.4397,-3.441,-3.441,-3.4397,-3.4551,-3.4786,-3.4771,-3.4454,-3.4493,-3.4754,-3.4714,-3.5245,-3.5695,-3.6069,-3.6198,-3.6448,-3.6388,-3.6178,-3.5804,-3.5534,-3.5489,-3.5489,-3.5489,-3.5489,-3.5489,-3.5489,-3.5489,-3.5489,-3.5489,-3.5489,-3.5489,-3.5489,-3.5489,-3.5489,-3.5489,-3.5489,-3.5489,-3.5489,-3.5489,-3.5474,-3.5459,-3.5145,-3.504,-3.5011,-3.5011,-3.4966,-3.507,-3.5175,-3.5385,-3.507,-3.4996,-3.4846,-3.4637,-3.4487,-3.4307,-3.4144,-3.4023,-3.341,-3.2617,-3.2377,-3.2034,-3.1496,-3.1496,-3.1496,-3.1496,-3.1525,-3.154,-3.157,-3.1496,-3.1496,-3.1496,-3.1496,-3.1496,-3.1496,-3.1496,-3.1496,-3.1496,-3.1496,-3.1496,-3.1496,-3.1496,-3.1496,-3.1359,-3.112,-3.0838,-3.055,-3.0198,-2.9723,-2.9295,-2.921,-2.8982,-2.8449,-2.8109,-2.8019,-3.3197,-3.3386,-3.3386,-3.3513,-3.367,-3.3713,-3.381,-3.3992,-3.4076,-3.4202,-3.4314,-3.4356,-3.4397,-3.4397,-3.4397,-3.4397,-3.4397,-3.4397,-3.4397,-3.4397,-3.4397,-3.4397,-3.441,-3.4541,-3.4633,-3.4769,-3.5133,-3.5262,-3.5005,-3.5332,-3.5291,-3.5653,-3.5625,-3.5833,-3.649,-3.6873,-3.6763,-3.6596,-3.6488,-3.6148,-3.5654,-3.5489,-3.5489,-3.5489,-3.5489,-3.5489,-3.5489,-3.5489,-3.5489,-3.5489,-3.5489,-3.5489,-3.5489,-3.5489,-3.5489,-3.5489,-3.5489,-3.5489,-3.5489,-3.5489,-3.5489,-3.5489,-3.5489,-3.5474,-3.5459,-3.5385,-3.5429,-3.5489,-3.5489,-3.5489,-3.54,-3.5459,-3.5444,-3.5415,-3.5355,-3.5295,-3.4876,-3.4607,-3.4337,-3.3709,-3.3215,-3.2781,-3.2348,-3.2198,-3.2348,-3.2183,-3.2198,-3.1929,-3.1899,-3.1555,-3.1496,-3.1496,-3.1496,-3.1496,-3.1496,-3.1496,-3.1496,-3.1496,-3.1496,-3.1496,-3.1496,-3.1496,-3.1496,-3.1496,-3.1451,-3.1182,-3.0881,-3.0627,-3.0328,-3.0058,-2.9864,-2.9532,-2.9037,-2.8798,-2.8723,-3.3197,-3.3386,-3.3386,-3.3513,-3.367,-3.367,-3.3725,-3.3755,-3.3992,-3.4118,-3.416,-3.4314,-3.4397,-3.4397,-3.4397,-3.4397,-3.4397,-3.4397,-3.4397,-3.4397,-3.4397,-3.4437,-3.4515,-3.4986,-3.5116,-3.5201,-3.5342,-3.547,-3.5737,-3.6797,-3.7453,-3.7472,-3.7809,-3.8451,-3.7592,-3.7863,-3.7769,-3.7174,-3.6724,-3.6193,-3.5669,-3.5534,-3.5489,-3.5489,-3.5489,-3.5489,-3.5489,-3.5489,-3.5489,-3.5489,-3.5489,-3.5489,-3.5489,-3.5489,-3.5489,-3.5489,-3.5489,-3.5489,-3.5489,-3.5489,-3.5489,-3.5489,-3.5489,-3.5489,-3.5489,-3.5489,-3.5489,-3.5489,-3.5489,-3.5489,-3.5489,-3.5489,-3.5489,-3.5489,-3.5489,-3.5474,-3.5295,-3.5085,-3.4831,-3.4637,-3.4098,-3.3799,-3.3455,-3.3365,-3.3275,-3.3066,-3.2841,-3.2527,-3.2153,-3.1765,-3.1496,-3.1496,-3.1496,-3.1496,-3.1496,-3.1496,-3.154,-3.1525,-3.1511,-3.1511,-3.1496,-3.1496,-3.1496,-3.1496,-3.1496,-3.1496,-3.1241,-3.1047,-3.0943,-3.0776,-3.0492,-3.0073,-2.9594,-2.946,-2.9385,-3.3167,-3.324,-3.324,-3.327,-3.3368,-3.3343,-3.3441,-3.3556,-3.3768,-3.3949,-3.4118,-3.4314,-3.4397,-3.4397,-3.4397,-3.4397,-3.4397,-3.4397,-3.4397,-3.4397,-3.4424,-3.458,-3.4907,-3.5182,-3.5391,-3.5703,-3.5958,-3.6456,-3.6804,-3.6724,-3.6961,-3.7668,-3.8315,-3.8435,-3.8225,-3.8713,-3.8487,-3.7842,-3.7024,-3.6402,-3.6043,-3.5729,-3.5504,-3.5489,-3.5489,-3.5489,-3.5489,-3.5489,-3.5489,-3.5489,-3.5489,-3.5489,-3.5489,-3.5489,-3.5489,-3.5489,-3.5489,-3.5489,-3.5489,-3.5489,-3.5489,-3.5489,-3.5489,-3.5489,-3.5489,-3.5489,-3.5489,-3.5489,-3.5489,-3.5489,-3.5489,-3.5489,-3.5489,-3.5489,-3.5489,-3.5489,-3.5489,-3.5489,-3.531,-3.5175,-3.5043,-3.4666,-3.4292,-3.3948,-3.3739,-3.3529,-3.3155,-3.2721,-3.2288,-3.1839,-3.1615,-3.1496,-3.1496,-3.1496,-3.1496,-3.1496,-3.16,-3.16,-3.1555,-3.154,-3.1511,-3.1496,-3.1496,-3.1496,-3.1496,-3.1496,-3.1496,-3.1406,-3.1227,-3.1137,-3.1062,-3.0629,-3.0238,-3.0133,-3.0073,-3.3124,-3.3124,-3.3124,-3.3124,-3.3124,-3.3124,-3.3197,-3.3356,-3.3556,-3.3768,-3.4021,-3.423,-3.4356,-3.4356,-3.4356,-3.4356,-3.4327,-3.4356,-3.4397,-3.4397,-3.445,-3.4633,-3.4894,-3.5155,-3.5482,-3.5957,-3.6211,-3.6811,-3.716,-3.713,-3.6947,-3.7256,-3.8,-3.8037,-3.8173,-3.8694,-3.8979,-3.8297,-3.752,-3.6911,-3.6447,-3.6013,-3.5714,-3.5564,-3.5489,-3.5489,-3.5489,-3.5489,-3.5489,-3.5489,-3.5489,-3.5489,-3.5489,-3.5489,-3.5489,-3.5489,-3.5489,-3.5489,-3.5489,-3.5489,-3.5489,-3.5489,-3.5489,-3.5489,-3.5489,-3.5489,-3.5489,-3.5489,-3.5489,-3.5489,-3.5489,-3.5489,-3.5489,-3.5489,-3.5489,-3.5489,-3.5489,-3.5489,-3.5489,-3.5385,-3.5295,-3.5355,-3.4951,-3.4472,-3.4173,-3.3978,-3.3529,-3.2991,-3.2557,-3.2183,-3.2198,-3.2168,-3.2198,-3.2213,-3.2168,-3.2079,-3.1989,-3.1839,-3.1795,-3.178,-3.1869,-3.166,-3.1496,-3.1496,-3.1525,-3.1496,-3.1496,-3.1496,-3.1496,-3.1361,-3.1256,-3.1152,-3.0913,-3.0778,-3.0703,-3.3124,-3.3124,-3.3124,-3.3124,-3.3124,-3.3124,-3.3124,-3.3167,-3.3356,-3.3556,-3.3852,-3.4134,-3.423,-3.4202,-3.4285,-3.4272,-3.4147,-3.4314,-3.445,-3.445,-3.4437,-3.4646,-3.4986,-3.5338,-3.5525,-3.5663,-3.6295,-3.7044,-3.7618,-3.7763,-3.7811,-3.8165,-3.8277,-3.7744,-3.7895,-3.8767,-3.9068,-3.8616,-3.8108,-3.7524,-3.6911,-3.6402,-3.6103,-3.5654,-3.5519,-3.5489,-3.5489,-3.5489,-3.5489,-3.5489,-3.5489,-3.5489,-3.5489,-3.5489,-3.5489,-3.5489,-3.5489,-3.5489,-3.5489,-3.5489,-3.5489,-3.5489,-3.5489,-3.5489,-3.5489,-3.5489,-3.5489,-3.5489,-3.5489,-3.5489,-3.5489,-3.5489,-3.5489,-3.5489,-3.5489,-3.5489,-3.5489,-3.5489,-3.5489,-3.5489,-3.5489,-3.5489,-3.5489,-3.4966,-3.4846,-3.4666,-3.4173,-3.3634,-3.3305,-3.3006,-3.3125,-3.317,-3.3215,-3.3245,-3.3275,-3.3125,-3.2826,-3.2647,-3.2557,-3.2512,-3.2482,-3.2138,-3.1735,-3.163,-3.1675,-3.1585,-3.1496,-3.1496,-3.1496,-3.1496,-3.1436,-3.1316,-3.1286,-3.1182,-3.1197,-3.3124,-3.3124,-3.3124,-3.3124,-3.3124,-3.3124,-3.3124,-3.3111,-3.3326,-3.3611,-3.3949,-3.3979,-3.4021,-3.4118,-3.416,-3.4202,-3.416,-3.4314,-3.4565,-3.4855,-3.4972,-3.5351,-3.577,-3.607,-3.6371,-3.6363,-3.6844,-3.7222,-3.7742,-3.82,-3.8112,-3.8257,-3.8723,-3.876,-3.8907,-3.8943,-3.9086,-3.9005,-3.8631,-3.8048,-3.7734,-3.6806,-3.6372,-3.6148,-3.5609,-3.5534,-3.5489,-3.5489,-3.5489,-3.5489,-3.5489,-3.5489,-3.5489,-3.5489,-3.5489,-3.5489,-3.5489,-3.5489,-3.5489,-3.5489,-3.5489,-3.5489,-3.5489,-3.5489,-3.5489,-3.5489,-3.5489,-3.5489,-3.5489,-3.5489,-3.5489,-3.5489,-3.5489,-3.5489,-3.5489,-3.5489,-3.5489,-3.5489,-3.5489,-3.5489,-3.5489,-3.5489,-3.5489,-3.5444,-3.5415,-3.5355,-3.4816,-3.4354,-3.3993,-3.3739,-3.3829,-3.3858,-3.3873,-3.3784,-3.3784,-3.3679,-3.3559,-3.3469,-3.3365,-3.3215,-3.3066,-3.2572,-3.2183,-3.2019,-3.1809,-3.169,-3.16,-3.1525,-3.1496,-3.1496,-3.1496,-3.1466,-3.1481,-3.1555,-3.1675,-3.3124,-3.3124,-3.3124,-3.3124,-3.3124,-3.3124,-3.3124,-3.3124,-3.324,-3.3581,-3.3992,-3.3852,-3.3852,-3.3992,-3.3992,-3.3992,-3.3992,-3.4157,-3.4676,-3.4966,-3.5266,-3.5857,-3.6392,-3.6658,-3.6488,-3.6885,-3.7574,-3.7965,-3.8201,-3.8663,-3.902,-3.9215,-3.9328,-3.9408,-3.8958,-3.9301,-3.9388,-3.9275,-3.9035,-3.8542,-3.8272,-3.7375,-3.6806,-3.6596,-3.5983,-3.5714,-3.5699,-3.5684,-3.5489,-3.5489,-3.5489,-3.5489,-3.5489,-3.5489,-3.5489,-3.5489,-3.5489,-3.5489,-3.5489,-3.5489,-3.5489,-3.5489,-3.5489,-3.5489,-3.5489,-3.5489,-3.5489,-3.5489,-3.5489,-3.5489,-3.5489,-3.5489,-3.5489,-3.5489,-3.5489,-3.5489,-3.5489,-3.5489,-3.5489,-3.5489,-3.5489,-3.5489,-3.5489,-3.5489,-3.5489,-3.5489,-3.5265,-3.4876,-3.4681,-3.4487,-3.4412,-3.4412,-3.4397,-3.4277,-3.4158,-3.4292,-3.4427,-3.4352,-3.4203,-3.3888,-3.3619,-3.3125,-3.2811,-3.2736,-3.2452,-3.1944,-3.1765,-3.175,-3.163,-3.1496,-3.1496,-3.1496,-3.1914,-3.2019,-3.2168,-3.3124,-3.3124,-3.3124,-3.3124,-3.3124,-3.3124,-3.3124,-3.3124,-3.3111,-3.3356,-3.3768,-3.3894,-3.3894,-3.381,-3.381,-3.381,-3.3836,-3.3887,-3.4434,-3.5214,-3.5427,-3.5622,-3.6074,-3.6475,-3.6632,-3.6637,-3.7697,-3.867,-3.8746,-4.0188,-4.0596,-4.0301,-4.0122,-3.9691,-3.8485,-3.9046,-3.9388,-3.9373,-3.9313,-3.8975,-3.8482,-3.7778,-3.7464,-3.7165,-3.6267,-3.5923,-3.6088,-3.5744,-3.5534,-3.5489,-3.5489,-3.5489,-3.5489,-3.5489,-3.5489,-3.5489,-3.5489,-3.5489,-3.5489,-3.5489,-3.5489,-3.5489,-3.5489,-3.5489,-3.5489,-3.5489,-3.5489,-3.5489,-3.5489,-3.5489,-3.5489,-3.5489,-3.5489,-3.5489,-3.5489,-3.5489,-3.5489,-3.5489,-3.5489,-3.5489,-3.5489,-3.5489,-3.5489,-3.5489,-3.5489,-3.5489,-3.5489,-3.537,-3.519,-3.5085,-3.4936,-3.4906,-3.4876,-3.4876,-3.4846,-3.516,-3.528,-3.5205,-3.4996,-3.4637,-3.4262,-3.3844,-3.3589,-3.3455,-3.3036,-3.2542,-3.2228,-3.2019,-3.2064,-3.2093,-3.16,-3.1615,-3.2093,-3.2467,-3.2542,-3.3124,-3.3124,-3.3124,-3.3124,-3.3124,-3.3124,-3.3124,-3.3124,-3.3124,-3.3313,-3.3628,-3.3696,-3.3683,-3.3713,-3.381,-3.381,-3.3764,-3.441,-3.5042,-3.5709,-3.5794,-3.6597,-3.7,-3.7032,-3.7011,-3.725,-3.8358,-3.9046,-3.883,-4.0783,-4.1456,-4.116,-4.0502,-3.9876,-3.9268,-3.9337,-3.9388,-3.9388,-3.9394,-3.926,-3.899,-3.8422,-3.8033,-3.7988,-3.6821,-3.6327,-3.6492,-3.5938,-3.5609,-3.5504,-3.5489,-3.5489,-3.5489,-3.5489,-3.5489,-3.5489,-3.5489,-3.5489,-3.5489,-3.5489,-3.5489,-3.5489,-3.5489,-3.5489,-3.5489,-3.5489,-3.5489,-3.5489,-3.5489,-3.5489,-3.5489,-3.5489,-3.5489,-3.5489,-3.5489,-3.5489,-3.5489,-3.5489,-3.5489,-3.5489,-3.5489,-3.5489,-3.5489,-3.5489,-3.5489,-3.5489,-3.5489,-3.5489,-3.5355,-3.537,-3.5295,-3.531,-3.5325,-3.54,-3.5489,-3.5489,-3.5489,-3.537,-3.534,-3.525,-3.4876,-3.4472,-3.4307,-3.4159,-3.3619,-3.3125,-3.2886,-3.2721,-3.2871,-3.2781,-3.2243,-3.2064,-3.2527,-3.2766,-3.2736,-3.3124,-3.3124,-3.3124,-3.3124,-3.3124,-3.3124,-3.3124,-3.3124,-3.3154,-3.3356,-3.3513,-3.3484,-3.3484,-3.3598,-3.3696,-3.3852,-3.3709,-3.4041,-3.5076,-3.5799,-3.5817,-3.6464,-3.7124,-3.7554,-3.7196,-3.7548,-3.8482,-3.924,-3.9535,-4.1001,-4.1429,-4.11,-4.0711,-4.0382,-3.9986,-3.9822,-3.9388,-3.9388,-3.9373,-3.9373,-3.9155,-3.8811,-3.8512,-3.8317,-3.7644,-3.6836,-3.6641,-3.6252,-3.5744,-3.5624,-3.5534,-3.5534,-3.5534,-3.5504,-3.5504,-3.5489,-3.5489,-3.5489,-3.5489,-3.5489,-3.5489,-3.5489,-3.5489,-3.5489,-3.5489,-3.5489,-3.5489,-3.5489,-3.5489,-3.5489,-3.5489,-3.5489,-3.5489,-3.5489,-3.5489,-3.5489,-3.5489,-3.5489,-3.5489,-3.5489,-3.5489,-3.5489,-3.5489,-3.5489,-3.5489,-3.5489,-3.5489,-3.5489,-3.5489,-3.5489,-3.5489,-3.5489,-3.5489,-3.5489,-3.5489,-3.5489,-3.5489,-3.5489,-3.5489,-3.5489,-3.54,-3.4996,-3.4906,-3.4788,-3.4247,-3.3799,-3.3529,-3.344,-3.3425,-3.326,-3.2871,-3.2856,-3.311,-3.32,-3.3245,-3.3124,-3.3124,-3.3124,-3.3124,-3.3124,-3.3124,-3.3124,-3.3124,-3.327,-3.3386,-3.3398,-3.3428,-3.3428,-3.3398,-3.3283,-3.3398,-3.362,-3.3482,-3.4364,-3.5164,-3.528,-3.6007,-3.6527,-3.6819,-3.6994,-3.7599,-3.8416,-3.933,-4.0334,-4.1068,-4.1196,-4.1127,-4.0984,-4.089,-4.0726,-4.0322,-3.9783,-3.9672,-3.9649,-3.9538,-3.9334,-3.8901,-3.8886,-3.8706,-3.8153,-3.7554,-3.7255,-3.6866,-3.6297,-3.5968,-3.5714,-3.5669,-3.5624,-3.5564,-3.5534,-3.5489,-3.5489,-3.5489,-3.5489,-3.5489,-3.5489,-3.5489,-3.5489,-3.5489,-3.5489,-3.5489,-3.5489,-3.5489,-3.5489,-3.5489,-3.5489,-3.5489,-3.5489,-3.5489,-3.5489,-3.5489,-3.5489,-3.5489,-3.5489,-3.5489,-3.5489,-3.5489,-3.5489,-3.5489,-3.5489,-3.5489,-3.5489,-3.5489,-3.5489,-3.5489,-3.5489,-3.5489,-3.5489,-3.5489,-3.5489,-3.5489,-3.5489,-3.5489,-3.5489,-3.5489,-3.5459,-3.5444,-3.528,-3.5055,-3.4786,-3.4502,-3.4292,-3.4038,-3.3829,-3.3634,-3.3694,-3.3634,-3.3873,-3.3993,-3.4143,-3.3124,-3.3124,-3.3124,-3.3124,-3.3124,-3.3124,-3.3124,-3.3124,-3.3197,-3.3326,-3.3598,-3.3471,-3.3471,-3.3586,-3.3556,-3.3526,-3.3581,-3.3792,-3.4295,-3.4707,-3.493,-3.5442,-3.593,-3.6315,-3.6645,-3.7202,-3.8026,-3.8912,-3.9842,-4.0646,-4.1657,-4.1917,-4.1617,-4.1592,-4.1369,-4.0995,-4.0576,-4.0262,-4.0172,-3.9813,-3.9574,-3.923,-3.9254,-3.9029,-3.8631,-3.8153,-3.7883,-3.7464,-3.6985,-3.6851,-3.6821,-3.6836,-3.6851,-3.6447,-3.6103,-3.5534,-3.5489,-3.5489,-3.5489,-3.5504,-3.5579,-3.5654,-3.5609,-3.5504,-3.5489,-3.5549,-3.5549,-3.5489,-3.5489,-3.5489,-3.5489,-3.5489,-3.5489,-3.5489,-3.5489,-3.5489,-3.5489,-3.5489,-3.5489,-3.5489,-3.5489,-3.5489,-3.5489,-3.5489,-3.5489,-3.5489,-3.5489,-3.5489,-3.5489,-3.5489,-3.5489,-3.5489,-3.5489,-3.5489,-3.5489,-3.5489,-3.5489,-3.5489,-3.5489,-3.5489,-3.5489,-3.5474,-3.5489,-3.537,-3.5115,-3.5085,-3.5085,-3.4816,-3.4502,-3.4801,-3.4891,-3.4726,-3.4653,-3.4683,-3.4741,-3.3124,-3.3124,-3.3124,-3.3124,-3.3124,-3.3124,-3.3124,-3.3124,-3.3124,-3.324,-3.3428,-3.3386,-3.3441,-3.3428,-3.3513,-3.3513,-3.3424,-3.3523,-3.3938,-3.4443,-3.4607,-3.4863,-3.5258,-3.5737,-3.6135,-3.6716,-3.741,-3.8225,-3.9417,-4.0817,-4.1907,-4.1575,-4.1947,-4.2249,-4.2132,-4.1908,-4.1564,-4.122,-4.0861,-4.0277,-3.9858,-3.9597,-3.9627,-3.9328,-3.8916,-3.8721,-3.8407,-3.7943,-3.7749,-3.7479,-3.7404,-3.7389,-3.736,-3.6985,-3.6791,-3.6357,-3.6342,-3.6372,-3.6387,-3.6357,-3.6297,-3.6237,-3.6207,-3.6312,-3.6043,-3.5938,-3.5684,-3.5489,-3.5489,-3.5489,-3.5489,-3.5489,-3.5489,-3.5489,-3.5489,-3.5489,-3.5489,-3.5489,-3.5489,-3.5489,-3.5489,-3.5489,-3.5489,-3.5489,-3.5489,-3.5489,-3.5489,-3.5489,-3.5489,-3.5489,-3.5489,-3.5489,-3.5489,-3.5489,-3.5489,-3.5489,-3.5489,-3.5489,-3.5489,-3.5489,-3.5489,-3.5489,-3.5489,-3.5489,-3.5459,-3.5415,-3.534,-3.54,-3.528,-3.5489,-3.5489,-3.525,-3.504,-3.5055,-3.519,-3.3124,-3.3124,-3.3124,-3.3124,-3.3124,-3.3124,-3.3124,-3.3124,-3.3124,-3.3124,-3.321,-3.3313,-3.3283,-3.3283,-3.3356,-3.3356,-3.3283,-3.3323,-3.3525,-3.4103,-3.386,-3.3989,-3.4433,-3.4932,-3.5443,-3.6036,-3.6909,-3.8053,-3.9522,-4.0901,-4.1547,-4.0859,-4.1792,-4.2485,-4.2871,-4.2641,-4.2282,-4.1991,-4.1542,-4.0935,-4.0038,-3.9918,-4.0053,-3.9508,-3.9269,-3.9155,-3.8691,-3.8377,-3.8212,-3.7793,-3.7579,-3.7669,-3.7554,-3.7524,-3.7449,-3.7255,-3.7105,-3.709,-3.7075,-3.7075,-3.7165,-3.7225,-3.7375,-3.718,-3.6776,-3.6447,-3.6178,-3.6103,-3.6163,-3.6163,-3.6178,-3.5953,-3.5848,-3.5729,-3.5654,-3.5579,-3.5489,-3.5489,-3.5489,-3.5489,-3.5489,-3.5489,-3.5489,-3.5489,-3.5489,-3.5489,-3.5489,-3.5489,-3.5489,-3.5489,-3.5489,-3.5489,-3.5489,-3.5489,-3.5489,-3.5489,-3.5489,-3.5489,-3.5489,-3.5489,-3.5489,-3.5489,-3.5489,-3.5489,-3.5489,-3.5489,-3.5474,-3.5489,-3.5489,-3.5489,-3.5489,-3.5489,-3.5444,-3.537,-3.54,-3.3124,-3.3124,-3.3124,-3.3124,-3.3124,-3.3124,-3.3124,-3.3124,-3.3124,-3.3197,-3.327,-3.324,-3.324,-3.3283,-3.324,-3.324,-3.3167,-3.3167,-3.3199,-3.3455,-3.3364,-3.3422,-3.367,-3.4224,-3.4768,-3.5558,-3.6599,-3.7985,-3.9766,-4.1013,-4.2017,-4.2464,-4.2803,-4.3006,-4.317,-4.294,-4.2851,-4.253,-4.2036,-4.1324,-4.0412,-3.9753,-3.9478,-3.9388,-3.9328,-3.9328,-3.9095,-3.911,-3.908,-3.891,-3.891,-3.8691,-3.8212,-3.8182,-3.7898,-3.7539,-3.752,-3.7579,-3.7614,-3.7644,-3.7659,-3.7554,-3.7524,-3.7434,-3.727,-3.706,-3.6941,-3.6926,-3.6866,-3.6851,-3.6761,-3.6462,-3.6222,-3.6043,-3.5893,-3.5744,-3.5579,-3.5519,-3.5519,-3.5489,-3.5489,-3.5489,-3.5489,-3.5489,-3.5489,-3.5489,-3.5489,-3.5489,-3.5489,-3.5489,-3.5489,-3.5489,-3.5489,-3.5489,-3.5489,-3.5489,-3.5489,-3.5489,-3.5489,-3.5489,-3.5489,-3.5489,-3.5489,-3.5489,-3.5489,-3.5489,-3.5489,-3.5489,-3.5489,-3.5489,-3.5489,-3.5489,-3.5489,-3.5444,-3.5459,-3.2466,-3.2717,-3.298,-3.3124,-3.3124,-3.3124,-3.3124,-3.3124,-3.3124,-3.3154,-3.3283,-3.324,-3.324,-3.3326,-3.324,-3.3154,-3.3124,-3.3124,-3.3149,-3.3179,-3.3197,-3.3197,-3.3424,-3.3726,-3.4249,-3.5009,-3.5965,-3.7443,-3.9394,-4.0224,-4.0907,-4.1905,-4.2347,-4.2981,-4.2951,-4.309,-4.3095,-4.2806,-4.2336,-4.1519,-4.0711,-4.0202,-3.9627,-3.9553,-3.9388,-3.9388,-3.9388,-3.9388,-3.9388,-3.9373,-3.9298,-3.9245,-3.8916,-3.8856,-3.8676,-3.8482,-3.8357,-3.8267,-3.8222,-3.8212,-3.8212,-3.8182,-3.8272,-3.8402,-3.8446,-3.8257,-3.7719,-3.7594,-3.7206,-3.7165,-3.7165,-3.6941,-3.6896,-3.6776,-3.6656,-3.6537,-3.6088,-3.5729,-3.5624,-3.5489,-3.5489,-3.5489,-3.5489,-3.5489,-3.5489,-3.5489,-3.5489,-3.5489,-3.5489,-3.5489,-3.5489,-3.5489,-3.5489,-3.5489,-3.5489,-3.5489,-3.5489,-3.5489,-3.5489,-3.5489,-3.5489,-3.5489,-3.5489,-3.5489,-3.5489,-3.5489,-3.5489,-3.5489,-3.5489,-3.5489,-3.5489,-3.5489,-3.5489,-3.5489,-3.5489,-3.175,-3.2265,-3.2754,-3.3018,-3.3081,-3.3124,-3.3124,-3.3124,-3.3124,-3.3124,-3.3124,-3.3283,-3.324,-3.324,-3.3283,-3.3197,-3.3167,-3.3124,-3.3124,-3.3124,-3.3124,-3.3124,-3.3275,-3.3564,-3.4078,-3.4845,-3.5809,-3.6588,-3.7762,-3.9103,-4.0324,-4.035,-4.1291,-4.257,-4.2568,-4.2821,-4.303,-4.2701,-4.2177,-4.1459,-4.101,-4.0651,-3.9963,-3.9523,-3.9388,-3.9388,-3.9388,-3.9388,-3.9388,-3.9388,-3.9388,-3.9328,-3.9298,-3.9224,-3.9254,-3.9104,-3.9059,-3.9104,-3.9179,-3.9119,-3.9179,-3.9284,-3.9388,-3.9373,-3.9313,-3.9044,-3.8506,-3.8207,-3.7819,-3.7704,-3.7704,-3.7569,-3.7554,-3.7464,-3.736,-3.7195,-3.6626,-3.6118,-3.5953,-3.5774,-3.5714,-3.5714,-3.5654,-3.5654,-3.5549,-3.5534,-3.5534,-3.5504,-3.5489,-3.5489,-3.5489,-3.5489,-3.5489,-3.5489,-3.5489,-3.5489,-3.5489,-3.5489,-3.5489,-3.5489,-3.5489,-3.5489,-3.5489,-3.5489,-3.5489,-3.5489,-3.5489,-3.5489,-3.5489,-3.5489,-3.5489,-3.5489,-3.5489,-3.5489,-3.5489,-3.1712,-3.2215,-3.234,-3.2629,-3.3074,-3.3111,-3.3124,-3.3124,-3.3124,-3.3124,-3.3124,-3.3124,-3.3124,-3.3124,-3.3124,-3.3124,-3.3124,-3.3124,-3.3124,-3.3124,-3.3124,-3.3124,-3.3174,-3.3338,-3.4058,-3.4908,-3.5999,-3.7437,-3.7398,-3.9334,-4.0739,-4.0588,-4.1362,-4.2173,-4.2378,-4.2566,-4.2611,-4.2372,-4.1953,-4.1235,-4.0576,-4.0142,-3.9642,-3.9403,-3.9388,-3.9388,-3.9388,-3.9388,-3.9388,-3.9388,-3.9388,-3.9388,-3.9388,-3.9388,-3.9388,-3.9388,-3.9388,-3.9388,-3.9388,-3.9388,-3.9388,-3.9388,-3.9388,-3.9388,-3.9358,-3.9343,-3.9029,-3.9029,-3.8775,-3.8775,-3.8736,-3.8347,-3.8212,-3.8018,-3.7868,-3.7599,-3.718,-3.7,-3.6881,-3.6671,-3.6507,-3.6417,-3.6282,-3.6118,-3.5759,-3.5774,-3.5804,-3.5789,-3.5848,-3.5714,-3.5609,-3.5594,-3.5624,-3.5489,-3.5489,-3.5489,-3.5489,-3.5489,-3.5489,-3.5489,-3.5489,-3.5489,-3.5489,-3.5489,-3.5489,-3.5489,-3.5489,-3.5489,-3.5489,-3.5489,-3.5489,-3.5489,-3.5489,-3.5489,-3.5489]}]]